[[{"header":{"parameterUnit":"m.s-1","parameterCategory":1,"la1":31.0,"la2":29.5877,"lo1":-88.7671,"lo2":-86.6584,"dy":0.0162,"dx":0.0185,"nx":115,"ny":88,"refTime":"2024-04-01T06:00:00:Z","depth":0,"parameterNumber":2,"parameterNumberName":"U-component_of_WINDS"},"data":[0.0,0.0,0.0,0.0,0.0,0.0,0.0,0.0,0.0,0.0,0.0,0.0,0.0,0.0,0.0,0.0,0.0,0.0,0.0,0.0,0.0,0.0,0.0,0.0,0.0,0.0,0.0,0.0,0.0,0.0,0.0,0.0,0.0,0.0,0.0,0.0,0.0,0.0,0.0,0.0,0.0,0.0,0.0,0.0,0.0,0.0,0.0,0.0,0.0,0.0,0.0,0.0,0.0,0.0,0.0,0.0,0.0,0.0,0.0,0.0,0.0,0.0,0.0,0.0,0.0,0.0,0.0,0.0,0.0,0.0,0.0,0.0,0.0,0.0,0.0,0.0,0.0,0.0,0.0,0.0,0.0,0.0,0.0,0.0,0.0,0.0,0.0,0.0,0.0,0.0,0.0,0.0,0.0,0.0,0.0,0.0,0.0,0.0,0.0,0.0,0.0,0.0,0.0,0.0,0.0,0.0,0.0,0.0,0.0,0.0,0.0,0.0,0.0,0.0,0.0,0.0,0.0,0.0,0.0,0.0,0.0,0.0,0.0,0.0,0.0,0.0,0.0,0.0,0.0,0.0,0.0,0.0,0.0,0.0,0.0,0.0,0.0,0.0,0.0,0.0,0.0,0.0,0.0,0.0,0.0,0.0,0.0,0.0,0.0,0.0,0.0,0.0,0.0,0.0,0.0,0.0,0.0,0.0,0.0,0.0,0.0,0.0,0.0,0.0,0.0,0.0,0.0,0.0,0.0,0.0,0.0,0.0,0.0,0.0,0.0,0.0,0.0,0.0,0.0,0.0,0.0,0.0,0.0,0.0,0.0,0.0,0.0,0.0,0.0,0.0,0.0,0.0,0.0,0.0,0.0,0.0,0.0,0.0,0.0,0.0,0.0,0.0,0.0,0.0,0.0,0.0,0.0,0.0,0.0,0.0,0.0,0.0,0.0,0.0,0.0,0.0,0.0,0.0,0.0,0.0,0.0,0.0,0.0,0.0,0.0,0.0,0.0,0.0,0.0,0.0,0.0,0.0,0.0,0.0,0.0,0.0,0.0,0.0,0.0,0.0,0.0,0.0,0.0,0.0,0.0,0.0,0.0,0.0,0.0,0.0,0.0,0.0,0.0,0.0,0.0,0.0,0.0,0.0,0.0,0.0,0.0,0.0,0.0,0.0,0.0,0.0,0.0,0.0,0.0,0.0,0.0,0.0,0.0,0.0,0.0,0.0,0.0,0.0,0.0,0.0,0.0,0.0,0.0,0.0,0.0,0.0,0.0,0.0,0.0,0.0,0.0,0.0,0.0,0.0,0.0,0.0,0.0,0.0,0.0,0.0,0.0,0.0,0.0,0.0,0.0,0.0,0.0,0.0,0.0,0.0,0.0,0.0,0.0,0.0,0.0,0.0,0.0,0.0,0.0,0.0,0.0,0.0,0.0,0.0,0.0,0.0,0.0,0.0,0.0,0.0,0.0,0.0,0.0,0.0,0.0,0.0,0.0,0.0,0.0,0.0,0.0,0.0,0.0,0.0,0.0,0.0,0.0,0.0,0.0,0.0,0.0,0.0,0.0,0.0,0.0,0.0,0.0,0.0,0.0,0.0,0.0,0.0,0.0,0.0,0.0,0.0,0.0,0.0,0.0,0.0,0.0,0.0,0.0,0.0,0.0,0.0,0.0,0.0,0.0,0.0,0.0,0.0,0.0,0.0,0.0,0.0,0.0,0.0,0.0,0.0,0.0,0.0,0.0,0.0,0.0,0.0,0.0,0.0,0.0,0.0,0.0,0.0,0.0,0.0,0.0,0.0,0.0,0.0,0.0,0.0,0.0,0.0,0.0,0.0,0.0,0.0,0.0,0.0,0.0,0.0,0.0,0.0,0.0,0.0,0.0,0.0,0.0,0.0,0.0,0.0,0.0,0.0,0.0,0.0,0.0,0.0,0.0,0.0,0.0,0.0,0.0,0.0,0.0,0.0,0.0,0.0,0.0,0.0,0.0,0.0,0.0,0.0,0.0,0.0,0.0,0.0,0.0,0.0,0.0,0.0,0.0,0.0,0.0,0.0,0.0,0.0,0.0,0.0,0.0,0.0,0.0,0.0,0.0,0.0,0.0,0.0,0.0,0.0,0.0,0.0,0.0,0.0,0.0,0.0,0.0,0.0,0.0,0.0,0.0,0.0,0.0,0.0,0.0,0.0,0.0,0.0,0.0,0.0,0.0,0.0,0.0,0.0,0.0,0.0,0.0,0.0,0.0,0.0,0.0,0.0,0.0,0.0,0.0,0.0,0.0,0.0,0.0,0.0,0.0,0.0,0.0,0.0,0.0,0.0,0.0,0.0,0.0,0.0,0.0,0.0,0.0,0.0,0.0,0.0,0.0,0.0,0.0,0.0,0.0,0.0,0.0,0.0,0.0,0.0,0.0,0.0,0.0,0.0,0.0,0.0,0.0,0.0,0.0,0.0,0.0,0.0,0.0,0.0,0.0,0.0,0.0,0.0,0.0,0.0,0.0,0.0,0.0,0.0,0.0,0.0,0.0,0.0,0.0,0.0,0.0,0.0,0.0,0.0,0.0,0.0,0.0,0.0,0.0,0.0,0.0,0.0,0.0,0.0,0.0,0.0,0.0,0.0,0.0,0.0,0.0,0.0,0.0,0.0,0.0,0.0,0.0,0.0,0.0,0.0,0.0,0.0,0.0,0.0,0.0,0.0,0.0,0.0,0.0,0.0,0.0,0.0,0.0,0.0,0.0,0.0,0.0,0.0,0.0,0.0,0.0,0.0,0.0,0.0,0.0,0.0,0.0,0.0,0.0,0.0,0.0,0.0,0.0,0.0,0.0,0.0,0.0,0.0,0.0,0.0,0.0,0.0,0.0,0.0,0.0,0.0,0.0,0.0,0.0,0.0,0.0,0.0,0.0,0.0,0.0,0.0,0.0,0.0,0.0,0.0,0.0,0.0,0.0,0.0,0.0,0.0,0.0,0.0,0.0,0.0,0.0,0.0,0.0,0.0,0.0,0.0,0.0,0.0,0.0,0.0,0.0,0.0,0.0,0.0,0.0,0.0,0.0,0.0,0.0,0.0,0.0,0.0,0.0,0.0,0.0,0.0,0.0,0.0,0.0,0.0,0.0,0.0,0.0,0.0,0.0,0.0,0.0,0.0,0.0,0.0,0.0,0.0,0.0,0.0,0.0,0.0,0.0,0.0,0.0,0.0,0.0,0.0,0.0,0.0,0.0,0.0,0.0,0.0,0.0,0.0,0.0,0.0,0.0,0.0,0.0,0.0,0.0,0.0,0.0,0.0,0.0,0.0,0.0,0.0,0.0,0.0,0.0,0.0,0.0,0.0,0.0,0.0,0.0,0.0,0.0,0.0,0.0,0.0,0.0,0.0,0.0,0.0,0.0,0.0,0.0,0.0,0.0,0.0,0.0,0.0,0.0,0.0,0.0,0.0,0.0,0.0,0.0,0.0,0.0,0.0,0.0,0.0,0.0,0.0,0.0,0.0,0.0,0.0,0.0,0.0,0.0,0.0,0.0,0.0,0.0,0.0,0.0,0.0,0.0,0.0,0.0,0.0,0.0,0.0,0.0,0.0,0.0,0.0,0.0,0.0,0.0,0.0,0.0,0.0,0.0,0.0,0.0,0.0,0.0,0.0,0.0,0.0,0.0,0.0,0.0,0.0,0.0,0.0,0.0,0.0,0.0,0.0,0.0,0.0,0.0,0.0,0.0,0.0,0.0,0.0,0.0,0.0,0.0,0.0,0.0,0.0,0.0,0.0,0.0,0.0,0.0,0.0,0.0,0.0,0.0,0.0,0.0,0.0,0.0,0.0,0.0,0.0,0.0,0.0,0.0,0.0,0.0,0.0,0.0,0.0,0.0,0.0,0.0,0.0,0.0,0.0,0.0,0.0,0.0,0.0,0.0,0.0,0.0,0.0,0.0,0.0,0.0,0.0,0.0,0.0,0.0,0.0,0.0,0.0,0.0,0.0,0.0,0.0,0.0,0.0,0.0,0.0,0.0,0.0,0.0,0.0,0.0,0.0,0.0,0.0,0.0,0.0,0.0,0.0,0.0,0.0,0.0,0.0,0.0,0.0,0.0,0.0,0.0,0.0,0.0,0.0,0.0,0.0,0.0,0.0,0.0,0.0,0.0,0.0,0.0,0.0,0.0,0.0,0.0,0.0,0.0,0.0,0.0,0.0,0.0,0.0,0.0,0.0,0.0,0.0,0.0,0.0,0.0,0.0,0.0,0.0,0.0,0.0,0.0,0.0,0.0,0.0,2.6971,0.0,0.0,0.0,0.0,0.0,0.0,0.0,0.0,0.0,0.0,0.0,0.0,0.0,0.0,0.0,0.0,0.0,0.0,0.0,0.0,0.0,0.0,0.0,0.0,0.0,0.0,0.0,0.0,0.0,0.0,0.0,0.0,0.0,0.0,0.0,0.0,0.0,0.0,0.0,0.0,0.0,0.0,0.0,0.0,0.0,0.0,0.0,0.0,0.0,0.0,0.0,0.0,0.0,0.0,0.0,0.0,0.0,0.0,0.0,0.0,0.0,0.0,0.0,0.0,0.0,0.0,0.0,0.0,0.0,0.0,0.0,0.0,0.0,0.0,0.0,0.0,0.0,0.0,0.0,0.0,0.0,0.0,0.0,0.0,0.0,0.0,0.0,0.0,0.0,0.0,0.0,0.0,0.0,0.0,0.0,0.0,0.0,0.0,0.0,0.0,0.0,0.0,0.0,0.0,0.0,0.0,0.0,0.0,0.0,0.0,2.7316,2.7316,2.7316,2.7316,2.7316,0.0,0.0,0.0,0.0,0.0,0.0,0.0,0.0,0.0,0.0,0.0,0.0,0.0,0.0,0.0,0.0,0.0,0.0,0.0,0.0,0.0,0.0,0.0,0.0,0.0,0.0,0.0,0.0,0.0,0.0,0.0,0.0,0.0,0.0,0.0,0.0,0.0,0.0,0.0,0.0,0.0,0.0,0.0,0.0,0.0,0.0,0.0,0.0,0.0,0.0,0.0,0.0,0.0,0.0,0.0,0.0,0.0,0.0,0.0,0.0,0.0,0.0,0.0,0.0,0.0,0.0,0.0,0.0,0.0,0.0,0.0,0.0,0.0,0.0,0.0,0.0,0.0,0.0,0.0,0.0,0.0,0.0,0.0,0.0,0.0,0.0,0.0,0.0,0.0,0.0,0.0,0.0,0.0,0.0,0.0,0.0,0.0,0.0,0.0,0.0,0.0,0.0,0.0,0.0,0.0,0.0,0.0,0.0,0.0,0.0,0.0,0.0,2.7316,2.7316,2.7316,0.0,0.0,0.0,0.0,0.0,0.0,0.0,0.0,0.0,0.0,0.0,0.0,0.0,0.0,0.0,0.0,0.0,0.0,0.0,0.0,0.0,0.0,0.0,0.0,0.0,0.0,0.0,0.0,0.0,0.0,0.0,0.0,0.0,0.0,0.0,0.0,0.0,0.0,0.0,0.0,0.0,0.0,0.0,0.0,0.0,0.0,0.0,0.0,0.0,0.0,0.0,0.0,0.0,0.0,0.0,0.0,0.0,0.0,0.0,0.0,0.0,0.0,0.0,0.0,0.0,0.0,0.0,0.0,0.0,0.0,0.0,0.0,0.0,0.0,0.0,0.0,0.0,0.0,0.0,0.0,0.0,0.0,0.0,0.0,0.0,0.0,0.0,0.0,0.0,0.0,0.0,0.0,0.0,0.0,0.0,0.0,0.0,0.0,0.0,0.0,0.0,0.0,0.0,0.0,0.0,0.0,0.0,0.0,0.0,0.0,2.7316,2.7316,2.7316,0.0,2.7316,0.0,0.0,0.0,0.0,0.0,0.0,0.0,0.0,0.0,0.0,0.0,0.0,0.0,0.0,0.0,0.0,0.0,0.0,0.0,0.0,0.0,0.0,0.0,0.0,0.0,0.0,0.0,0.0,0.0,0.0,0.0,0.0,0.0,0.0,0.0,0.0,0.0,0.0,0.0,0.0,0.0,0.0,0.0,0.0,0.0,0.0,0.0,0.0,0.0,0.0,0.0,0.0,0.0,0.0,0.0,0.0,0.0,0.0,0.0,0.0,0.0,0.0,0.0,0.0,0.0,0.0,0.0,0.0,0.0,0.0,0.0,0.0,0.0,0.0,0.0,0.0,0.0,0.0,0.0,0.0,0.0,0.0,0.0,0.0,0.0,0.0,0.0,0.0,0.0,0.0,0.0,0.0,0.0,0.0,0.0,0.0,0.0,0.0,0.0,0.0,0.0,0.0,0.0,0.0,0.0,0.0,0.0,0.0,0.0,0.0,2.7316,2.7316,2.7316,2.7316,0.0,0.0,0.0,0.0,0.0,0.0,0.0,0.0,0.0,0.0,0.0,0.0,0.0,0.0,0.0,0.0,0.0,0.0,0.0,0.0,0.0,0.0,0.0,0.0,0.0,0.0,0.0,0.0,0.0,0.0,0.0,0.0,0.0,0.0,0.0,0.0,0.0,0.0,0.0,0.0,0.0,0.0,0.0,0.0,0.0,0.0,0.0,0.0,0.0,0.0,0.0,0.0,0.0,0.0,0.0,0.0,0.0,0.0,0.0,0.0,0.0,0.0,0.0,0.0,0.0,0.0,0.0,0.0,0.0,0.0,0.0,0.0,0.0,0.0,0.0,0.0,0.0,0.0,0.0,0.0,0.0,0.0,0.0,0.0,0.0,0.0,0.0,0.0,0.0,0.0,0.0,0.0,0.0,0.0,0.0,0.0,0.0,0.0,0.0,0.0,0.0,0.0,0.0,0.0,0.0,0.0,0.0,0.0,0.0,0.0,2.7316,2.7316,2.7316,2.7316,2.7316,2.7316,0.0,0.0,0.0,0.0,0.0,0.0,0.0,0.0,0.0,0.0,0.0,0.0,0.0,0.0,0.0,0.0,0.0,0.0,0.0,0.0,0.0,0.0,0.0,0.0,0.0,0.0,0.0,0.0,0.0,0.0,0.0,0.0,0.0,0.0,0.0,0.0,0.0,0.0,0.0,0.0,0.0,0.0,0.0,0.0,0.0,0.0,0.0,0.0,0.0,0.0,0.0,0.0,0.0,0.0,0.0,0.0,0.0,0.0,0.0,0.0,0.0,0.0,0.0,0.0,0.0,0.0,0.0,0.0,0.0,0.0,0.0,0.0,0.0,0.0,0.0,0.0,0.0,0.0,0.0,0.0,0.0,0.0,0.0,0.0,0.0,0.0,0.0,0.0,0.0,0.0,0.0,0.0,0.0,0.0,0.0,0.0,0.0,0.0,0.0,0.0,0.0,0.0,0.0,0.0,0.0,0.0,0.0,0.0,2.7316,2.7316,2.7316,2.7316,2.7316,2.7316,0.0,0.0,0.0,0.0,0.0,0.0,0.0,0.0,0.0,0.0,0.0,0.0,0.0,0.0,0.0,0.0,0.0,0.0,0.0,0.0,0.0,0.0,0.0,0.0,0.0,0.0,0.0,0.0,0.0,0.0,0.0,0.0,0.0,0.0,0.0,0.0,0.0,0.0,0.0,0.0,0.0,0.0,0.0,0.0,0.0,0.0,0.0,0.0,0.0,0.0,0.0,0.0,0.0,0.0,0.0,0.0,0.0,0.0,0.0,0.0,0.0,0.0,0.0,0.0,0.0,0.0,0.0,0.0,0.0,0.0,0.0,0.0,0.0,0.0,0.0,0.0,0.0,0.0,0.0,0.0,0.0,0.0,0.0,0.0,0.0,0.0,0.0,0.0,0.0,0.0,0.0,0.0,0.0,0.0,0.0,0.0,0.0,0.0,0.0,0.0,0.0,0.0,0.0,0.0,0.0,0.0,0.0,0.0,0.0,2.7345,2.7407,2.7404,2.7404,2.7376,2.7345,0.0,0.0,0.0,0.0,0.0,0.0,0.0,0.0,0.0,0.0,0.0,0.0,0.0,0.0,0.0,0.0,0.0,0.0,0.0,0.0,0.0,0.0,0.0,0.0,0.0,0.0,0.0,0.0,0.0,0.0,0.0,0.0,0.0,0.0,0.0,0.0,0.0,0.0,0.0,0.0,0.0,0.0,0.0,0.0,0.0,0.0,0.0,0.0,0.0,0.0,0.0,0.0,0.0,0.0,0.0,0.0,0.0,0.0,0.0,0.0,0.0,0.0,0.0,0.0,0.0,0.0,0.0,0.0,0.0,0.0,0.0,0.0,0.0,0.0,0.0,0.0,0.0,0.0,0.0,0.0,0.0,0.0,0.0,0.0,0.0,0.0,0.0,0.0,0.0,0.0,0.0,0.0,0.0,0.0,0.0,0.0,0.0,0.0,0.0,0.0,0.0,0.0,0.0,0.0,0.0,0.0,0.0,0.0,0.0,2.782,0.0,2.8122,2.7879,2.7851,2.7681,0.0,0.0,0.0,0.0,0.0,0.0,0.0,0.0,0.0,0.0,0.0,0.0,0.0,0.0,0.0,0.0,0.0,0.0,0.0,0.0,0.0,0.0,0.0,0.0,0.0,0.0,0.0,0.0,0.0,0.0,0.0,0.0,0.0,0.0,0.0,0.0,0.0,0.0,0.0,0.0,0.0,0.0,0.0,0.0,0.0,0.0,0.0,0.0,0.0,0.0,0.0,0.0,0.0,0.0,0.0,0.0,0.0,0.0,0.0,0.0,0.0,0.0,0.0,0.0,0.0,0.0,0.0,0.0,0.0,0.0,0.0,0.0,0.0,0.0,0.0,0.0,0.0,0.0,0.0,0.0,0.0,0.0,0.0,0.0,0.0,0.0,0.0,0.0,0.0,0.0,0.0,0.0,0.0,0.0,0.0,0.0,0.0,0.0,0.0,0.0,0.0,0.0,0.0,0.0,0.0,0.0,0.0,0.0,2.7855,2.8679,2.9408,2.9408,2.8746,2.8679,2.8296,0.0,0.0,0.0,0.0,0.0,0.0,0.0,0.0,0.0,0.0,0.0,0.0,0.0,0.0,0.0,0.0,0.0,0.0,0.0,0.0,0.0,0.0,0.0,0.0,0.0,0.0,0.0,0.0,0.0,0.0,0.0,0.0,0.0,0.0,0.0,0.0,0.0,0.0,0.0,0.0,0.0,0.0,0.0,0.0,0.0,0.0,0.0,0.0,0.0,0.0,0.0,0.0,0.0,0.0,0.0,0.0,0.0,0.0,0.0,0.0,0.0,0.0,0.0,0.0,0.0,0.0,0.0,0.0,0.0,0.0,0.0,0.0,0.0,0.0,0.0,0.0,0.0,0.0,0.0,0.0,0.0,0.0,0.0,0.0,0.0,0.0,0.0,0.0,0.0,0.0,0.0,0.0,0.0,0.0,0.0,0.0,0.0,0.0,0.0,0.0,0.0,0.0,0.0,0.0,0.0,0.0,0.0,0.0,0.0,2.9542,2.9852,2.9919,2.9674,2.9085,2.8635,0.0,0.0,0.0,0.0,0.0,0.0,0.0,0.0,0.0,0.0,0.0,0.0,0.0,0.0,0.0,0.0,0.0,0.0,0.0,0.0,0.0,0.0,0.0,0.0,0.0,0.0,0.0,0.0,0.0,0.0,0.0,0.0,0.0,0.0,0.0,0.0,0.0,0.0,0.0,0.0,0.0,0.0,0.0,0.0,0.0,0.0,0.0,0.0,0.0,0.0,0.0,0.0,0.0,0.0,0.0,0.0,0.0,0.0,0.0,0.0,0.0,0.0,0.0,0.0,0.0,0.0,0.0,0.0,0.0,0.0,0.0,0.0,0.0,0.0,0.0,0.0,0.0,0.0,0.0,0.0,0.0,0.0,0.0,0.0,0.0,0.0,0.0,0.0,0.0,0.0,0.0,0.0,0.0,0.0,0.0,0.0,0.0,0.0,0.0,0.0,0.0,0.0,0.0,0.0,0.0,0.0,0.0,0.0,0.0,3.1285,3.1319,3.1107,3.0545,3.0267,2.9849,2.9288,0.0,0.0,0.0,0.0,0.0,0.0,0.0,0.0,0.0,0.0,0.0,0.0,0.0,0.0,0.0,0.0,0.0,0.0,0.0,0.0,0.0,0.0,0.0,0.0,0.0,0.0,0.0,0.0,0.0,0.0,0.0,0.0,0.0,0.0,0.0,0.0,0.0,0.0,0.0,0.0,0.0,0.0,0.0,0.0,0.0,0.0,0.0,0.0,0.0,0.0,0.0,0.0,0.0,0.0,0.0,0.0,0.0,0.0,0.0,0.0,0.0,0.0,0.0,0.0,0.0,0.0,0.0,0.0,0.0,0.0,0.0,0.0,0.0,0.0,0.0,0.0,0.0,0.0,0.0,0.0,0.0,0.0,0.0,0.0,0.0,0.0,0.0,0.0,0.0,0.0,0.0,0.0,0.0,0.0,0.0,0.0,0.0,0.0,0.0,0.0,0.0,0.0,0.0,0.0,0.0,0.0,0.0,0.0,3.3564,3.3599,3.2897,3.1493,3.2019,3.1739,0.0,0.0,0.0,0.0,0.0,0.0,0.0,0.0,0.0,0.0,0.0,0.0,0.0,0.0,0.0,0.0,0.0,0.0,0.0,0.0,0.0,0.0,0.0,0.0,0.0,0.0,0.0,0.0,0.0,0.0,0.0,0.0,0.0,0.0,0.0,0.0,0.0,0.0,0.0,0.0,0.0,0.0,0.0,0.0,0.0,0.0,0.0,0.0,0.0,0.0,0.0,0.0,0.0,0.0,0.0,0.0,0.0,0.0,0.0,0.0,0.0,0.0,0.0,0.0,0.0,0.0,0.0,0.0,0.0,0.0,0.0,0.0,0.0,0.0,0.0,0.0,0.0,0.0,0.0,0.0,0.0,0.0,0.0,0.0,0.0,0.0,0.0,0.0,0.0,0.0,0.0,0.0,0.0,0.0,0.0,0.0,0.0,0.0,0.0,0.0,0.0,0.0,0.0,0.0,0.0,0.0,0.0,0.0,0.0,3.4372,3.4934,3.4758,3.381,3.2897,3.223,0.0,0.0,0.0,0.0,0.0,0.0,0.0,0.0,0.0,0.0,0.0,0.0,0.0,0.0,0.0,0.0,0.0,0.0,0.0,0.0,0.0,0.0,0.0,0.0,0.0,0.0,0.0,0.0,0.0,0.0,0.0,0.0,0.0,0.0,0.0,0.0,0.0,0.0,0.0,0.0,0.0,0.0,0.0,0.0,0.0,0.0,0.0,0.0,0.0,0.0,0.0,0.0,0.0,0.0,0.0,0.0,0.0,0.0,0.0,0.0,0.0,0.0,0.0,0.0,0.0,0.0,0.0,0.0,0.0,0.0,0.0,0.0,0.0,0.0,0.0,0.0,0.0,0.0,0.0,0.0,0.0,0.0,0.0,0.0,0.0,0.0,0.0,0.0,0.0,0.0,0.0,0.0,0.0,0.0,0.0,0.0,0.0,0.0,0.0,0.0,0.0,0.0,0.0,0.0,0.0,0.0,0.0,0.0,3.4547,3.5636,3.6408,3.6584,3.6127,3.4653,3.3529,0.0,0.0,0.0,0.0,0.0,0.0,0.0,0.0,0.0,0.0,0.0,0.0,0.0,0.0,0.0,0.0,0.0,0.0,0.0,0.0,0.0,0.0,0.0,0.0,0.0,0.0,0.0,0.0,0.0,0.0,0.0,0.0,0.0,0.0,0.0,0.0,0.0,0.0,0.0,0.0,0.0,0.0,0.0,0.0,0.0,0.0,0.0,0.0,0.0,0.0,0.0,0.0,0.0,0.0,0.0,0.0,0.0,0.0,0.0,0.0,0.0,0.0,0.0,0.0,0.0,0.0,0.0,0.0,0.0,0.0,0.0,0.0,0.0,0.0,0.0,0.0,0.0,0.0,0.0,0.0,0.0,0.0,0.0,0.0,0.0,0.0,0.0,0.0,0.0,0.0,0.0,0.0,0.0,0.0,0.0,0.0,0.0,0.0,0.0,0.0,0.0,0.0,0.0,0.0,0.0,0.0,0.0,0.0,3.5636,3.7115,3.7888,3.8234,3.8204,3.6724,3.5214,0.0,0.0,0.0,0.0,0.0,0.0,0.0,0.0,0.0,0.0,0.0,0.0,0.0,0.0,0.0,0.0,0.0,0.0,0.0,0.0,0.0,0.0,0.0,0.0,0.0,0.0,0.0,0.0,0.0,0.0,0.0,0.0,0.0,0.0,0.0,0.0,0.0,0.0,0.0,0.0,0.0,0.0,0.0,0.0,0.0,0.0,0.0,0.0,0.0,0.0,0.0,0.0,0.0,0.0,0.0,0.0,0.0,0.0,0.0,0.0,0.0,0.0,0.0,0.0,0.0,0.0,0.0,0.0,0.0,0.0,0.0,0.0,0.0,0.0,0.0,0.0,0.0,0.0,0.0,0.0,0.0,0.0,0.0,0.0,0.0,0.0,0.0,0.0,0.0,0.0,0.0,0.0,0.0,0.0,0.0,0.0,0.0,0.0,0.0,0.0,0.0,0.0,0.0,0.0,0.0,0.0,0.0,0.0,3.7013,3.8007,3.8818,3.9206,3.9292,3.7651,3.6022,0.0,0.0,0.0,0.0,0.0,0.0,0.0,0.0,0.0,0.0,0.0,0.0,0.0,0.0,0.0,0.0,0.0,0.0,0.0,0.0,0.0,0.0,0.0,0.0,0.0,0.0,0.0,0.0,0.0,0.0,0.0,0.0,0.0,0.0,0.0,0.0,0.0,0.0,0.0,0.0,0.0,0.0,0.0,0.0,0.0,0.0,0.0,0.0,2.7721,0.0,0.0,0.0,0.0,0.0,0.0,0.0,0.0,0.0,0.0,0.0,0.0,0.0,0.0,0.0,0.0,0.0,0.0,0.0,0.0,0.0,0.0,0.0,0.0,0.0,0.0,0.0,0.0,0.0,0.0,0.0,0.0,0.0,0.0,0.0,0.0,0.0,0.0,0.0,0.0,0.0,0.0,0.0,0.0,0.0,0.0,0.0,0.0,0.0,0.0,0.0,0.0,0.0,0.0,0.0,0.0,0.0,0.0,0.0,3.7611,3.8818,3.9629,4.0058,4.0111,3.8894,3.7337,0.0,0.0,0.0,0.0,0.0,0.0,0.0,0.0,0.0,0.0,0.0,0.0,0.0,0.0,0.0,0.0,0.0,0.0,0.0,0.0,0.0,0.0,0.0,0.0,0.0,0.0,0.0,0.0,0.0,0.0,0.0,0.0,0.0,0.0,0.0,0.0,0.0,0.0,0.0,0.0,0.0,0.0,0.0,0.0,0.0,0.0,0.0,0.0,0.0,0.0,0.0,0.0,0.0,0.0,0.0,0.0,0.0,0.0,0.0,0.0,0.0,0.0,0.0,0.0,0.0,0.0,0.0,0.0,0.0,0.0,0.0,0.0,0.0,0.0,0.0,0.0,0.0,0.0,0.0,0.0,0.0,0.0,0.0,0.0,0.0,0.0,0.0,0.0,0.0,0.0,0.0,0.0,0.0,0.0,0.0,0.0,0.0,0.0,0.0,0.0,0.0,0.0,0.0,0.0,0.0,0.0,0.0,3.6552,3.8144,3.967,4.0447,4.0877,4.1002,4.0116,3.8593,3.6432,0.0,0.0,0.0,0.0,0.0,0.0,0.0,0.0,0.0,0.0,0.0,0.0,0.0,0.0,0.0,0.0,0.0,0.0,0.0,0.0,0.0,0.0,0.0,0.0,0.0,0.0,0.0,0.0,0.0,0.0,0.0,0.0,0.0,0.0,0.0,0.0,0.0,0.0,2.7334,2.8453,0.0,0.0,0.0,0.0,0.0,0.0,0.0,0.0,3.0478,0.0,0.0,0.0,0.0,0.0,0.0,0.0,0.0,0.0,0.0,0.0,0.0,0.0,0.0,0.0,0.0,0.0,0.0,0.0,0.0,0.0,0.0,0.0,0.0,0.0,0.0,0.0,0.0,0.0,0.0,0.0,0.0,0.0,0.0,0.0,0.0,0.0,0.0,0.0,0.0,0.0,0.0,0.0,0.0,0.0,0.0,0.0,0.0,0.0,0.0,0.0,0.0,0.0,0.0,0.0,0.0,3.5862,3.8011,3.9605,4.073,4.1428,4.186,4.2032,4.0642,3.9073,3.7397,0.0,0.0,0.0,0.0,0.0,0.0,0.0,0.0,0.0,0.0,0.0,0.0,0.0,0.0,0.0,0.0,0.0,0.0,0.0,0.0,0.0,0.0,0.0,0.0,0.0,0.0,0.0,0.0,0.0,0.0,0.0,0.0,0.0,0.0,0.0,0.0,0.0,0.0,0.0,2.9708,3.0648,0.0,0.0,0.0,0.0,0.0,0.0,0.0,0.0,3.1295,0.0,0.0,0.0,0.0,0.0,0.0,0.0,0.0,0.0,0.0,0.0,0.0,0.0,0.0,0.0,0.0,0.0,0.0,0.0,0.0,0.0,0.0,0.0,0.0,0.0,0.0,0.0,0.0,0.0,0.0,0.0,0.0,0.0,0.0,0.0,0.0,0.0,0.0,0.0,0.0,0.0,0.0,0.0,0.0,0.0,0.0,0.0,0.0,0.0,0.0,0.0,0.0,0.0,0.0,0.0,3.6146,3.8369,4.0176,4.1517,4.186,4.2285,4.2858,4.0967,3.9182,0.0,0.0,0.0,0.0,0.0,0.0,0.0,0.0,0.0,0.0,0.0,0.0,0.0,0.0,0.0,0.0,0.0,0.0,0.0,0.0,0.0,0.0,0.0,0.0,0.0,0.0,0.0,0.0,0.0,0.0,0.0,0.0,0.0,0.0,0.0,0.0,0.0,0.0,0.0,0.0,3.0595,3.1193,3.1687,0.0,0.0,0.0,0.0,0.0,0.0,3.2607,3.2383,0.0,0.0,0.0,0.0,0.0,0.0,0.0,0.0,0.0,0.0,0.0,0.0,0.0,0.0,0.0,0.0,0.0,0.0,0.0,0.0,0.0,0.0,0.0,0.0,0.0,0.0,0.0,0.0,0.0,0.0,0.0,0.0,0.0,0.0,0.0,0.0,0.0,0.0,0.0,0.0,0.0,0.0,0.0,0.0,0.0,0.0,0.0,0.0,0.0,0.0,0.0,0.0,0.0,0.0,0.0,3.6682,3.8766,4.0642,4.2263,4.2285,4.2647,4.3465,4.1181,3.9254,0.0,0.0,0.0,0.0,0.0,0.0,0.0,0.0,0.0,0.0,0.0,0.0,0.0,0.0,0.0,0.0,0.0,0.0,0.0,0.0,0.0,0.0,0.0,0.0,0.0,0.0,0.0,0.0,0.0,0.0,0.0,0.0,0.0,0.0,0.0,0.0,0.0,0.0,0.0,0.0,0.0,3.1883,3.2741,3.311,0.0,0.0,0.0,0.0,3.404,3.3893,0.0,0.0,0.0,0.0,0.0,0.0,0.0,0.0,0.0,0.0,0.0,0.0,0.0,0.0,0.0,0.0,0.0,0.0,0.0,0.0,0.0,0.0,0.0,0.0,0.0,0.0,0.0,0.0,0.0,0.0,0.0,0.0,0.0,0.0,0.0,0.0,0.0,0.0,0.0,0.0,0.0,0.0,0.0,0.0,0.0,0.0,0.0,0.0,0.0,0.0,0.0,0.0,0.0,0.0,0.0,0.0,3.8544,4.0028,4.1665,4.3244,4.3195,4.3266,4.3465,4.1181,3.9539,0.0,0.0,0.0,0.0,0.0,0.0,0.0,0.0,0.0,0.0,0.0,0.0,0.0,0.0,0.0,0.0,0.0,0.0,0.0,0.0,0.0,0.0,0.0,0.0,0.0,0.0,0.0,0.0,0.0,0.0,0.0,0.0,0.0,0.0,0.0,0.0,0.0,0.0,0.0,0.0,0.0,3.3416,3.4314,3.5084,3.5859,0.0,0.0,3.73,3.7347,3.6412,0.0,0.0,0.0,0.0,0.0,0.0,0.0,0.0,0.0,0.0,0.0,0.0,0.0,0.0,0.0,0.0,0.0,0.0,0.0,0.0,0.0,0.0,0.0,0.0,0.0,0.0,0.0,0.0,0.0,0.0,0.0,0.0,0.0,0.0,0.0,0.0,0.0,0.0,0.0,0.0,0.0,0.0,0.0,0.0,0.0,0.0,0.0,0.0,0.0,0.0,0.0,0.0,0.0,0.0,0.0,3.7108,3.8903,4.0753,4.2495,4.4071,4.4057,4.4057,4.4107,4.1823,4.0039,0.0,0.0,0.0,0.0,0.0,0.0,0.0,0.0,0.0,0.0,0.0,0.0,0.0,0.0,0.0,0.0,0.0,0.0,0.0,0.0,0.0,0.0,0.0,0.0,0.0,0.0,0.0,0.0,0.0,0.0,0.0,0.0,0.0,0.0,0.0,0.0,0.0,0.0,0.0,0.0,0.0,0.0,3.5557,3.6768,0.0,0.0,0.0,3.8458,3.8065,0.0,0.0,0.0,0.0,0.0,0.0,0.0,0.0,0.0,0.0,0.0,0.0,0.0,0.0,0.0,0.0,0.0,0.0,0.0,0.0,0.0,0.0,0.0,0.0,0.0,0.0,0.0,0.0,0.0,0.0,0.0,0.0,0.0,0.0,0.0,0.0,0.0,0.0,0.0,0.0,0.0,0.0,0.0,0.0,0.0,0.0,0.0,0.0,0.0,0.0,0.0,0.0,0.0,0.0,0.0,0.0,0.0,3.9301,4.1554,4.3334,4.4657,4.4856,4.4856,4.4693,4.2619,0.0,0.0,0.0,0.0,0.0,0.0,0.0,0.0,0.0,0.0,0.0,0.0,0.0,0.0,0.0,0.0,0.0,0.0,0.0,0.0,0.0,0.0,0.0,0.0,0.0,0.0,0.0,2.5493,0.0,0.0,0.0,0.0,0.0,0.0,0.0,0.0,0.0,0.0,0.0,0.0,0.0,0.0,3.5738,3.7032,3.8286,3.8975,0.0,0.0,3.9846,3.9316,3.9084,3.8687,0.0,0.0,0.0,0.0,0.0,0.0,0.0,0.0,0.0,0.0,0.0,0.0,0.0,0.0,0.0,0.0,0.0,0.0,0.0,0.0,0.0,0.0,0.0,0.0,0.0,0.0,0.0,0.0,0.0,0.0,0.0,0.0,0.0,0.0,0.0,0.0,0.0,0.0,0.0,0.0,0.0,0.0,0.0,0.0,0.0,0.0,0.0,0.0,0.0,0.0,0.0,0.0,0.0,0.0,0.0,4.0384,4.258,4.4114,4.4941,4.5695,4.5695,4.4941,4.34,4.1746,0.0,0.0,0.0,0.0,0.0,0.0,0.0,0.0,0.0,0.0,0.0,0.0,0.0,0.0,0.0,0.0,0.0,0.0,0.0,0.0,0.0,0.0,0.0,0.0,0.0,0.0,0.0,0.0,0.0,0.0,0.0,0.0,0.0,0.0,0.0,0.0,0.0,0.0,0.0,0.0,0.0,3.7066,3.9142,3.9698,4.0288,0.0,4.2049,4.2294,4.2347,4.1336,4.059,4.0617,0.0,0.0,0.0,0.0,0.0,0.0,0.0,0.0,0.0,0.0,0.0,0.0,0.0,0.0,0.0,0.0,0.0,0.0,0.0,0.0,0.0,0.0,0.0,0.0,0.0,0.0,0.0,0.0,0.0,0.0,0.0,0.0,0.0,0.0,0.0,0.0,0.0,0.0,0.0,0.0,0.0,0.0,0.0,0.0,0.0,0.0,0.0,0.0,0.0,0.0,0.0,0.0,0.0,3.9097,4.1325,4.3604,4.5075,4.5786,4.65,4.6529,4.5773,4.4273,4.2943,0.0,0.0,0.0,0.0,0.0,0.0,0.0,0.0,0.0,0.0,0.0,0.0,0.0,0.0,0.0,0.0,0.0,0.0,0.0,0.0,0.0,0.0,0.0,0.0,0.0,0.0,0.0,0.0,2.8113,2.8527,2.8459,0.0,0.0,0.0,0.0,0.0,0.0,0.0,0.0,0.0,0.0,3.8858,3.98,4.1167,0.0,0.0,4.2746,4.3095,4.2722,4.2329,4.1793,4.1043,4.0388,0.0,0.0,0.0,0.0,0.0,0.0,0.0,0.0,0.0,0.0,0.0,0.0,0.0,0.0,0.0,0.0,0.0,0.0,0.0,0.0,0.0,0.0,0.0,0.0,0.0,0.0,0.0,0.0,0.0,0.0,0.0,0.0,0.0,0.0,0.0,0.0,0.0,0.0,0.0,0.0,0.0,0.0,0.0,0.0,0.0,0.0,0.0,0.0,0.0,0.0,0.0,0.0,3.9987,4.2011,4.4305,4.5751,4.6468,4.7145,4.7139,4.6416,4.5377,4.4258,0.0,0.0,0.0,0.0,0.0,0.0,0.0,0.0,0.0,0.0,0.0,0.0,0.0,0.0,0.0,0.0,0.0,0.0,0.0,0.0,0.0,0.0,0.0,0.0,0.0,0.0,0.0,0.0,2.9145,2.9523,2.9693,0.0,0.0,0.0,0.0,0.0,0.0,0.0,0.0,0.0,0.0,4.0256,4.1001,4.2422,4.3335,4.3031,4.3512,4.379,4.3405,4.3288,4.2911,4.2078,0.0,0.0,0.0,0.0,0.0,0.0,0.0,0.0,0.0,0.0,0.0,0.0,0.0,0.0,0.0,0.0,0.0,0.0,0.0,0.0,0.0,0.0,0.0,0.0,0.0,0.0,0.0,0.0,0.0,0.0,2.7028,0.0,0.0,0.0,0.0,0.0,0.0,0.0,0.0,0.0,0.0,0.0,0.0,0.0,0.0,0.0,0.0,0.0,0.0,0.0,0.0,0.0,0.0,4.0735,4.2323,4.4601,4.6099,4.6861,4.7591,4.7627,4.6858,4.6749,4.5621,4.3287,0.0,0.0,0.0,0.0,0.0,0.0,0.0,0.0,0.0,0.0,0.0,0.0,0.0,0.0,0.0,0.0,0.0,0.0,0.0,0.0,0.0,0.0,0.0,0.0,0.0,0.0,2.9523,2.9523,2.9834,0.0,0.0,0.0,0.0,0.0,0.0,0.0,0.0,0.0,0.0,4.0104,4.0899,4.3031,4.3403,4.3741,4.4418,4.4553,4.4665,4.4906,4.4346,4.3973,0.0,0.0,0.0,0.0,0.0,0.0,0.0,0.0,0.0,0.0,0.0,0.0,0.0,0.0,0.0,0.0,0.0,0.0,0.0,0.0,0.0,0.0,0.0,0.0,0.0,0.0,0.0,3.0373,3.0333,0.0,0.0,0.0,0.0,0.0,0.0,0.0,0.0,0.0,0.0,0.0,3.6668,3.7485,0.0,0.0,0.0,0.0,0.0,0.0,0.0,0.0,0.0,0.0,0.0,0.0,4.144,4.3999,4.5329,4.6838,4.8673,4.8888,4.8849,4.8593,4.8157,4.6581,4.3674,0.0,0.0,0.0,0.0,0.0,0.0,0.0,0.0,0.0,0.0,0.0,0.0,0.0,0.0,0.0,0.0,0.0,0.0,0.0,0.0,0.0,0.0,0.0,0.0,0.0,3.0489,0.0,0.0,0.0,0.0,0.0,0.0,0.0,0.0,0.0,0.0,0.0,3.8717,4.0118,4.1562,4.2901,4.4012,4.4621,4.5196,0.0,0.0,0.0,0.0,0.0,0.0,0.0,0.0,0.0,0.0,0.0,0.0,0.0,0.0,4.1201,3.926,3.867,3.8354,3.807,0.0,0.0,0.0,0.0,0.0,0.0,0.0,0.0,0.0,0.0,0.0,0.0,0.0,0.0,3.2922,0.0,3.2879,0.0,0.0,0.0,0.0,0.0,0.0,0.0,0.0,3.7894,3.8822,3.964,4.042,4.0828,0.0,4.0791,4.0123,0.0,0.0,0.0,0.0,0.0,0.0,0.0,0.0,4.2674,4.4946,4.6316,4.7905,4.9675,4.993,5.0039,5.0039,4.9048,4.7462,4.5201,4.3795,4.2137,0.0,0.0,0.0,0.0,0.0,0.0,0.0,0.0,0.0,0.0,0.0,0.0,0.0,0.0,0.0,0.0,0.0,0.0,0.0,0.0,0.0,0.0,0.0,3.2076,0.0,0.0,0.0,0.0,0.0,0.0,0.0,0.0,0.0,3.7727,3.8939,4.0363,4.1801,4.3197,4.4436,4.5309,0.0,0.0,0.0,0.0,0.0,0.0,0.0,4.7136,4.6969,4.69,4.6694,4.6124,4.5836,4.5636,4.5524,0.0,0.0,4.1977,4.1398,4.1218,4.0912,4.0801,4.0611,4.0295,4.0156,4.004,0.0,0.0,0.0,0.0,0.0,0.0,0.0,0.0,3.4771,3.4786,0.0,3.4742,0.0,0.0,0.0,0.0,0.0,3.6482,0.0,0.0,4.0903,4.2129,4.2872,4.3652,4.4061,4.4061,4.4061,4.3652,4.2723,3.9714,0.0,0.0,0.0,0.0,0.0,0.0,4.44,4.5268,4.7527,4.9158,4.9936,5.0749,5.1155,5.1118,4.9566,4.8345,4.7564,4.5305,4.3601,4.2743,4.0481,0.0,0.0,0.0,0.0,0.0,0.0,0.0,0.0,0.0,0.0,0.0,0.0,0.0,0.0,0.0,0.0,0.0,0.0,0.0,0.0,3.3214,0.0,0.0,0.0,0.0,0.0,0.0,0.0,0.0,0.0,0.0,4.1009,4.0982,4.1915,4.4765,0.0,0.0,0.0,0.0,4.6819,4.6887,4.6887,4.698,4.7155,4.7271,4.7478,4.7683,0.0,0.0,4.7387,4.7271,4.7189,4.7155,4.7048,4.6422,4.4832,4.4255,4.3948,4.3687,4.3595,4.3482,4.3056,4.2802,4.2805,4.1119,0.0,0.0,0.0,0.0,3.8313,3.8328,3.8221,3.8221,3.8197,3.8126,3.815,0.0,0.0,0.0,0.0,0.0,0.0,4.0774,4.1794,4.3466,4.4358,4.4618,4.5398,4.5769,4.5807,4.5769,4.5658,4.5361,4.3912,4.2277,4.0568,0.0,0.0,0.0,0.0,4.4989,4.6888,4.8224,4.9561,5.0935,5.1751,5.2196,5.2159,5.0564,4.9303,4.8558,4.7296,4.57,4.3732,4.2922,0.0,0.0,0.0,0.0,0.0,0.0,0.0,0.0,0.0,0.0,0.0,0.0,0.0,0.0,0.0,0.0,0.0,0.0,0.0,3.3356,3.4283,3.4869,0.0,0.0,0.0,0.0,0.0,0.0,0.0,0.0,0.0,4.3975,4.4062,4.4354,0.0,0.0,4.6942,4.7724,4.7742,4.7853,4.8274,4.8938,0.0,0.0,5.0146,5.0669,5.0823,5.0763,5.0643,5.0339,5.0243,5.0119,4.9994,4.9869,4.9607,4.9072,4.7167,4.5711,4.543,4.5185,4.4937,4.4685,4.4558,4.4399,4.4829,4.2921,4.2162,4.1827,4.1803,4.1779,4.1755,4.1682,4.1657,4.1632,4.1581,4.1555,4.1541,4.1477,4.1451,0.0,0.0,0.0,4.3409,4.3899,4.5504,4.6401,4.6773,4.7553,4.811,4.8444,4.8444,4.811,4.7441,4.6958,4.5658,4.3615,0.0,0.0,4.4506,4.5138,4.6364,4.811,4.9336,5.0525,5.1862,5.2679,5.294,5.2605,5.1305,5.0228,4.941,4.8296,4.6847,4.5064,4.4326,4.2736,0.0,0.0,0.0,0.0,0.0,0.0,0.0,0.0,0.0,0.0,0.0,3.0744,3.1097,0.0,0.0,0.0,3.348,3.4233,3.5399,3.6153,0.0,0.0,0.0,0.0,0.0,0.0,0.0,4.2043,4.3285,4.463,4.6113,4.6596,4.6714,4.666,4.7395,4.8243,4.9095,0.0,4.9324,5.0011,5.0584,5.1014,5.1042,5.1603,5.2035,5.2096,5.2035,5.185,5.1571,5.1507,5.1444,5.1217,5.1153,5.1121,5.1088,4.9413,4.7985,4.7764,4.7472,4.721,4.7078,4.6878,4.6743,4.7995,4.7819,4.6177,4.5306,4.4991,4.4991,4.4966,4.4926,4.481,4.4821,4.4794,4.4711,4.4721,4.4721,4.4627,0.0,4.452,4.5326,4.5711,4.5749,4.7289,4.8407,4.9113,4.9856,5.0636,5.1379,5.1379,5.0599,4.915,4.9113,4.837,4.6921,4.6141,4.5695,4.5584,4.7033,4.8184,4.9002,5.0636,5.1899,5.2679,5.3423,5.3423,5.2642,5.1825,5.1008,5.0116,4.863,4.7441,4.6587,4.5064,4.3466,4.1869,0.0,0.0,0.0,0.0,0.0,0.0,0.0,0.0,0.0,0.0,0.0,0.0,0.0,0.0,0.0,3.6023,0.0,3.7802,3.8476,0.0,0.0,0.0,3.9974,4.0043,4.1388,4.2837,4.4285,0.0,0.0,4.7734,4.8528,4.901,4.9079,4.8931,4.933,5.0772,5.0788,5.1001,5.1555,5.1856,5.1925,5.2062,5.2392,5.2688,5.2626,5.2317,5.2398,5.2081,5.2017,5.1851,5.1623,5.1488,5.1488,5.142,5.1125,5.0794,5.0458,5.0085,4.9813,4.9473,4.9267,4.9094,5.1368,5.1196,5.0789,4.9159,4.6784,4.6784,4.6758,4.6679,4.6679,4.6598,4.6516,4.6488,4.6468,4.6411,4.6382,4.6352,4.6338,4.7703,4.8273,4.8319,4.9817,5.0636,5.0822,5.1008,5.1193,5.1379,5.1379,5.1193,5.0822,5.0822,5.0599,5.0228,5.0042,4.9002,4.7256,4.811,4.9002,4.9819,5.1454,5.2717,5.3497,5.372,5.3423,5.2605,5.1825,5.0971,5.0153,4.915,4.8259,4.7441,4.6438,4.5175,4.3503,4.1311,0.0,0.0,0.0,0.0,0.0,0.0,0.0,0.0,0.0,3.4447,3.519,0.0,3.5811,0.0,3.8559,3.9364,3.9396,4.0574,0.0,0.0,4.1871,4.2561,4.3147,4.4044,4.4975,4.5941,4.7217,4.8355,4.9355,5.0114,5.0769,5.1321,5.0848,5.0789,5.1623,5.1733,5.1706,5.1856,5.2432,5.2975,5.369,5.4849,5.5468,5.5441,5.5407,5.5309,5.4941,5.4975,5.4703,5.3991,5.3788,5.3585,5.3044,5.2741,5.2572,5.2369,5.1258,5.005,4.9912,4.9842,4.9702,5.2547,5.2447,5.2381,5.1319,4.9614,4.9614,4.9625,4.9559,4.957,4.9514,4.939,4.9361,4.934,4.9251,4.9288,4.9189,4.9202,4.9968,5.0281,5.0288,5.1041,5.1601,5.1936,5.1936,5.2122,5.2457,5.2457,5.2271,5.1936,5.1936,5.1751,5.1416,5.1379,5.0711,4.9447,4.9782,5.0413,5.1231,5.2494,5.3348,5.3794,5.3794,5.3608,5.3125,5.2011,5.1193,5.0711,4.9559,4.8519,4.7738,4.7256,4.6104,4.4098,4.276,4.1401,0.0,0.0,0.0,0.0,0.0,0.0,0.0,0.0,0.0,0.0,0.0,3.8164,4.0024,4.0841,4.1415,4.1592,4.2575,4.3207,4.3108,4.406,4.4872,4.5285,4.5975,4.6872,4.7976,4.8838,4.9769,5.0838,5.1356,5.1873,5.2632,5.2666,5.2605,5.2612,5.2888,5.3169,5.345,5.42,5.4883,5.5365,5.6153,5.6739,5.6505,5.6505,5.6371,5.603,5.5995,5.5756,5.5245,5.5143,5.511,5.4703,5.4533,5.4465,5.4261,5.3515,5.2363,5.142,5.1078,5.0905,5.2878,5.2835,5.275,5.2722,5.2722,5.2722,5.2608,5.2419,5.2361,5.2332,5.2303,5.2205,5.2152,5.2096,5.2096,5.2027,5.1931,5.1907,5.1915,5.1775,5.1817,5.2158,5.2791,5.2754,5.3125,5.3794,5.3794,5.3423,5.2754,5.2754,5.2382,5.1751,5.1714,5.1714,5.1714,5.1714,5.2048,5.2754,5.346,5.3794,5.3794,5.3794,5.3757,5.3608,5.2271,5.1454,5.1231,4.9819,4.8667,4.7887,4.7776,4.6735,4.4618,4.4283,4.3478,0.0,4.1662,0.0,0.0,0.0,0.0,0.0,0.0,0.0,0.0,3.9482,4.0762,4.2798,4.3022,4.3325,4.3943,4.4585,4.4956,4.499,4.6012,4.6769,4.6906,4.7562,4.8562,4.9976,5.0218,5.0804,5.2114,5.2425,5.2839,5.3632,5.4322,5.4529,5.408,5.4425,5.5012,5.5701,5.6426,5.6771,5.6874,5.7012,5.7084,5.6916,5.695,5.6747,5.6508,5.6438,5.6301,5.5956,5.6062,5.6132,5.6064,5.5996,5.5996,5.5928,5.5688,5.5004,5.3646,5.2961,5.2715,5.459,5.4506,5.4457,5.4427,5.4427,5.4427,5.3669,5.2419,5.239,5.2361,5.2303,5.2243,5.2152,5.2096,5.2096,5.2027,5.1931,5.2507,5.2772,5.2738,5.3272,5.3609,5.3721,5.3646,5.3645,5.3794,5.3794,5.372,5.3571,5.3571,5.3497,5.3348,5.3348,5.3348,5.3348,0.0,0.0,0.0,5.372,5.3794,5.3794,5.3794,5.3497,5.2865,5.2531,0.0,5.0413,5.0042,4.9485,4.8704,4.8036,0.0,0.0,0.0,0.0,0.0,0.0,0.0,0.0,0.0,0.0,0.0,4.2358,4.176,4.1476,4.2502,4.3356,4.3676,4.4786,4.5544,4.5586,4.6793,4.7579,4.7474,4.7557,4.7865,4.8578,4.9171,4.9942,5.0769,5.1425,5.2114,5.3046,5.3667,5.4356,5.5046,5.5874,5.6288,5.615,5.6219,5.6426,5.6598,5.7253,5.7702,5.7702,5.8185,5.853,5.8531,5.8531,5.8462,5.829,5.822,5.7911,5.7083,5.7053,5.6918,5.6234,5.6099,5.644,5.6269,5.6304,5.5928,5.51,5.4892,5.4749,5.6273,0.0,5.6163,5.6133,0.0,5.6133,5.564,5.4806,5.401,5.3602,5.3573,5.3543,5.349,5.3365,5.3365,5.3301,5.317,5.3549,5.3668,5.3671,5.3977,5.4129,5.3982,5.3944,5.3869,5.3831,5.4203,5.4388,5.4426,5.4834,5.502,5.502,5.502,5.502,5.502,5.5057,5.4611,5.3794,5.3794,5.3794,5.3794,5.3794,5.3608,5.32,0.0,0.0,0.0,0.0,0.0,0.0,0.0,0.0,0.0,0.0,0.0,4.6168,4.5657,4.5443,4.555,4.5236,4.5209,4.5522,4.5658,4.533,4.4289,4.4869,4.5505,4.6098,4.6906,4.7312,4.7296,4.826,4.8853,4.88,4.9298,4.9756,5.0171,5.0748,5.139,5.2114,5.2563,5.3218,5.4356,5.4805,5.5357,5.6115,5.6874,5.7357,5.7357,5.7357,5.746,5.7805,5.815,5.8599,5.8978,5.9288,5.9667,5.9873,6.0011,5.994,5.9833,5.9761,5.9553,5.9033,5.9037,5.9008,5.8629,5.8736,5.8944,5.8944,5.9012,5.8944,5.839,5.6981,5.5683,5.7625,5.7506,5.7446,5.7384,5.7422,5.7422,5.7422,5.7308,0.0,0.0,0.0,5.5337,5.5246,5.5158,5.5158,5.5061,5.4894,5.4859,5.4825,5.4793,5.472,5.4649,5.4503,5.4466,5.4391,5.4315,5.4947,5.5243,5.5243,5.5949,5.632,5.632,5.632,5.632,5.632,5.632,5.5614,5.4314,5.424,5.424,5.424,5.424,5.4166,5.4017,5.3385,5.2902,5.2605,5.1974,5.1231,5.0376,5.0376,4.9782,4.8444,4.837,4.8264,4.8051,4.7905,4.7974,4.8397,4.8098,4.7839,4.7626,4.8136,4.7963,4.6954,4.6918,4.735,4.8467,4.8713,4.8731,4.8731,4.9468,4.9975,4.992,5.092,5.1546,5.1616,5.2062,5.2701,5.3425,5.3701,5.4287,5.5598,5.5943,5.6253,5.6909,5.7633,5.8185,5.8288,5.8357,5.8564,5.9047,5.9323,5.9702,6.0185,6.0358,6.0563,6.0905,6.0971,6.1002,6.0891,6.0818,6.0818,6.0574,6.0857,6.0827,6.0933,6.0976,6.1501,6.1571,6.1675,6.1745,6.1293,5.9115,5.7087,5.7777,5.7558,5.7536,5.7446,5.7422,5.7422,5.7422,5.7384,5.7156,5.7043,5.7043,5.7043,5.698,5.6954,5.6819,5.6719,5.6616,5.6584,5.6549,0.0,5.6404,5.6368,5.6331,5.6295,5.6145,5.6029,5.6141,5.6176,5.6134,5.6246,5.632,5.632,5.632,5.632,5.632,5.632,5.6172,5.5949,5.5949,5.5949,5.5949,5.5949,5.5577,5.4871,5.4723,5.4017,5.2642,5.2531,5.2048,5.1268,5.1231,5.1119,5.0896,5.0859,5.0824,5.0563,5.0333,5.0171,5.007,4.9639,4.9277,4.9043,4.9103,4.9007,4.8826,4.8791,4.8799,4.8796,4.9395,4.9644,4.9662,5.0803,5.159,5.166,5.2228,5.2637,5.2497,5.3073,5.3652,5.4253,5.4943,5.5598,5.646,5.7116,5.7529,5.7805,5.853,5.9116,5.9633,5.9875,5.9909,6.0082,6.0599,6.0978,6.1116,6.1151,6.1254,6.1289,6.1321,6.1424,6.1353,6.1242,6.1063,6.0779,6.1028,6.0994,6.0921,6.1074,6.1427,6.1532,6.1638,6.1569,6.1567,6.0804,6.0318,5.914,5.8957,5.8867,5.8843,5.8748,5.8748,5.8748,5.8748,5.8748,5.8218,5.7422,5.7422,5.7352,5.7295,5.7224,5.7125,5.699,5.6993,5.6958,5.6887,5.6814,5.6742,5.6705,5.6668,5.6594,5.6518,5.685,5.7034,5.7032,5.7401,5.7621,5.7621,5.7583,5.7621,5.7583,5.7621,5.7583,5.7583,5.6729,5.632,5.632,5.632,5.6097,5.5726,5.5726,5.5391,5.4648,5.4611,5.424,5.3385,5.3385,5.3162,5.2754,5.2717,5.2641,5.241,5.2136,5.193,5.1711,5.1266,5.0892,5.0651,5.0602,5.0816,5.1194,5.0346,4.9927,5.015,5.0752,5.1158,5.1051,5.2017,5.2628,5.2664,5.3159,5.3498,5.3579,5.4279,5.4925,5.5242,5.587,5.6529,5.7322,5.7702,5.8288,5.8978,5.9806,6.0392,6.0771,6.1185,6.1289,6.0944,6.1116,6.1461,6.1841,6.1944,6.2117,6.2461,6.2492,6.2419,6.2419,6.2164,6.2015,6.1941,6.2015,6.205,6.1941,6.2198,6.2419,6.253,6.271,6.2747,6.2853,6.2675,6.2182,6.0581,6.0403,6.0532,6.0551,6.0454,6.0264,6.0151,6.0151,5.9961,5.9165,5.8066,5.7952,5.7921,5.7894,5.7862,5.7796,5.7623,5.7589,5.7592,5.7486,5.7486,5.7414,5.7304,5.7304,5.7267,5.7267,5.7674,5.7893,5.7968,5.8442,5.8698,5.8698,5.8698,5.8698,5.8698,5.8698,5.8698,5.8624,5.7472,5.684,5.684,5.684,5.6766,5.658,5.658,5.6469,5.632,5.632,5.5986,5.5354,5.528,5.4981,5.435,5.4313,5.4235,5.3994,5.375,5.3493,5.3135,5.2846,5.2507,5.2208,5.2208,5.2493,5.2921,5.1928,5.1327,5.1811,5.2272,5.2482,5.2533,5.3057,5.3436,5.3471,5.4198,5.4699,5.4745,5.5618,5.6333,5.6507,5.6833,5.7389,5.8045,5.8323,5.8978,6.0185,6.1082,6.153,6.1668,6.222,6.2393,6.2048,6.1806,6.2082,6.2634,6.2737,6.2944,6.3457,6.3308,6.3165,6.3124,6.3007,6.2889,6.2787,6.2821,6.2787,6.2889,6.3007,6.3124,6.3205,6.3319,6.3535,6.3608,6.3462,6.3033,6.1506,6.1393,6.2008,6.2254,6.2046,6.1326,6.0984,6.0909,6.0226,5.9809,5.9658,5.9658,5.9658,5.9658,5.9559,5.9526,5.953,5.9424,5.9319,5.9286,5.9286,5.9176,5.9065,5.9102,5.9028,5.899,5.8912,5.8945,5.8862,5.8777,5.8735,5.8698,5.8698,5.8772,5.8735,5.8735,5.8735,5.8735,5.8549,5.8475,5.8475,5.8475,5.8141,5.7398,5.7398,5.7026,5.6432,5.632,5.6283,5.6172,5.6209,5.6095,5.5899,5.5862,5.5817,5.5564,5.531,5.4947,5.4301,5.4237,5.4,5.3813,5.3706,5.3778,5.392,5.3725,5.3602,5.3638,5.3548,5.3439,5.3364,5.3901,5.4279,5.4384,5.5507,5.6325,5.6309,5.6947,5.759,5.8159,5.8102,5.8349,5.9044,5.9599,6.0289,6.1082,6.1875,6.2358,6.2427,6.291,6.3358,6.3289,6.3324,6.3324,6.3427,6.3496,6.3422,6.3411,6.3336,6.3364,6.3205,6.3051,6.2761,6.3135,6.2897,6.2931,6.2863,6.2881,6.3102,6.3307,6.3315,6.3144,6.311,6.306,6.2847,6.2442,6.2254,6.2497,6.2553,6.2349,6.2008,6.1894,6.1818,6.1515,6.1363,6.1363,6.1401,6.1098,6.0605,6.0572,6.0842,6.1265,6.1231,6.116,6.1051,6.1016,6.0943,6.0868,6.083,6.0754,6.0716,6.0638,6.0519,6.0435,6.0269,6.0184,6.0184,6.0184,6.0184,6.0184,6.0184,6.0184,6.0184,6.0184,6.0184,6.0072,5.9218,5.8549,5.8252,5.8215,5.8103,5.7769,5.7732,5.7691,5.7612,5.765,5.7529,5.7481,5.7396,5.7044,5.6389,5.5514,5.4882,5.4453,5.4302,5.42,5.4028,5.3975,5.4206,5.467,5.4741,5.5009,5.5793,5.506,5.4418,5.4469,5.5235,5.5801,5.5942,5.6726,5.7298,5.7272,5.7849,5.8352,5.8602,5.9238,5.9731,6.0081,6.0912,6.1599,6.2048,6.2634,6.3082,6.3151,6.3427,6.3565,6.36,6.36,6.36,6.36,6.3526,6.3583,6.3817,6.3726,6.364,6.4006,6.3905,6.386,6.3746,6.3679,6.3679,6.3721,6.3734,6.378,6.3679,6.3826,6.3905,6.3905,6.3746,6.3666,6.3322,6.3154,6.3188,6.3171,6.3069,6.2842,6.2728,6.269,6.2501,6.2425,6.2425,6.2425,6.2197,6.178,6.1553,6.1785,6.2284,6.2322,6.2287,6.2142,6.2107,6.2033,6.1996,6.1883,6.1844,6.1806,6.1691,6.1609,6.1446,6.1316,6.123,6.1187,6.1187,6.1187,6.1187,6.1187,6.1187,6.1187,6.1187,6.1187,6.1038,6.0035,5.9404,5.9404,5.9404,5.9404,5.9367,5.9324,5.9171,5.8863,5.882,5.8622,5.8305,5.817,5.774,5.6922,5.5958,5.5288,5.4999,5.4932,5.4935,5.4955,5.4991,5.5348,5.599,5.6169,5.6668,5.756,5.6736,5.6075,5.6035,5.6692,5.7152,5.7258,5.7771,5.8105,5.8176,5.8857,5.9459,5.9529,6.0447,6.1117,6.1224,6.1916,6.2499,6.2879,6.3293,6.36,6.3634,6.3738,6.391,6.391,6.4083,6.4152,6.3945,6.3796,6.3954,6.4282,6.4357,6.4291,6.472,6.4546,6.4416,6.393,6.4315,6.4301,6.4016,6.4068,6.4153,6.4086,6.4169,6.4252,6.3885,6.4019,6.3936,6.4164,6.4038,6.4537,6.4661,6.4737,6.3903,6.3562,6.3524,6.2804,6.2463,6.2538,6.2501,6.2842,6.3372,6.2728,6.2425,6.2429,6.2504,6.2508,6.2438,6.2365,6.2218,6.2034,6.1996,6.1958,6.2031,6.1991,6.1756,6.1475,6.1395,6.1279,6.1261,6.1336,6.1261,6.1336,6.1373,6.1224,6.1373,6.1373,6.1298,6.1261,6.1187,6.1076,6.1076,6.1038,6.0964,6.1001,6.0951,6.053,5.9752,5.9493,5.898,5.818,5.7977,5.7704,5.7289,5.7051,5.6809,5.6546,5.6492,5.6725,5.7259,5.7239,5.7667,5.8131,5.8203,5.8345,5.8667,5.8467,5.8324,5.8281,5.806,5.8023,5.8033,5.8616,5.9011,5.9018,6.0282,6.109,6.1165,6.1663,6.2263,6.2753,6.2787,6.3095,6.3508,6.3712,6.3669,6.3807,6.422,6.46,6.4772,6.5117,6.5497,6.4841,6.4442,6.4556,6.4991,6.5028,6.4776,6.4532,6.4319,6.4187,6.417,6.4338,6.4338,6.4053,6.3935,6.3985,6.3933,6.4,6.4,6.4029,6.3629,6.361,6.4976,6.4775,6.4879,6.4926,6.4888,6.4547,6.4434,6.4396,6.413,6.4017,6.4017,6.4017,6.4168,6.4396,6.413,6.4017,6.4017,6.4017,6.3982,6.3946,6.3873,6.3801,6.3728,6.3616,6.3501,6.3462,6.3383,6.3263,6.3098,6.2971,6.2886,6.2836,6.2792,6.2747,6.2747,6.2747,6.2747,6.2747,6.2747,6.2747,6.2747,6.2747,6.2747,6.2673,6.1707,6.1143,6.1056,6.1011,6.0774,6.0204,6.0073,5.9784,5.9187,5.8951,5.8694,5.8483,5.8358,5.825,5.814,5.8029,5.8045,5.8238,5.831,5.8417,5.8631,5.8738,5.8916,5.9345,5.9487,5.9608,5.9905,5.9515,5.9076,5.9253,6.0088,6.0678,6.0826,6.1501,6.2134,6.2108,6.2536,6.3205,6.3659,6.3728,6.3724,6.3892,6.4235,6.4403,6.4427,6.4945,6.5462,6.5497,6.5704,6.5945,6.6255,6.5362,6.5128,6.5517,6.5731,6.5711,6.5514,6.5413,6.5429,6.5158,6.5039,6.492,6.48,6.4573,6.4453,6.4344,6.4432,6.4211,6.4186,6.3946,6.4045,6.5405,6.5199,6.4993,6.4924,6.4926,6.4926,6.4926,6.4926,6.4926,6.4926,6.4926,6.4926,6.504,6.5267,6.5305,6.5495,6.5609,6.5192,6.4926,6.4926,6.4817,6.4743,6.467,6.4521,6.4594,6.4857,6.5038,6.5069,6.4907,6.4737,6.4688,6.4562,6.4473,6.4427,6.4419,6.4419,6.4419,6.4419,6.4419,6.4419,6.4419,6.4419,6.4419,6.427,6.3342,6.2443,6.1826,6.1698,6.1375,6.0871,6.064,6.0231,5.9651,5.9385,5.9221,5.9111,5.8964,5.8887,5.8887,5.8795,5.8809,5.9059,5.9131,5.9166,5.9452,5.9487,5.9773,6.0165,6.0558,6.095,6.1272,6.1081,6.0772,6.0676,6.1512,6.2104,6.2011,6.2646,6.311,6.333,6.355,6.3938,6.4393,6.4567,6.46,6.4491,6.5005,6.5273,6.5337,6.578,6.6221,6.629,6.6531,6.6842,6.7118,6.6642,6.612,6.6438,6.6132,6.6289,6.6204,6.632,6.6215,6.5955,6.5867,6.578,6.5603,6.5279,6.5099,6.4918,6.472,6.4458,6.4473,6.442,6.4289,6.5413,6.5232,6.5061,6.4996,6.5002,6.504,6.4964,6.5116,6.5078,6.5192,6.5267,6.5078,6.5533,6.5988,6.6101,6.6556,6.6821,6.576,6.5192,6.5154,6.5116,6.5006,6.4934,6.4898,6.5161,6.5722,6.6353,6.6608,6.6411,6.6331,6.6238,6.6135,6.5978,6.5849,6.6017,6.5868,6.5942,6.5905,6.5831,6.5942,6.6091,6.5905,6.5868,6.5942,6.5756,6.4921,6.3456,6.311,6.2549,6.1728,6.1126,6.0341,5.9564,5.9271,5.9143,5.9158,5.8938,5.8809,5.8845,5.8916,5.9309,5.9773,5.9916,6.0237,6.0808,6.0986,6.1058,6.1307,6.1771,6.2271,6.2378,6.2806,6.2816,6.2204,6.2577,6.301,6.3187,6.3654,6.4332,6.4662,6.474,6.4706,6.4812,6.5303,6.5582,6.5578,6.5955,6.6254,6.6248,6.665,6.7023,6.7118,6.7325,6.7635,6.7798,6.7925,6.765,6.7407,6.681,6.644,6.6115,6.6129,6.578,6.5603,6.5392,6.5336,6.5246,6.5008,6.4793,6.461,6.461,6.4518,6.4333,6.4272,6.4272,6.5444,6.5264,6.5095,6.53,6.5684,6.5722,6.6025,6.6594,6.6632,6.6632,6.6632,6.6632,6.6746,6.6935,6.6973,6.7162,6.7352,6.6821,6.6632,6.6594,6.6632,6.6556,6.6483,6.6371,6.6367,6.6469,6.6691,6.68,6.6796,6.6673,6.6506,6.6374,6.6284,6.6147,6.6165,6.6091,6.6091,6.6091,6.6091,6.6091,6.6091,6.6128,6.6128,6.6091,6.5997,6.5568,6.4979,6.4242,6.3553,6.2954,6.2112,6.1334,6.0762,6.0554,6.0438,6.0438,6.0344,6.0344,6.0344,6.0344,6.0451,6.0665,6.0736,6.1129,6.1771,6.1914,6.2128,6.2521,6.2913,6.3056,6.3163,6.377,6.3841,6.3066,6.3645,6.4081,6.4095,6.4433,6.4764,6.5014,6.5336,6.5478,6.5654,6.611,6.6495,6.6491,6.6938,6.7243,6.7121,6.7454,6.786,6.7886,6.8049,6.8083,6.8004,6.7959,6.7799,6.7475,6.698,6.6507,6.6095,6.5746,6.5514,6.5246,6.5066,6.4976,6.4793,6.4702,6.4518,6.4333,6.4333,6.4179,6.4085,6.3991,6.4085,6.5902,6.5721,6.5927,6.6208,6.6556,6.6594,6.6897,6.7352,6.739,6.739,6.7352,6.739,6.7579,6.7807,6.7845,6.8034,6.83,6.83,6.8337,6.8148,6.7579,6.739,6.7429,6.7619,6.75,6.7454,6.7635,6.7785,6.7785,6.7621,6.7492,6.7352,6.7262,6.7123,6.6982,6.6982,6.6982,6.702,6.702,6.6982,6.702,6.702,6.6982,6.6935,6.6802,6.6655,6.6468,6.5492,6.4647,6.3984,6.3128,6.2515,6.2129,6.201,6.195,6.195,6.195,6.195,6.195,6.195,6.195,6.195,6.195,6.2128,6.2592,6.2699,6.2949,6.327,6.3663,6.3841,6.3948,6.4555,6.4769,6.4376,6.4733,6.5098,6.529,6.5521,6.5782,6.61,6.6319,6.6391,6.6602,6.6953,6.7338,6.744,6.7928,6.8269,6.8037,6.8162,6.8215,6.8162,6.8083,6.8083,6.8083,6.7959,6.7799,6.7475,6.698,6.6558,6.6182,6.5603,6.5279,6.5066,6.4852,6.4702,6.461,6.4518,6.4333,6.4146,6.4085,6.3991,6.4024,6.4024,6.4024,6.6705,6.6569,6.733,6.7531,6.7466,6.7466,6.7579,6.7617,6.7655,6.7693,6.7655,6.7769,6.8034,6.8565,6.8679,6.9058,6.9702,6.9664,6.9626,6.9285,6.8451,6.7807,6.7846,6.8338,6.8449,6.8442,6.8926,6.9223,6.911,6.8983,6.9072,6.8697,6.8614,6.867,6.8294,6.8468,6.832,6.8283,6.8357,6.8357,6.8357,6.8394,6.8394,6.8357,6.8173,6.7973,6.7583,6.6589,6.5569,6.4617,6.3869,6.3442,6.3367,6.3377,6.3234,6.3163,6.3341,6.3234,6.3306,6.3127,6.3163,6.3127,6.3127,6.3413,6.3413,6.3484,6.3591,6.3805,6.4305,6.4662,6.4804,6.5268,6.5661,6.5839,6.5839,6.6161,6.6874,6.682,6.6936,6.7469,6.7515,6.7376,6.7341,6.7868,6.8182,6.832,6.8702,6.8833,6.8676,6.8482,6.8284,6.8241,6.8162,6.8083,6.8083,6.7959,6.7799,6.7475,6.698,6.6558,6.6009,6.5514,6.4918,6.4702,6.461,6.4518,6.4426,6.424,6.4146,6.4085,6.3991,6.4024,6.4024,6.4024,6.4056,6.7049,6.7431,6.7525,6.7802,6.8224,6.83,6.8641,6.9171,6.9209,6.9133,6.9209,6.9247,6.9247,6.955,6.9512,6.9702,6.9854,6.9891,6.9891,6.9854,6.9512,6.9209,6.9095,6.9284,6.9319,6.9237,6.9306,6.9374,6.9411,6.9284,6.9109,6.8921,6.8921,6.8782,6.8554,6.8543,6.8543,6.8543,6.8543,6.8543,6.8543,6.8543,6.8543,6.8457,6.8309,6.8107,6.781,6.6935,6.5678,6.418,6.3872,6.3632,6.3546,6.3484,6.352,6.352,6.3448,6.3413,6.3448,6.3448,6.3413,6.3377,6.3555,6.3663,6.4269,6.4305,6.459,6.4983,6.5411,6.5447,6.5518,6.5697,6.6053,6.6589,6.6731,6.7017,6.7624,6.7705,6.7678,6.7891,6.808,6.8188,6.8328,6.8643,6.8989,6.906,6.9126,6.9227,6.8967,6.8705,6.8474,6.8319,6.8241,6.8162,6.8083,6.7925,6.7719,6.7475,6.698,6.6421,6.5955,6.5336,6.4702,6.4272,6.4272,6.4179,6.4179,6.4118,6.4024,6.4218,6.425,6.4347,6.4153,6.4056,6.4121,6.798,6.8274,6.8479,6.8753,6.9133,6.9133,6.9437,6.9816,6.9891,6.9891,6.9891,6.9891,6.9891,6.9891,6.9891,6.9891,6.9891,6.9891,6.9891,6.9891,6.9854,6.9778,6.9739,6.9777,6.9776,6.9697,6.9577,6.9495,6.9453,6.9289,6.9109,6.8967,6.8921,6.8782,6.8506,6.8543,6.8543,6.8543,6.8543,6.8543,6.8543,6.8543,6.8457,6.8408,6.8171,6.8004,6.7488,6.6809,6.5887,6.5082,6.4757,6.4572,6.4412,6.4412,6.4412,6.4412,6.4412,6.4448,6.4412,6.4376,6.4412,6.4412,6.4412,6.4626,6.4983,6.5126,6.5411,6.5661,6.5804,6.5804,6.5875,6.6089,6.6839,6.7766,6.798,6.8159,6.8587,6.8556,6.8667,6.8919,6.9104,6.9212,6.9106,6.9314,6.9452,6.9449,6.9305,6.9302,6.9078,6.8892,6.8628,6.8474,6.8241,6.8162,6.8039,6.7994,6.7762,6.7433,6.703,6.6477,6.5869,6.5264,6.4741,6.4341,6.4182,6.4121,6.4315,6.4509,6.4736,6.4866,6.4801,6.4833,6.4768,6.4477,6.4445,6.9103,6.9046,6.9735,6.9967,6.9854,6.9854,6.9816,6.9891,6.9891,6.9891,6.9891,6.9891,6.9891,6.9891,6.9891,6.9929,7.0043,7.0157,7.0233,7.0308,7.0384,7.0384,7.0422,7.0005,6.9891,6.9853,6.9697,6.9617,6.9536,6.9289,6.9109,6.8967,6.8921,6.8744,6.8554,6.8543,6.8543,6.8543,6.8543,6.8543,6.8543,6.8543,6.8457,6.8309,6.8018,6.765,6.7097,6.6572,6.6197,6.6233,6.5958,6.5661,6.5697,6.5732,6.5697,6.5625,6.5554,6.559,6.5697,6.5554,6.5661,6.559,6.5625,6.5804,6.5697,6.5661,6.5697,6.5804,6.5875,6.6089,6.6375,6.6803,6.7766,6.8837,6.9229,6.9408,6.9444,6.9444,6.9729,7.0371,7.0272,7.0096,6.9956,6.9742,6.9525,6.9487,6.9449,6.9302,6.9118,6.8857,6.8705,6.8551,6.8319,6.8083,6.8073,6.7982,6.7735,6.7523,6.7045,6.6519,6.5981,6.539,6.4821,6.4539,6.4768,6.4963,6.5092,6.5287,6.5481,6.5546,6.5481,6.574,6.5934,6.5384,6.5157,6.9306,6.9811,6.9891,6.9929,6.9891,6.9891,6.9891,6.9891,6.9891,6.9891,6.9891,6.9891,6.9929,6.9929,7.0081,7.0195,7.0801,7.0877,7.118,7.1824,7.1862,7.1862,7.1521,7.0649,6.9967,6.9967,6.9735,6.9652,6.9611,6.9515,6.9147,6.9042,6.9145,6.8782,6.8628,6.8617,6.8543,6.8543,6.8543,6.8543,6.8543,6.8506,6.8408,6.8259,6.781,6.7322,6.6903,6.6488,6.6207,6.6083,6.5967,6.5982,6.5839,6.5804,6.5804,6.5804,6.5804,6.5804,6.5804,6.5804,6.5804,6.5804,6.5875,6.5804,6.5804,6.5875,6.5875,6.5911,6.6339,6.691,6.7481,6.8302,6.8873,6.9372,6.9872,7.0193,7.0229,7.0229,7.03,7.0374,7.0341,7.0202,7.0132,6.9813,6.9598,6.956,6.9487,6.9376,6.9192,6.8932,6.8705,6.8551,6.8241,6.8073,6.8257,6.8254,6.815,6.7839,6.7388,6.7142,6.6504,6.6057,6.5738,6.5674,6.5708,6.5837,6.5805,6.5902,6.6031,6.6129,6.6226,6.6388,6.642,6.6064,6.5869,6.9657,7.0003,6.9891,6.9891,6.9891,6.9891,6.9891,6.9891,6.9891,7.0119,7.0422,7.046,7.0687,7.1066,7.1066,7.1332,7.1597,7.1711,7.1938,7.2279,7.2355,7.2355,7.2317,7.1597,7.1066,7.1028,7.0869,7.0746,7.0667,7.0417,7.0346,7.0042,7.0004,6.9714,6.9186,6.9063,6.8877,6.858,6.8543,6.8543,6.8543,6.8506,6.8358,6.8055,6.7542,6.704,6.6668,6.6726,6.6621,6.6602,6.6725,6.6482,6.5911,6.5804,6.5804,6.5804,6.5804,6.5804,6.5804,6.5804,6.5804,6.5839,6.6125,6.6303,6.6482,6.6624,6.6874,6.6946,6.7302,6.7802,6.8551,6.8944,6.9408,6.9872,7.0229,7.0478,7.0514,7.0514,7.0514,7.0514,7.0445,7.0272,7.0132,6.9885,6.967,6.9633,6.9414,6.9376,6.9302,6.9043,6.8781,6.8551,6.8162,6.8051,6.837,6.8504,6.8513,6.8283,6.7883,6.7841,6.7621,6.7297,6.6939,6.6745,6.6323,6.642,6.642,6.6517,6.6776,6.7132,6.7262,6.7132,6.7003,6.6841,6.6711,7.0003,6.9966,6.9929,6.9891,6.9891,6.9891,6.9891,6.9891,6.9891,7.0308,7.0991,7.1104,7.1408,7.2166,7.2241,7.2393,7.2583,7.281,7.3037,7.3037,7.3075,7.3075,7.2962,7.2886,7.2772,7.2734,7.2078,7.1878,7.1798,7.177,7.1246,7.1247,7.1237,7.0646,7.0041,6.988,6.9546,6.8914,6.884,6.8654,6.8494,6.8494,6.8296,6.8051,6.7558,6.7244,6.7162,6.7285,6.7318,6.7195,6.7766,6.7338,6.6553,6.6161,6.6161,6.6196,6.6339,6.641,6.6446,6.6339,6.6303,6.6161,6.6731,6.7124,6.7302,6.7552,6.7766,6.798,6.8159,6.8623,6.9372,6.9586,6.9872,7.0264,7.0478,7.0514,7.0514,7.0514,7.0514,7.0514,7.0445,7.0341,7.0202,6.9991,6.9849,6.9633,6.9522,6.9376,6.9227,6.9043,6.8781,6.8648,6.8359,6.8665,6.8997,6.862,6.865,6.8718,6.8298,6.8273,6.8373,6.8013,6.7523,6.7003,6.6776,6.6938,6.71,6.7262,6.7586,6.8104,6.8072,6.7748,6.7651,6.7651,6.7489,6.9966,6.9929,6.9891,6.9891,6.9891,6.9891,6.9891,6.9891,6.9891,7.0346,7.1029,7.1104,7.1559,7.2241,7.2393,7.2772,7.3416,7.3909,7.4288,7.4288,7.4288,7.425,7.4212,7.4174,7.4288,7.402,7.3099,7.2256,7.2138,7.177,7.1845,7.1434,7.1461,7.1168,7.0859,7.066,7.0289,6.9632,6.9472,6.9286,6.8828,6.8568,6.8535,6.8458,6.8022,6.7897,6.813,6.8191,6.8141,6.7945,6.8052,6.798,6.7802,6.7731,6.7659,6.7517,6.7481,6.741,6.7445,6.7588,6.7659,6.7766,6.7838,6.7909,6.7945,6.8088,6.8373,6.8444,6.8837,6.9408,7.0193,7.0193,7.03,7.0478,7.0514,7.0514,7.0514,7.0514,7.0514,7.0514,7.0514,7.0445,7.0202,6.9991,6.9777,6.9633,6.9414,6.9302,6.9153,6.8892,6.8551,6.8517,6.8544,6.9149,6.9727,6.9132,6.8832,6.9041,6.8827,6.8405,6.8403,6.8336,6.791,6.7489,6.7489,6.7715,6.7877,6.791,6.7974,6.8169,6.8201,6.8201,6.8072,6.791,6.7974,6.9891,6.9891,6.9891,6.9891,6.9891,6.9891,6.9891,6.9891,6.9891,7.0346,7.0915,7.1142,7.1824,7.2734,7.3037,7.3492,7.425,7.4667,7.4895,7.4895,7.4895,7.4895,7.4895,7.4895,7.4895,7.4585,7.3817,7.3237,7.3269,7.3124,7.2745,7.2667,7.2619,7.2249,7.1714,7.1552,7.1069,7.0562,7.0289,7.0127,6.9619,6.9377,6.921,6.9003,6.8681,6.8471,6.8478,6.8857,6.8796,6.8801,6.9122,6.9301,6.9301,6.9229,6.8944,6.8337,6.8159,6.8123,6.8088,6.8088,6.8052,6.8123,6.8444,6.8694,6.8873,6.9087,6.9229,6.9408,6.9551,7.0086,7.0443,7.0514,7.0514,7.0514,7.0514,7.0514,7.0514,7.0514,7.0514,7.0514,7.0341,7.0272,7.0202,6.9991,6.9742,6.9525,6.934,6.9192,6.9078,6.874,6.8353,6.851,6.8583,6.903,6.9581,6.931,6.8851,6.8958,6.8994,6.86,6.8401,6.8301,6.8201,6.8007,6.8169,6.8201,6.8169,6.8072,6.8136,6.8201,6.8201,6.8201,6.8201,6.8201,6.8201,6.9891,6.9891,6.9891,6.9891,6.9891,6.9891,6.9891,6.9891,6.9891,7.0346,7.1029,7.118,7.1938,7.3075,7.3606,7.4061,7.4857,7.4895,7.4895,7.4895,7.4895,7.4895,7.4895,7.4895,7.4895,7.4816,7.4493,7.4519,7.4249,7.4064,7.3981,7.3639,7.374,7.3404,7.2569,7.2406,7.1886,7.1441,7.118,7.1042,7.0597,7.0238,6.9958,6.9718,6.9332,6.9065,6.9102,6.9399,6.9551,6.9693,7.005,7.0443,7.0478,7.0478,6.9907,6.8837,6.8587,6.8587,6.8623,6.8694,6.8837,6.8873,6.9265,6.9479,6.9658,6.9979,7.0371,7.0514,7.0478,7.0443,7.0478,7.0514,7.0514,7.0514,7.0514,7.0514,7.0514,7.0514,7.0445,7.0376,7.0272,7.0132,7.0062,6.992,6.9598,6.9414,6.9192,6.8892,6.874,6.8431,6.829,6.8412,6.8574,6.8797,6.9118,6.9273,6.8829,6.8765,6.8699,6.8401,6.8301,6.8201,6.8201,6.8201,6.8201,6.8201,6.8201,6.8201,6.8201,6.8201,6.8201,6.8201,6.8201,6.8201,6.8201,6.9891,6.9891,6.9891,6.9891,6.9891,6.9891,6.9891,6.9891,6.9891,7.0346,7.0991,7.1104,7.1559,7.2507,7.3378,7.4099,7.4629,7.4895,7.4895,7.4895,7.4895,7.4895,7.4895,7.4895,7.4895,7.4854,7.4606,7.4519,7.4476,7.4289,7.4056,7.3864,7.3765,7.3553,7.3164,7.3075,7.2815,7.2184,7.2035,7.1495,7.0605,7.0164,7.0128,7.0071,6.9913,6.9872,7.0141,7.019,7.0229,7.03,7.0407,7.0514,7.0514,7.0514,7.0478,7.0264,7.0229,7.0229,7.005,6.9943,6.9943,6.9872,7.0193,7.0336,7.03,7.0336,7.0514,7.0514,7.0514,7.0514,7.0514,7.0514,7.0514,7.0514,7.0514,7.0514,7.0514,7.0514,7.0445,7.0272,7.0132,6.9956,6.992,6.967,6.9452,6.9266,6.9043,6.874,6.8423,6.8256,6.8104,6.8217,6.8438,6.8718,6.8752,6.8927,6.8732,6.86,6.8401,6.8301,6.8201,6.8201,6.8201,6.8201,6.8201,6.8201,6.8201,6.8201,6.8201,6.8201,6.8201,6.8201,6.8201,6.8201,6.8201,6.9891,6.9891,6.9891,6.9891,6.9891,6.9891,6.9891,6.9891,6.9891,7.0081,7.0384,7.0422,7.0877,7.1824,7.2962,7.3795,7.425,7.4667,7.4895,7.4895,7.4895,7.4895,7.4895,7.4895,7.4895,7.4812,7.4649,7.4519,7.4432,7.4289,7.4056,7.3864,7.3765,7.3665,7.3424,7.3372,7.3187,7.2875,7.2696,7.228,7.1654,7.118,7.0871,7.0862,7.0476,7.053,7.0543,7.0582,7.0514,7.0514,7.0514,7.0514,7.0514,7.0514,7.0478,7.0478,7.0478,7.0478,7.0478,7.0514,7.0514,7.0514,7.0514,7.0478,7.0514,7.0514,7.0514,7.0514,7.0514,7.0514,7.0514,7.0514,7.0514,7.0514,7.0514,7.0514,7.0514,7.0514,7.0445,7.0202,7.0026,6.9813,6.9705,6.9414,6.9266,6.9118,6.874,6.8431,6.8166,6.807,6.798,6.7948,6.8227,6.8554,6.8632,6.8666,6.8567,6.8401,6.8401,6.8201,6.8201,6.8201,6.8201,6.8201,6.8201,6.8201,6.8201,6.8201,6.8201,6.8201,6.8201,6.8201,6.8201,6.8201,6.8201,6.9891,6.9891,6.9891,6.9891,6.9891,6.9891,6.9891,6.9891,6.9891,6.9891,6.9891,6.9967,7.0384,7.1142,7.2355,7.3113,7.3682,7.4288,7.4705,7.4819,7.4895,7.4895,7.4895,7.4895,7.4895,7.4895,7.4606,7.4519,7.4432,7.4252,7.4056,7.3815,7.3815,7.3665,7.3476,7.3372,7.3335,7.3231,7.298,7.2613,7.2233,7.1854,7.1458,7.1211,7.0919,7.0718,7.0514,7.0514,7.0514,7.0514,7.0514,7.0514,7.0514,7.0514,7.0514,7.0514,7.0514,7.0514,7.0514,7.0514,7.0514,7.0514,7.0514,7.0514,7.0514,7.0514,7.0514,7.0514,7.0514,7.0514,7.0514,7.0514,7.0514,7.0514,7.0445,7.0445,7.041,7.0341,7.0202,6.9991,6.9742,6.9705,6.9414,6.9118,6.8892,6.8816,6.8474,6.8004,6.783,6.7624,6.7732,6.7729,6.7994,6.8304,6.8503,6.8501,6.8301,6.8201,6.8201,6.8201,6.8201,6.8201,6.8201,6.8201,6.8201,6.8201,6.8201,6.8201,6.8201,6.8201,6.8201,6.8201,6.8201,6.8201,6.8201,6.9891,6.9891,6.9891,6.9891,6.9891,6.9891,6.9891,6.9891,6.9891,6.9891,6.9891,6.9929,7.0308,7.0991,7.1408,7.2241,7.3492,7.3644,7.4136,7.4591,7.4895,7.4857,7.4857,7.4895,7.4895,7.4854,7.4606,7.4519,7.4432,7.4289,7.4056,7.3864,7.3815,7.3665,7.3513,7.341,7.3268,7.3162,7.289,7.2459,7.2108,7.1682,7.134,7.0985,7.0821,7.0754,7.0514,7.0514,7.0514,7.0514,7.0514,7.0514,7.0514,7.0514,7.0514,7.0514,7.0514,7.0514,7.0514,7.0514,7.0514,7.0514,7.0514,7.0514,7.0514,7.0514,7.0514,7.0514,7.0514,7.0514,7.0514,7.0514,7.0445,7.0341,7.0272,7.0202,7.0202,7.0062,6.9991,6.9777,6.9633,6.9487,6.9192,6.8892,6.8586,6.8431,6.7811,6.736,6.7083,6.692,6.7179,6.7394,6.7648,6.8046,6.8437,6.8401,6.8301,6.8201,6.8201,6.8201,6.8201,6.8201,6.8201,6.8201,6.8201,6.8201,6.8201,6.8201,6.8201,6.8201,6.8201,6.8201,6.8201,6.8201,6.8201,6.9399,6.9891,6.9891,6.9891,6.9891,6.9891,6.9891,6.9891,6.9891,6.9891,6.9891,6.9891,7.0043,7.0422,7.0953,7.137,7.209,7.2696,7.3341,7.3871,7.4136,7.444,7.4629,7.4857,7.4854,7.4771,7.4606,7.4476,7.4425,7.4289,7.4056,7.3864,7.3815,7.3665,7.3513,7.3305,7.3108,7.289,7.2667,7.2285,7.1744,7.1494,7.1211,7.0852,7.065,7.0582,7.0478,7.0514,7.0514,7.0514,7.0514,7.0514,7.0514,7.0514,7.0514,7.0514,7.0514,7.0514,7.0514,7.0514,7.0514,7.0514,7.0514,7.0514,7.0445,7.0514,7.0514,7.0514,7.0514,7.0445,7.0341,7.0272,7.0272,7.0132,7.0026,7.0026,6.9956,6.992,6.9777,6.956,6.9487,6.934,6.8932,6.8586,6.8353,6.8039,6.736,6.6762,6.6531,6.6434,6.6799,6.7246,6.7523,6.7818,6.8304,6.8301,6.8201,6.8201,6.8201,6.8201,6.8201,6.8201,6.8201,6.8201,6.8201,6.8201,6.8201,6.8201,6.8201,6.8201,6.8201,6.8201,6.8201,6.8201,6.8201,6.8679,6.9437,6.9512,6.9664,6.9854,6.9891,6.9891,6.9891,6.9891,6.9891,6.9891,6.9891,6.9891,7.0081,7.0422,7.0915,7.1294,7.1787,7.2469,7.2962,7.3341,7.3757,7.425,7.4513,7.4472,7.4577,7.4519,7.4432,7.438,7.4243,7.4056,7.3864,7.3765,7.3665,7.3461,7.3252,7.3,7.2723,7.2401,7.2048,7.1494,7.1211,7.1051,7.0718,7.0582,7.0514,7.0514,7.0514,7.0514,7.0514,7.0514,7.0514,7.0514,7.0514,7.0514,7.0514,7.0445,7.041,7.0445,7.0445,7.0445,7.0376,7.0272,7.0272,7.0341,7.0341,7.0272,7.0272,7.0272,7.0272,7.0132,7.0132,7.0062,6.9956,6.9885,6.9813,6.9777,6.9705,6.956,6.9414,6.9407,6.9386,6.902,6.8579,6.7851,6.7384,6.6576,6.6209,6.6201,6.6278,6.6532,6.6968,6.7525,6.7849,6.8136,6.8169,6.8201,6.8201,6.8201,6.8201,6.8201,6.8201,6.8201,6.8201,6.8201,6.8201,6.8201,6.8201,6.8201,6.8201,6.8201,6.8201,6.8201,6.8201,6.8201,6.7732,6.8489,6.8641,6.9133,6.9778,6.9891,6.9891,6.9891,6.9891,6.9891,6.9891,6.9891,6.9891,6.9929,7.0081,7.0384,7.0839,7.1066,7.1597,7.2241,7.2393,7.2924,7.3376,7.3714,7.401,7.4497,7.4476,7.4425,7.438,7.4243,7.4056,7.3864,7.3715,7.3615,7.341,7.3252,7.2982,7.2496,7.2167,7.1744,7.134,7.0985,7.0785,7.0582,7.0514,7.0514,7.0514,7.0514,7.0514,7.0514,7.0514,7.0514,7.0514,7.0478,7.0445,7.0445,7.0272,7.0202,7.0202,7.0202,7.0202,7.0202,7.0132,7.0062,6.9956,6.9956,6.9956,7.0062,6.9956,6.9991,6.992,6.9885,6.9885,6.9849,6.9705,6.956,6.956,6.9769,6.9656,6.9573,6.9617,6.9654,6.9138,6.854,6.7622,6.6819,6.5913,6.5601,6.5666,6.6045,6.6383,6.6841,6.7362,6.7847,6.8136,6.8169,6.8201,6.8201,6.8201,6.8201,6.8201,6.8201,6.8201,6.8201,6.8201,6.8201,6.8201,6.8201,6.8201,6.8201,6.8201,6.8201,6.8201,6.8201,6.8201,6.6786,6.7618,6.8262,6.8679,6.9058,6.9626,6.9891,6.9891,6.9891,6.9891,6.9891,6.9891,6.9891,6.9891,6.9891,7.0081,7.027,7.0346,7.0763,7.1445,7.1521,7.209,7.2619,7.3144,7.3552,7.3846,7.4092,7.4297,7.4243,7.4197,7.4056,7.3815,7.3564,7.3357,7.3199,7.2945,7.2553,7.2167,7.1805,7.1431,7.1051,7.0852,7.0718,7.0514,7.0514,7.0514,7.0514,7.0514,7.0514,7.0514,7.0514,7.0514,7.0445,7.041,7.0272,7.0272,7.0132,6.9991,6.9991,6.992,6.9885,6.9885,6.9885,6.9813,6.9885,6.9885,6.9885,6.9885,6.9813,6.9849,6.9742,6.967,6.967,6.956,6.9449,6.9376,6.9407,6.9788,6.9952,6.9819,6.9817,6.9467,6.9101,6.8594,6.7792,6.6684,6.5857,6.518,6.5101,6.5734,6.6161,6.6615,6.7231,6.7715,6.8136,6.8169,6.8201,6.8201,6.8201,6.8201,6.8201,6.8201,6.8201,6.8201,6.8201,6.8201,6.8201,6.8201,6.8201,6.8201,6.8201,6.8201,6.8201,6.8201,6.8201,6.584,6.6632,6.7315,6.777,6.8224,6.9361,6.9891,6.9891,6.9891,6.9891,6.9891,6.9891,6.9891,6.9891,6.9891,6.9891,6.9891,6.9929,7.0005,7.0649,7.0687,7.1218,7.1859,7.2422,7.2751,7.3113,7.359,7.3913,7.4197,7.4151,7.3961,7.3628,7.3305,7.3091,7.289,7.2553,7.2226,7.1866,7.1494,7.1175,7.0919,7.0718,7.065,7.0514,7.0514,7.0514,7.0514,7.0514,7.0514,7.0514,7.0514,7.0445,7.0376,7.0272,7.0132,7.0026,6.9885,6.9777,6.9705,6.9633,6.9633,6.9705,6.9705,6.9705,6.9705,6.9705,6.9705,6.9705,6.9777,6.9705,6.956,6.9525,6.9487,6.9376,6.9337,6.9297,6.9567,6.998,6.9975,6.9865,6.9893,6.9508,6.9088,6.8544,6.7988,6.686,6.5861,6.5151,6.4695,6.535,6.6096,6.655,6.7068,6.7715,6.8072,6.8169,6.8201,6.8201,6.8169,6.8104,6.8201,6.8201,6.8201,6.8201,6.8201,6.8201,6.8201,6.8201,6.8201,6.8201,6.8201,6.8201,6.8201,6.8201,6.8201,6.4932,6.561,6.5765,6.6333,6.7354,6.8868,6.9702,6.9854,6.9891,6.9891,6.9891,6.9891,6.9891,6.9891,6.9891,6.9891,6.9891,6.9891,6.9929,6.9967,7.0043,7.0496,7.0796,7.109,7.1761,7.2498,7.3011,7.3304,7.4009,7.4056,7.3777,7.3424,7.3108,7.2779,7.2496,7.2167,7.1866,7.1557,7.1211,7.0949,7.0718,7.0582,7.0582,7.0514,7.0514,7.0514,7.0514,7.0445,7.041,7.041,7.0445,7.0376,7.0272,7.0202,7.0062,6.9885,6.967,6.956,6.9522,6.9449,6.9449,6.9522,6.9449,6.9449,6.9449,6.9522,6.9522,6.9522,6.9522,6.9449,6.9449,6.9376,6.9376,6.9297,6.9293,6.9421,6.9757,6.9975,6.9958,6.9947,7.0123,6.9895,6.9417,6.8855,6.8041,6.6903,6.5868,6.5348,6.4961,6.522,6.5902,6.642,6.7003,6.7683,6.791,6.7715,6.7845,6.7748,6.791,6.791,6.8039,6.8201,6.8201,6.8201,6.8201,6.8201,6.8201,6.8201,6.8201,6.8201,6.8201,6.8201,6.8201,6.8201,6.8201,6.4475,6.4778,6.5421,6.5914,6.6293,6.7429,6.8679,6.9778,6.9891,6.9891,6.9891,6.9891,6.9891,6.9891,6.9891,6.9891,6.9891,6.9891,6.9815,6.9777,6.9777,6.9888,7.007,7.0441,7.096,7.1363,7.1839,7.247,7.3212,7.3559,7.3553,7.3178,7.2908,7.2516,7.2144,7.1718,7.1531,7.134,7.1051,7.0785,7.065,7.0514,7.0514,7.0514,7.0514,7.0514,7.0445,7.0341,7.0341,7.0272,7.0132,7.0062,6.9991,6.9849,6.967,6.9595,6.9522,6.9449,6.9376,6.9376,6.9376,6.9376,6.9376,6.9376,6.9376,6.9376,6.9376,6.9376,6.9376,6.9302,6.9227,6.9227,6.9258,6.9287,6.9269,6.9489,6.9887,7.0106,7.002,6.9897,7.0041,6.9669,6.9349,6.8928,6.8014,6.681,6.5966,6.5351,6.5092,6.5287,6.5546,6.6031,6.6517,6.71,6.6906,6.6679,6.7035,6.7294,6.7424,6.7651,6.7942,6.8072,6.8169,6.8201,6.8201,6.8201,6.8201,6.8201,6.8201,6.8201,6.8201,6.8201,6.8201,6.8201,6.8201,6.4284,6.4399,6.489,6.5344,6.58,6.637,6.7505,6.8716,6.9171,6.955,6.9854,6.9891,6.9891,6.9891,6.9891,6.9891,6.9891,6.9891,6.9853,6.9738,6.9699,6.9657,6.9762,6.9943,7.0315,7.0605,7.1012,7.1644,7.2341,7.2854,7.2918,7.2536,7.2484,7.2285,7.1903,7.1531,7.1276,7.1051,7.0852,7.065,7.0582,7.0514,7.0514,7.0514,7.0514,7.0445,7.0341,7.0202,7.0202,7.0132,6.992,6.9849,6.9777,6.9633,6.9487,6.9449,6.9376,6.9376,6.9376,6.9376,6.9376,6.9376,6.9376,6.9376,6.9376,6.9376,6.9302,6.9302,6.9302,6.9227,6.9043,6.9002,6.9136,6.9227,6.9332,6.9497,6.9859,7.0277,7.0148,6.9961,6.965,6.9217,6.8896,6.86,6.7979,6.6777,6.5837,6.5319,6.4995,6.493,6.5092,6.5416,6.5869,6.6323,6.6064,6.5934,6.6323,6.6614,6.6711,6.7003,6.7553,6.7845,6.7813,6.8007,6.8201,6.8201,6.8201,6.8201,6.8201,6.8201,6.8201,6.8201,6.8201,6.8201,6.8201,6.4284,6.4284,6.4284,6.4815,6.5534,6.5689,6.6219,6.705,6.7922,6.8906,6.9588,6.9778,6.974,6.9854,6.9891,6.9891,6.9891,6.9891,6.9777,6.9699,6.962,6.9539,6.9416,6.9449,6.9778,7.0186,7.0517,7.0736,7.147,7.1899,7.2035,7.1689,7.2059,7.1948,7.1428,7.1368,7.1081,7.0785,7.065,7.0514,7.0514,7.0514,7.0514,7.041,7.0445,7.0376,7.0202,7.0132,7.0062,6.9991,6.9849,6.9777,6.9633,6.9487,6.9449,6.9376,6.9376,6.9376,6.9376,6.9376,6.9376,6.9376,6.9376,6.9376,6.9302,6.9302,6.9227,6.9153,6.9153,6.8967,6.8816,6.8864,6.8986,6.9164,6.9323,6.9575,6.9952,7.0128,6.9903,6.9589,6.9151,6.8797,6.8535,6.8304,6.7555,6.6485,6.574,6.5222,6.4833,6.4606,6.4704,6.4833,6.5092,6.5448,6.5448,6.5416,6.5708,6.5934,6.5999,6.6355,6.6906,6.723,6.7456,6.7715,6.7974,6.8136,6.8201,6.8201,6.8201,6.8201,6.8201,6.8201,6.8201,6.8201,6.8201,6.4284,6.4284,6.4284,6.4475,6.4665,6.4706,6.5235,6.5988,6.6333,6.7354,6.8641,6.8868,6.9209,6.974,6.9854,6.9891,6.9891,6.9815,6.9699,6.9579,6.9539,6.9416,6.9289,6.9246,6.9391,6.9428,6.961,6.9896,7.0509,7.0895,7.1065,7.0716,7.1154,7.1222,7.0744,7.0815,7.0949,7.065,7.0514,7.0445,7.0445,7.0445,7.0445,7.0341,7.0272,7.0202,6.9991,6.9813,6.9742,6.967,6.956,6.9522,6.9449,6.9376,6.9376,6.9376,6.9376,6.9376,6.9376,6.9376,6.9376,6.9376,6.9376,6.9302,6.9227,6.9227,6.9153,6.9002,6.8892,6.8628,6.8501,6.868,6.8888,6.9111,6.9322,6.9659,7.0073,6.9846,6.9595,6.9154,6.8797,6.8468,6.8304,6.7782,6.7003,6.629,6.5578,6.4963,6.4509,6.4218,6.4283,6.438,6.4283,6.4477,6.4639,6.4833,6.5092,6.5222,6.5287,6.574,6.6258,6.6711,6.71,6.7424,6.7715,6.7942,6.8104,6.8201,6.8201,6.8201,6.8201,6.8201,6.8201,6.8201,6.8201,6.4284,6.4284,6.4284,6.4284,6.4284,6.4364,6.4627,6.5043,6.512,6.5914,6.7314,6.8072,6.8792,6.9437,6.9702,6.9815,6.9815,6.9738,6.962,6.9536,6.9453,6.9332,6.9246,6.9203,6.9241,6.9203,6.9153,6.9357,6.9659,6.9967,7.0095,6.9998,7.0344,7.0605,7.0256,7.0613,7.0817,7.0514,7.041,7.0341,7.0341,7.0341,7.0341,7.0202,7.0132,6.9991,6.9813,6.967,6.9598,6.956,6.9449,6.9449,6.9376,6.9376,6.9376,6.9376,6.9376,6.9376,6.9376,6.9376,6.9376,6.9376,6.9376,6.9302,6.9078,6.9002,6.8663,6.8586,6.8509,6.8319,6.7971,6.807,6.8504,6.8777,6.9228,6.9671,6.972,6.9561,6.9283,6.883,6.86,6.8401,6.8039,6.7618,6.6971,6.6258,6.5513,6.4801,6.4315,6.4024,6.4024,6.4024,6.4024,6.4024,6.425,6.4315,6.438,6.4477,6.4639,6.5027,6.5546,6.6226,6.6744,6.7132,6.7456,6.778,6.7942,6.8136,6.8201,6.8201,6.8201,6.8201,6.8201,6.8201,6.8201,6.4284,6.4284,6.4284,6.4284,6.4284,6.4284,6.4322,6.4322,6.4322,6.4778,6.5722,6.7352,6.811,6.8792,6.9247,6.9511,6.9661,6.962,6.9539,6.9416,6.9374,6.9289,6.9203,6.9203,6.9203,6.9116,6.9072,6.8975,6.9024,6.9199,6.9289,6.9265,6.9791,7.0375,7.0329,7.0613,7.0817,7.0478,7.0272,7.0202,7.0202,7.0132,7.0132,7.0062,6.9991,6.9777,6.9633,6.956,6.9487,6.9414,6.9376,6.9376,6.9376,6.9376,6.9376,6.9376,6.9376,6.9376,6.9376,6.9376,6.9376,6.9376,6.9376,6.9227,6.9002,6.8663,6.8319,6.8004,6.7925,6.7834,6.755,6.7709,6.8248,6.8573,6.9042,6.9436,6.9401,6.9252,6.8896,6.86,6.8401,6.8169,6.7813,6.7424,6.6776,6.6064,6.5416,6.4736,6.4218,6.4088,6.4024,6.4024,6.4024,6.4024,6.4024,6.4056,6.4088,6.4121,6.4347,6.4509,6.4801,6.5513,6.6161,6.6809,6.7165,6.7586,6.7942,6.8169,6.8201,6.8201,6.8201,6.8201,6.8201,6.8201,6.8201,6.4284,6.4284,6.4284,6.4284,6.4284,6.4284,6.4284,6.4284,6.4284,6.4437,6.4853,6.5722,6.6935,6.8489,6.8602,6.9018,6.9659,6.9539,6.9457,6.9374,6.9289,6.9246,6.9203,6.9203,6.9203,6.9116,6.902,6.8884,6.8697,6.8544,6.8541,6.8825,6.9253,6.9745,7.0065,7.0381,7.0682,7.0341,7.0202,7.0132,6.9991,6.9885,6.9813,6.9742,6.967,6.956,6.9487,6.9449,6.9449,6.9376,6.9376,6.9376,6.9376,6.9376,6.9376,6.9376,6.9376,6.9376,6.9376,6.9376,6.9376,6.9302,6.9227,6.8967,6.8663,6.8319,6.7845,6.7277,6.7195,6.7112,6.7083,6.7892,6.8404,6.8526,6.8825,6.9107,6.9187,6.8896,6.86,6.8369,6.8236,6.7877,6.7424,6.6873,6.6096,6.5416,6.4801,6.4218,6.4121,6.4056,6.4024,6.4024,6.4024,6.4024,6.4024,6.4024,6.4056,6.4024,6.4056,6.4218,6.4477,6.4801,6.5448,6.6355,6.7003,6.7456,6.7813,6.8201,6.8201,6.8201,6.8201,6.8201,6.8201,6.8201,6.8201]},{"header":{"parameterUnit":"m.s-1","parameterCategory":1,"la1":31.0,"la2":29.5877,"lo1":-88.7671,"lo2":-86.6584,"dy":0.0162,"dx":0.0185,"nx":115,"ny":88,"refTime":"2024-04-01T06:00:00:Z","depth":0,"parameterNumber":3,"parameterNumberName":"V-component_of_WINDS"},"data":[0.0,0.0,0.0,0.0,0.0,0.0,0.0,0.0,0.0,0.0,0.0,0.0,0.0,0.0,0.0,0.0,0.0,0.0,0.0,0.0,0.0,0.0,0.0,0.0,0.0,0.0,0.0,0.0,0.0,0.0,0.0,0.0,0.0,0.0,0.0,0.0,0.0,0.0,0.0,0.0,0.0,0.0,0.0,0.0,0.0,0.0,0.0,0.0,0.0,0.0,0.0,0.0,0.0,0.0,0.0,0.0,0.0,0.0,0.0,0.0,0.0,0.0,0.0,0.0,0.0,0.0,0.0,0.0,0.0,0.0,0.0,0.0,0.0,0.0,0.0,0.0,0.0,0.0,0.0,0.0,0.0,0.0,0.0,0.0,0.0,0.0,0.0,0.0,0.0,0.0,0.0,0.0,0.0,0.0,0.0,0.0,0.0,0.0,0.0,0.0,0.0,0.0,0.0,0.0,0.0,0.0,0.0,0.0,0.0,0.0,0.0,0.0,0.0,0.0,0.0,0.0,0.0,0.0,0.0,0.0,0.0,0.0,0.0,0.0,0.0,0.0,0.0,0.0,0.0,0.0,0.0,0.0,0.0,0.0,0.0,0.0,0.0,0.0,0.0,0.0,0.0,0.0,0.0,0.0,0.0,0.0,0.0,0.0,0.0,0.0,0.0,0.0,0.0,0.0,0.0,0.0,0.0,0.0,0.0,0.0,0.0,0.0,0.0,0.0,0.0,0.0,0.0,0.0,0.0,0.0,0.0,0.0,0.0,0.0,0.0,0.0,0.0,0.0,0.0,0.0,0.0,0.0,0.0,0.0,0.0,0.0,0.0,0.0,0.0,0.0,0.0,0.0,0.0,0.0,0.0,0.0,0.0,0.0,0.0,0.0,0.0,0.0,0.0,0.0,0.0,0.0,0.0,0.0,0.0,0.0,0.0,0.0,0.0,0.0,0.0,0.0,0.0,0.0,0.0,0.0,0.0,0.0,0.0,0.0,0.0,0.0,0.0,0.0,0.0,0.0,0.0,0.0,0.0,0.0,0.0,0.0,0.0,0.0,0.0,0.0,0.0,0.0,0.0,0.0,0.0,0.0,0.0,0.0,0.0,0.0,0.0,0.0,0.0,0.0,0.0,0.0,0.0,0.0,0.0,0.0,0.0,0.0,0.0,0.0,0.0,0.0,0.0,0.0,0.0,0.0,0.0,0.0,0.0,0.0,0.0,0.0,0.0,0.0,0.0,0.0,0.0,0.0,0.0,0.0,0.0,0.0,0.0,0.0,0.0,0.0,0.0,0.0,0.0,0.0,0.0,0.0,0.0,0.0,0.0,0.0,0.0,0.0,0.0,0.0,0.0,0.0,0.0,0.0,0.0,0.0,0.0,0.0,0.0,0.0,0.0,0.0,0.0,0.0,0.0,0.0,0.0,0.0,0.0,0.0,0.0,0.0,0.0,0.0,0.0,0.0,0.0,0.0,0.0,0.0,0.0,0.0,0.0,0.0,0.0,0.0,0.0,0.0,0.0,0.0,0.0,0.0,0.0,0.0,0.0,0.0,0.0,0.0,0.0,0.0,0.0,0.0,0.0,0.0,0.0,0.0,0.0,0.0,0.0,0.0,0.0,0.0,0.0,0.0,0.0,0.0,0.0,0.0,0.0,0.0,0.0,0.0,0.0,0.0,0.0,0.0,0.0,0.0,0.0,0.0,0.0,0.0,0.0,0.0,0.0,0.0,0.0,0.0,0.0,0.0,0.0,0.0,0.0,0.0,0.0,0.0,0.0,0.0,0.0,0.0,0.0,0.0,0.0,0.0,0.0,0.0,0.0,0.0,0.0,0.0,0.0,0.0,0.0,0.0,0.0,0.0,0.0,0.0,0.0,0.0,0.0,0.0,0.0,0.0,0.0,0.0,0.0,0.0,0.0,0.0,0.0,0.0,0.0,0.0,0.0,0.0,0.0,0.0,0.0,0.0,0.0,0.0,0.0,0.0,0.0,0.0,0.0,0.0,0.0,0.0,0.0,0.0,0.0,0.0,0.0,0.0,0.0,0.0,0.0,0.0,0.0,0.0,0.0,0.0,0.0,0.0,0.0,0.0,0.0,0.0,0.0,0.0,0.0,0.0,0.0,0.0,0.0,0.0,0.0,0.0,0.0,0.0,0.0,0.0,0.0,0.0,0.0,0.0,0.0,0.0,0.0,0.0,0.0,0.0,0.0,0.0,0.0,0.0,0.0,0.0,0.0,0.0,0.0,0.0,0.0,0.0,0.0,0.0,0.0,0.0,0.0,0.0,0.0,0.0,0.0,0.0,0.0,0.0,0.0,0.0,0.0,0.0,0.0,0.0,0.0,0.0,0.0,0.0,0.0,0.0,0.0,0.0,0.0,0.0,0.0,0.0,0.0,0.0,0.0,0.0,0.0,0.0,0.0,0.0,0.0,0.0,0.0,0.0,0.0,0.0,0.0,0.0,0.0,0.0,0.0,0.0,0.0,0.0,0.0,0.0,0.0,0.0,0.0,0.0,0.0,0.0,0.0,0.0,0.0,0.0,0.0,0.0,0.0,0.0,0.0,0.0,0.0,0.0,0.0,0.0,0.0,0.0,0.0,0.0,0.0,0.0,0.0,0.0,0.0,0.0,0.0,0.0,0.0,0.0,0.0,0.0,0.0,0.0,0.0,0.0,0.0,0.0,0.0,0.0,0.0,0.0,0.0,0.0,0.0,0.0,0.0,0.0,0.0,0.0,0.0,0.0,0.0,0.0,0.0,0.0,0.0,0.0,0.0,0.0,0.0,0.0,0.0,0.0,0.0,0.0,0.0,0.0,0.0,0.0,0.0,0.0,0.0,0.0,0.0,0.0,0.0,0.0,0.0,0.0,0.0,0.0,0.0,0.0,0.0,0.0,0.0,0.0,0.0,0.0,0.0,0.0,0.0,0.0,0.0,0.0,0.0,0.0,0.0,0.0,0.0,0.0,0.0,0.0,0.0,0.0,0.0,0.0,0.0,0.0,0.0,0.0,0.0,0.0,0.0,0.0,0.0,0.0,0.0,0.0,0.0,0.0,0.0,0.0,0.0,0.0,0.0,0.0,0.0,0.0,0.0,0.0,0.0,0.0,0.0,0.0,0.0,0.0,0.0,0.0,0.0,0.0,0.0,0.0,0.0,0.0,0.0,0.0,0.0,0.0,0.0,0.0,0.0,0.0,0.0,0.0,0.0,0.0,0.0,0.0,0.0,0.0,0.0,0.0,0.0,0.0,0.0,0.0,0.0,0.0,0.0,0.0,0.0,0.0,0.0,0.0,0.0,0.0,0.0,0.0,0.0,0.0,0.0,0.0,0.0,0.0,0.0,0.0,0.0,0.0,0.0,0.0,0.0,0.0,0.0,0.0,0.0,0.0,0.0,0.0,0.0,0.0,0.0,0.0,0.0,0.0,0.0,0.0,0.0,0.0,0.0,0.0,0.0,0.0,0.0,0.0,0.0,0.0,0.0,0.0,0.0,0.0,0.0,0.0,0.0,0.0,0.0,0.0,0.0,0.0,0.0,0.0,0.0,0.0,0.0,0.0,0.0,0.0,0.0,0.0,0.0,0.0,0.0,0.0,0.0,0.0,0.0,0.0,0.0,0.0,0.0,0.0,0.0,0.0,0.0,0.0,0.0,0.0,0.0,0.0,0.0,0.0,0.0,0.0,0.0,0.0,0.0,0.0,0.0,0.0,0.0,0.0,0.0,0.0,0.0,0.0,0.0,0.0,0.0,0.0,0.0,0.0,0.0,0.0,0.0,0.0,0.0,0.0,0.0,0.0,0.0,0.0,0.0,0.0,0.0,0.0,0.0,0.0,0.0,0.0,0.0,0.0,0.0,0.0,0.0,0.0,0.0,0.0,0.0,0.0,0.0,0.0,0.0,0.0,0.0,0.0,0.0,0.0,0.0,0.0,0.0,0.0,0.0,0.0,0.0,0.0,0.0,0.0,0.0,0.0,0.0,0.0,0.0,0.0,0.0,0.0,0.0,0.0,0.0,0.0,0.0,0.0,0.0,0.0,0.0,0.0,0.0,0.0,0.0,0.0,0.0,0.0,0.0,0.0,0.0,0.0,0.0,0.0,0.0,0.0,0.0,0.0,0.0,0.0,0.0,0.0,0.0,0.0,0.0,0.0,0.0,0.0,0.0,0.0,0.0,0.0,0.0,0.0,0.0,0.0,0.0,0.0,0.0,0.0,0.0,0.0,0.0,0.0,0.0,0.0,0.0,0.0,0.0,0.0,0.0,0.0,0.0,0.0,-1.4341,0.0,0.0,0.0,0.0,0.0,0.0,0.0,0.0,0.0,0.0,0.0,0.0,0.0,0.0,0.0,0.0,0.0,0.0,0.0,0.0,0.0,0.0,0.0,0.0,0.0,0.0,0.0,0.0,0.0,0.0,0.0,0.0,0.0,0.0,0.0,0.0,0.0,0.0,0.0,0.0,0.0,0.0,0.0,0.0,0.0,0.0,0.0,0.0,0.0,0.0,0.0,0.0,0.0,0.0,0.0,0.0,0.0,0.0,0.0,0.0,0.0,0.0,0.0,0.0,0.0,0.0,0.0,0.0,0.0,0.0,0.0,0.0,0.0,0.0,0.0,0.0,0.0,0.0,0.0,0.0,0.0,0.0,0.0,0.0,0.0,0.0,0.0,0.0,0.0,0.0,0.0,0.0,0.0,0.0,0.0,0.0,0.0,0.0,0.0,0.0,0.0,0.0,0.0,0.0,0.0,0.0,0.0,0.0,0.0,0.0,-1.4524,-1.4524,-1.4524,-1.4524,-1.4524,0.0,0.0,0.0,0.0,0.0,0.0,0.0,0.0,0.0,0.0,0.0,0.0,0.0,0.0,0.0,0.0,0.0,0.0,0.0,0.0,0.0,0.0,0.0,0.0,0.0,0.0,0.0,0.0,0.0,0.0,0.0,0.0,0.0,0.0,0.0,0.0,0.0,0.0,0.0,0.0,0.0,0.0,0.0,0.0,0.0,0.0,0.0,0.0,0.0,0.0,0.0,0.0,0.0,0.0,0.0,0.0,0.0,0.0,0.0,0.0,0.0,0.0,0.0,0.0,0.0,0.0,0.0,0.0,0.0,0.0,0.0,0.0,0.0,0.0,0.0,0.0,0.0,0.0,0.0,0.0,0.0,0.0,0.0,0.0,0.0,0.0,0.0,0.0,0.0,0.0,0.0,0.0,0.0,0.0,0.0,0.0,0.0,0.0,0.0,0.0,0.0,0.0,0.0,0.0,0.0,0.0,0.0,0.0,0.0,0.0,0.0,0.0,-1.4524,-1.4524,-1.4524,0.0,0.0,0.0,0.0,0.0,0.0,0.0,0.0,0.0,0.0,0.0,0.0,0.0,0.0,0.0,0.0,0.0,0.0,0.0,0.0,0.0,0.0,0.0,0.0,0.0,0.0,0.0,0.0,0.0,0.0,0.0,0.0,0.0,0.0,0.0,0.0,0.0,0.0,0.0,0.0,0.0,0.0,0.0,0.0,0.0,0.0,0.0,0.0,0.0,0.0,0.0,0.0,0.0,0.0,0.0,0.0,0.0,0.0,0.0,0.0,0.0,0.0,0.0,0.0,0.0,0.0,0.0,0.0,0.0,0.0,0.0,0.0,0.0,0.0,0.0,0.0,0.0,0.0,0.0,0.0,0.0,0.0,0.0,0.0,0.0,0.0,0.0,0.0,0.0,0.0,0.0,0.0,0.0,0.0,0.0,0.0,0.0,0.0,0.0,0.0,0.0,0.0,0.0,0.0,0.0,0.0,0.0,0.0,0.0,0.0,-1.4524,-1.4524,-1.4524,0.0,-1.4524,0.0,0.0,0.0,0.0,0.0,0.0,0.0,0.0,0.0,0.0,0.0,0.0,0.0,0.0,0.0,0.0,0.0,0.0,0.0,0.0,0.0,0.0,0.0,0.0,0.0,0.0,0.0,0.0,0.0,0.0,0.0,0.0,0.0,0.0,0.0,0.0,0.0,0.0,0.0,0.0,0.0,0.0,0.0,0.0,0.0,0.0,0.0,0.0,0.0,0.0,0.0,0.0,0.0,0.0,0.0,0.0,0.0,0.0,0.0,0.0,0.0,0.0,0.0,0.0,0.0,0.0,0.0,0.0,0.0,0.0,0.0,0.0,0.0,0.0,0.0,0.0,0.0,0.0,0.0,0.0,0.0,0.0,0.0,0.0,0.0,0.0,0.0,0.0,0.0,0.0,0.0,0.0,0.0,0.0,0.0,0.0,0.0,0.0,0.0,0.0,0.0,0.0,0.0,0.0,0.0,0.0,0.0,0.0,0.0,0.0,-1.4524,-1.4524,-1.4524,-1.4524,0.0,0.0,0.0,0.0,0.0,0.0,0.0,0.0,0.0,0.0,0.0,0.0,0.0,0.0,0.0,0.0,0.0,0.0,0.0,0.0,0.0,0.0,0.0,0.0,0.0,0.0,0.0,0.0,0.0,0.0,0.0,0.0,0.0,0.0,0.0,0.0,0.0,0.0,0.0,0.0,0.0,0.0,0.0,0.0,0.0,0.0,0.0,0.0,0.0,0.0,0.0,0.0,0.0,0.0,0.0,0.0,0.0,0.0,0.0,0.0,0.0,0.0,0.0,0.0,0.0,0.0,0.0,0.0,0.0,0.0,0.0,0.0,0.0,0.0,0.0,0.0,0.0,0.0,0.0,0.0,0.0,0.0,0.0,0.0,0.0,0.0,0.0,0.0,0.0,0.0,0.0,0.0,0.0,0.0,0.0,0.0,0.0,0.0,0.0,0.0,0.0,0.0,0.0,0.0,0.0,0.0,0.0,0.0,0.0,0.0,-1.4524,-1.4524,-1.4524,-1.4524,-1.4524,-1.4524,0.0,0.0,0.0,0.0,0.0,0.0,0.0,0.0,0.0,0.0,0.0,0.0,0.0,0.0,0.0,0.0,0.0,0.0,0.0,0.0,0.0,0.0,0.0,0.0,0.0,0.0,0.0,0.0,0.0,0.0,0.0,0.0,0.0,0.0,0.0,0.0,0.0,0.0,0.0,0.0,0.0,0.0,0.0,0.0,0.0,0.0,0.0,0.0,0.0,0.0,0.0,0.0,0.0,0.0,0.0,0.0,0.0,0.0,0.0,0.0,0.0,0.0,0.0,0.0,0.0,0.0,0.0,0.0,0.0,0.0,0.0,0.0,0.0,0.0,0.0,0.0,0.0,0.0,0.0,0.0,0.0,0.0,0.0,0.0,0.0,0.0,0.0,0.0,0.0,0.0,0.0,0.0,0.0,0.0,0.0,0.0,0.0,0.0,0.0,0.0,0.0,0.0,0.0,0.0,0.0,0.0,0.0,0.0,-1.4524,-1.4524,-1.4524,-1.4524,-1.4524,-1.4524,0.0,0.0,0.0,0.0,0.0,0.0,0.0,0.0,0.0,0.0,0.0,0.0,0.0,0.0,0.0,0.0,0.0,0.0,0.0,0.0,0.0,0.0,0.0,0.0,0.0,0.0,0.0,0.0,0.0,0.0,0.0,0.0,0.0,0.0,0.0,0.0,0.0,0.0,0.0,0.0,0.0,0.0,0.0,0.0,0.0,0.0,0.0,0.0,0.0,0.0,0.0,0.0,0.0,0.0,0.0,0.0,0.0,0.0,0.0,0.0,0.0,0.0,0.0,0.0,0.0,0.0,0.0,0.0,0.0,0.0,0.0,0.0,0.0,0.0,0.0,0.0,0.0,0.0,0.0,0.0,0.0,0.0,0.0,0.0,0.0,0.0,0.0,0.0,0.0,0.0,0.0,0.0,0.0,0.0,0.0,0.0,0.0,0.0,0.0,0.0,0.0,0.0,0.0,0.0,0.0,0.0,0.0,0.0,0.0,-1.4387,-1.4267,-1.4189,-1.4189,-1.4327,-1.4387,0.0,0.0,0.0,0.0,0.0,0.0,0.0,0.0,0.0,0.0,0.0,0.0,0.0,0.0,0.0,0.0,0.0,0.0,0.0,0.0,0.0,0.0,0.0,0.0,0.0,0.0,0.0,0.0,0.0,0.0,0.0,0.0,0.0,0.0,0.0,0.0,0.0,0.0,0.0,0.0,0.0,0.0,0.0,0.0,0.0,0.0,0.0,0.0,0.0,0.0,0.0,0.0,0.0,0.0,0.0,0.0,0.0,0.0,0.0,0.0,0.0,0.0,0.0,0.0,0.0,0.0,0.0,0.0,0.0,0.0,0.0,0.0,0.0,0.0,0.0,0.0,0.0,0.0,0.0,0.0,0.0,0.0,0.0,0.0,0.0,0.0,0.0,0.0,0.0,0.0,0.0,0.0,0.0,0.0,0.0,0.0,0.0,0.0,0.0,0.0,0.0,0.0,0.0,0.0,0.0,0.0,0.0,0.0,0.0,-1.4405,0.0,-1.4329,-1.4205,-1.4344,-1.4333,0.0,0.0,0.0,0.0,0.0,0.0,0.0,0.0,0.0,0.0,0.0,0.0,0.0,0.0,0.0,0.0,0.0,0.0,0.0,0.0,0.0,0.0,0.0,0.0,0.0,0.0,0.0,0.0,0.0,0.0,0.0,0.0,0.0,0.0,0.0,0.0,0.0,0.0,0.0,0.0,0.0,0.0,0.0,0.0,0.0,0.0,0.0,0.0,0.0,0.0,0.0,0.0,0.0,0.0,0.0,0.0,0.0,0.0,0.0,0.0,0.0,0.0,0.0,0.0,0.0,0.0,0.0,0.0,0.0,0.0,0.0,0.0,0.0,0.0,0.0,0.0,0.0,0.0,0.0,0.0,0.0,0.0,0.0,0.0,0.0,0.0,0.0,0.0,0.0,0.0,0.0,0.0,0.0,0.0,0.0,0.0,0.0,0.0,0.0,0.0,0.0,0.0,0.0,0.0,0.0,0.0,0.0,0.0,-1.4423,-1.4613,-1.4903,-1.4903,-1.4568,-1.4613,-1.4418,0.0,0.0,0.0,0.0,0.0,0.0,0.0,0.0,0.0,0.0,0.0,0.0,0.0,0.0,0.0,0.0,0.0,0.0,0.0,0.0,0.0,0.0,0.0,0.0,0.0,0.0,0.0,0.0,0.0,0.0,0.0,0.0,0.0,0.0,0.0,0.0,0.0,0.0,0.0,0.0,0.0,0.0,0.0,0.0,0.0,0.0,0.0,0.0,0.0,0.0,0.0,0.0,0.0,0.0,0.0,0.0,0.0,0.0,0.0,0.0,0.0,0.0,0.0,0.0,0.0,0.0,0.0,0.0,0.0,0.0,0.0,0.0,0.0,0.0,0.0,0.0,0.0,0.0,0.0,0.0,0.0,0.0,0.0,0.0,0.0,0.0,0.0,0.0,0.0,0.0,0.0,0.0,0.0,0.0,0.0,0.0,0.0,0.0,0.0,0.0,0.0,0.0,0.0,0.0,0.0,0.0,0.0,0.0,0.0,-1.481,-1.4802,-1.4754,-1.4634,-1.4501,-1.4355,0.0,0.0,0.0,0.0,0.0,0.0,0.0,0.0,0.0,0.0,0.0,0.0,0.0,0.0,0.0,0.0,0.0,0.0,0.0,0.0,0.0,0.0,0.0,0.0,0.0,0.0,0.0,0.0,0.0,0.0,0.0,0.0,0.0,0.0,0.0,0.0,0.0,0.0,0.0,0.0,0.0,0.0,0.0,0.0,0.0,0.0,0.0,0.0,0.0,0.0,0.0,0.0,0.0,0.0,0.0,0.0,0.0,0.0,0.0,0.0,0.0,0.0,0.0,0.0,0.0,0.0,0.0,0.0,0.0,0.0,0.0,0.0,0.0,0.0,0.0,0.0,0.0,0.0,0.0,0.0,0.0,0.0,0.0,0.0,0.0,0.0,0.0,0.0,0.0,0.0,0.0,0.0,0.0,0.0,0.0,0.0,0.0,0.0,0.0,0.0,0.0,0.0,0.0,0.0,0.0,0.0,0.0,0.0,0.0,-1.5428,-1.536,-1.5172,-1.4898,-1.4844,-1.472,-1.4443,0.0,0.0,0.0,0.0,0.0,0.0,0.0,0.0,0.0,0.0,0.0,0.0,0.0,0.0,0.0,0.0,0.0,0.0,0.0,0.0,0.0,0.0,0.0,0.0,0.0,0.0,0.0,0.0,0.0,0.0,0.0,0.0,0.0,0.0,0.0,0.0,0.0,0.0,0.0,0.0,0.0,0.0,0.0,0.0,0.0,0.0,0.0,0.0,0.0,0.0,0.0,0.0,0.0,0.0,0.0,0.0,0.0,0.0,0.0,0.0,0.0,0.0,0.0,0.0,0.0,0.0,0.0,0.0,0.0,0.0,0.0,0.0,0.0,0.0,0.0,0.0,0.0,0.0,0.0,0.0,0.0,0.0,0.0,0.0,0.0,0.0,0.0,0.0,0.0,0.0,0.0,0.0,0.0,0.0,0.0,0.0,0.0,0.0,0.0,0.0,0.0,0.0,0.0,0.0,0.0,0.0,0.0,0.0,-1.6461,-1.6388,-1.6045,-1.536,-1.5617,-1.548,0.0,0.0,0.0,0.0,0.0,0.0,0.0,0.0,0.0,0.0,0.0,0.0,0.0,0.0,0.0,0.0,0.0,0.0,0.0,0.0,0.0,0.0,0.0,0.0,0.0,0.0,0.0,0.0,0.0,0.0,0.0,0.0,0.0,0.0,0.0,0.0,0.0,0.0,0.0,0.0,0.0,0.0,0.0,0.0,0.0,0.0,0.0,0.0,0.0,0.0,0.0,0.0,0.0,0.0,0.0,0.0,0.0,0.0,0.0,0.0,0.0,0.0,0.0,0.0,0.0,0.0,0.0,0.0,0.0,0.0,0.0,0.0,0.0,0.0,0.0,0.0,0.0,0.0,0.0,0.0,0.0,0.0,0.0,0.0,0.0,0.0,0.0,0.0,0.0,0.0,0.0,0.0,0.0,0.0,0.0,0.0,0.0,0.0,0.0,0.0,0.0,0.0,0.0,0.0,0.0,0.0,0.0,0.0,0.0,-1.6764,-1.7038,-1.6953,-1.649,-1.6045,-1.572,0.0,0.0,0.0,0.0,0.0,0.0,0.0,0.0,0.0,0.0,0.0,0.0,0.0,0.0,0.0,0.0,0.0,0.0,0.0,0.0,0.0,0.0,0.0,0.0,0.0,0.0,0.0,0.0,0.0,0.0,0.0,0.0,0.0,0.0,0.0,0.0,0.0,0.0,0.0,0.0,0.0,0.0,0.0,0.0,0.0,0.0,0.0,0.0,0.0,0.0,0.0,0.0,0.0,0.0,0.0,0.0,0.0,0.0,0.0,0.0,0.0,0.0,0.0,0.0,0.0,0.0,0.0,0.0,0.0,0.0,0.0,0.0,0.0,0.0,0.0,0.0,0.0,0.0,0.0,0.0,0.0,0.0,0.0,0.0,0.0,0.0,0.0,0.0,0.0,0.0,0.0,0.0,0.0,0.0,0.0,0.0,0.0,0.0,0.0,0.0,0.0,0.0,0.0,0.0,0.0,0.0,0.0,0.0,-1.685,-1.7381,-1.7757,-1.7843,-1.762,-1.6901,-1.6353,0.0,0.0,0.0,0.0,0.0,0.0,0.0,0.0,0.0,0.0,0.0,0.0,0.0,0.0,0.0,0.0,0.0,0.0,0.0,0.0,0.0,0.0,0.0,0.0,0.0,0.0,0.0,0.0,0.0,0.0,0.0,0.0,0.0,0.0,0.0,0.0,0.0,0.0,0.0,0.0,0.0,0.0,0.0,0.0,0.0,0.0,0.0,0.0,0.0,0.0,0.0,0.0,0.0,0.0,0.0,0.0,0.0,0.0,0.0,0.0,0.0,0.0,0.0,0.0,0.0,0.0,0.0,0.0,0.0,0.0,0.0,0.0,0.0,0.0,0.0,0.0,0.0,0.0,0.0,0.0,0.0,0.0,0.0,0.0,0.0,0.0,0.0,0.0,0.0,0.0,0.0,0.0,0.0,0.0,0.0,0.0,0.0,0.0,0.0,0.0,0.0,0.0,0.0,0.0,0.0,0.0,0.0,0.0,-1.7381,-1.8002,-1.8377,-1.8648,-1.853,-1.7912,-1.7175,0.0,0.0,0.0,0.0,0.0,0.0,0.0,0.0,0.0,0.0,0.0,0.0,0.0,0.0,0.0,0.0,0.0,0.0,0.0,0.0,0.0,0.0,0.0,0.0,0.0,0.0,0.0,0.0,0.0,0.0,0.0,0.0,0.0,0.0,0.0,0.0,0.0,0.0,0.0,0.0,0.0,0.0,0.0,0.0,0.0,0.0,0.0,0.0,0.0,0.0,0.0,0.0,0.0,0.0,0.0,0.0,0.0,0.0,0.0,0.0,0.0,0.0,0.0,0.0,0.0,0.0,0.0,0.0,0.0,0.0,0.0,0.0,0.0,0.0,0.0,0.0,0.0,0.0,0.0,0.0,0.0,0.0,0.0,0.0,0.0,0.0,0.0,0.0,0.0,0.0,0.0,0.0,0.0,0.0,0.0,0.0,0.0,0.0,0.0,0.0,0.0,0.0,0.0,0.0,0.0,0.0,0.0,0.0,-1.7853,-1.8129,-1.8515,-1.87,-1.8427,-1.8059,-1.7569,0.0,0.0,0.0,0.0,0.0,0.0,0.0,0.0,0.0,0.0,0.0,0.0,0.0,0.0,0.0,0.0,0.0,0.0,0.0,0.0,0.0,0.0,0.0,0.0,0.0,0.0,0.0,0.0,0.0,0.0,0.0,0.0,0.0,0.0,0.0,0.0,0.0,0.0,0.0,0.0,0.0,0.0,0.0,0.0,0.0,0.0,0.0,0.0,-1.8698,0.0,0.0,0.0,0.0,0.0,0.0,0.0,0.0,0.0,0.0,0.0,0.0,0.0,0.0,0.0,0.0,0.0,0.0,0.0,0.0,0.0,0.0,0.0,0.0,0.0,0.0,0.0,0.0,0.0,0.0,0.0,0.0,0.0,0.0,0.0,0.0,0.0,0.0,0.0,0.0,0.0,0.0,0.0,0.0,0.0,0.0,0.0,0.0,0.0,0.0,0.0,0.0,0.0,0.0,0.0,0.0,0.0,0.0,0.0,-1.8141,-1.8515,-1.8902,-1.9,-1.8704,-1.8447,-1.7809,0.0,0.0,0.0,0.0,0.0,0.0,0.0,0.0,0.0,0.0,0.0,0.0,0.0,0.0,0.0,0.0,0.0,0.0,0.0,0.0,0.0,0.0,0.0,0.0,0.0,0.0,0.0,0.0,0.0,0.0,0.0,0.0,0.0,0.0,0.0,0.0,0.0,0.0,0.0,0.0,0.0,0.0,0.0,0.0,0.0,0.0,0.0,0.0,0.0,0.0,0.0,0.0,0.0,0.0,0.0,0.0,0.0,0.0,0.0,0.0,0.0,0.0,0.0,0.0,0.0,0.0,0.0,0.0,0.0,0.0,0.0,0.0,0.0,0.0,0.0,0.0,0.0,0.0,0.0,0.0,0.0,0.0,0.0,0.0,0.0,0.0,0.0,0.0,0.0,0.0,0.0,0.0,0.0,0.0,0.0,0.0,0.0,0.0,0.0,0.0,0.0,0.0,0.0,0.0,0.0,0.0,0.0,-1.7729,-1.8296,-1.8816,-1.9184,-1.9279,-1.9011,-1.86,-1.7894,-1.6795,0.0,0.0,0.0,0.0,0.0,0.0,0.0,0.0,0.0,0.0,0.0,0.0,0.0,0.0,0.0,0.0,0.0,0.0,0.0,0.0,0.0,0.0,0.0,0.0,0.0,0.0,0.0,0.0,0.0,0.0,0.0,0.0,0.0,0.0,0.0,0.0,0.0,0.0,-1.7582,-1.8655,0.0,0.0,0.0,0.0,0.0,0.0,0.0,0.0,-1.9698,0.0,0.0,0.0,0.0,0.0,0.0,0.0,0.0,0.0,0.0,0.0,0.0,0.0,0.0,0.0,0.0,0.0,0.0,0.0,0.0,0.0,0.0,0.0,0.0,0.0,0.0,0.0,0.0,0.0,0.0,0.0,0.0,0.0,0.0,0.0,0.0,0.0,0.0,0.0,0.0,0.0,0.0,0.0,0.0,0.0,0.0,0.0,0.0,0.0,0.0,0.0,0.0,0.0,0.0,0.0,0.0,-1.6818,-1.8029,-1.8679,-1.8669,-1.9208,-1.9298,-1.8824,-1.8201,-1.7499,-1.6748,0.0,0.0,0.0,0.0,0.0,0.0,0.0,0.0,0.0,0.0,0.0,0.0,0.0,0.0,0.0,0.0,0.0,0.0,0.0,0.0,0.0,0.0,0.0,0.0,0.0,0.0,0.0,0.0,0.0,0.0,0.0,0.0,0.0,0.0,0.0,0.0,0.0,0.0,0.0,-1.9944,-2.0575,0.0,0.0,0.0,0.0,0.0,0.0,0.0,0.0,-1.965,0.0,0.0,0.0,0.0,0.0,0.0,0.0,0.0,0.0,0.0,0.0,0.0,0.0,0.0,0.0,0.0,0.0,0.0,0.0,0.0,0.0,0.0,0.0,0.0,0.0,0.0,0.0,0.0,0.0,0.0,0.0,0.0,0.0,0.0,0.0,0.0,0.0,0.0,0.0,0.0,0.0,0.0,0.0,0.0,0.0,0.0,0.0,0.0,0.0,0.0,0.0,0.0,0.0,0.0,0.0,-1.6855,-1.8096,-1.8841,-1.892,-1.9298,-1.9494,-1.9082,-1.824,-1.7445,0.0,0.0,0.0,0.0,0.0,0.0,0.0,0.0,0.0,0.0,0.0,0.0,0.0,0.0,0.0,0.0,0.0,0.0,0.0,0.0,0.0,0.0,0.0,0.0,0.0,0.0,0.0,0.0,0.0,0.0,0.0,0.0,0.0,0.0,0.0,0.0,0.0,0.0,0.0,0.0,-2.0443,-2.0744,-2.0775,0.0,0.0,0.0,0.0,0.0,0.0,-1.9981,-1.9748,0.0,0.0,0.0,0.0,0.0,0.0,0.0,0.0,0.0,0.0,0.0,0.0,0.0,0.0,0.0,0.0,0.0,0.0,0.0,0.0,0.0,0.0,0.0,0.0,0.0,0.0,0.0,0.0,0.0,0.0,0.0,0.0,0.0,0.0,0.0,0.0,0.0,0.0,0.0,0.0,0.0,0.0,0.0,0.0,0.0,0.0,0.0,0.0,0.0,0.0,0.0,0.0,0.0,0.0,0.0,-1.6814,-1.8077,-1.8952,-1.9261,-1.9494,-1.9548,-1.9352,-1.8335,-1.7477,0.0,0.0,0.0,0.0,0.0,0.0,0.0,0.0,0.0,0.0,0.0,0.0,0.0,0.0,0.0,0.0,0.0,0.0,0.0,0.0,0.0,0.0,0.0,0.0,0.0,0.0,0.0,0.0,0.0,0.0,0.0,0.0,0.0,0.0,0.0,0.0,0.0,0.0,0.0,0.0,0.0,-2.0904,-2.1161,-2.1093,0.0,0.0,0.0,0.0,-2.0252,-1.9964,0.0,0.0,0.0,0.0,0.0,0.0,0.0,0.0,0.0,0.0,0.0,0.0,0.0,0.0,0.0,0.0,0.0,0.0,0.0,0.0,0.0,0.0,0.0,0.0,0.0,0.0,0.0,0.0,0.0,0.0,0.0,0.0,0.0,0.0,0.0,0.0,0.0,0.0,0.0,0.0,0.0,0.0,0.0,0.0,0.0,0.0,0.0,0.0,0.0,0.0,0.0,0.0,0.0,0.0,0.0,0.0,-1.686,-1.8136,-1.8878,-1.9367,-1.9571,-1.9604,-1.9352,-1.8335,-1.7604,0.0,0.0,0.0,0.0,0.0,0.0,0.0,0.0,0.0,0.0,0.0,0.0,0.0,0.0,0.0,0.0,0.0,0.0,0.0,0.0,0.0,0.0,0.0,0.0,0.0,0.0,0.0,0.0,0.0,0.0,0.0,0.0,0.0,0.0,0.0,0.0,0.0,0.0,0.0,0.0,0.0,-2.17,-2.1966,-2.2137,-2.2298,0.0,0.0,-2.1644,-2.1562,-2.0601,0.0,0.0,0.0,0.0,0.0,0.0,0.0,0.0,0.0,0.0,0.0,0.0,0.0,0.0,0.0,0.0,0.0,0.0,0.0,0.0,0.0,0.0,0.0,0.0,0.0,0.0,0.0,0.0,0.0,0.0,0.0,0.0,0.0,0.0,0.0,0.0,0.0,0.0,0.0,0.0,0.0,0.0,0.0,0.0,0.0,0.0,0.0,0.0,0.0,0.0,0.0,0.0,0.0,0.0,0.0,-1.5751,-1.6916,-1.8144,-1.9031,-1.9622,-1.9846,-1.9846,-1.9638,-1.8621,-1.7826,0.0,0.0,0.0,0.0,0.0,0.0,0.0,0.0,0.0,0.0,0.0,0.0,0.0,0.0,0.0,0.0,0.0,0.0,0.0,0.0,0.0,0.0,0.0,0.0,0.0,0.0,0.0,0.0,0.0,0.0,0.0,0.0,0.0,0.0,0.0,0.0,0.0,0.0,0.0,0.0,0.0,0.0,-2.1896,-2.2311,0.0,0.0,0.0,-2.1981,-2.1646,0.0,0.0,0.0,0.0,0.0,0.0,0.0,0.0,0.0,0.0,0.0,0.0,0.0,0.0,0.0,0.0,0.0,0.0,0.0,0.0,0.0,0.0,0.0,0.0,0.0,0.0,0.0,0.0,0.0,0.0,0.0,0.0,0.0,0.0,0.0,0.0,0.0,0.0,0.0,0.0,0.0,0.0,0.0,0.0,0.0,0.0,0.0,0.0,0.0,0.0,0.0,0.0,0.0,0.0,0.0,0.0,0.0,-1.6783,-1.8068,-1.9067,-1.965,-1.9971,-1.9971,-1.9665,-1.8753,0.0,0.0,0.0,0.0,0.0,0.0,0.0,0.0,0.0,0.0,0.0,0.0,0.0,0.0,0.0,0.0,0.0,0.0,0.0,0.0,0.0,0.0,0.0,0.0,0.0,0.0,0.0,-1.3626,0.0,0.0,0.0,0.0,0.0,0.0,0.0,0.0,0.0,0.0,0.0,0.0,0.0,0.0,-2.19,-2.2251,-2.2665,-2.2958,0.0,0.0,-2.2544,-2.2131,-2.1665,-2.1334,0.0,0.0,0.0,0.0,0.0,0.0,0.0,0.0,0.0,0.0,0.0,0.0,0.0,0.0,0.0,0.0,0.0,0.0,0.0,0.0,0.0,0.0,0.0,0.0,0.0,0.0,0.0,0.0,0.0,0.0,0.0,0.0,0.0,0.0,0.0,0.0,0.0,0.0,0.0,0.0,0.0,0.0,0.0,0.0,0.0,0.0,0.0,0.0,0.0,0.0,0.0,0.0,0.0,0.0,0.0,-1.6419,-1.7855,-1.8839,-1.9192,-1.9514,-1.9514,-1.9192,-1.8422,-1.772,0.0,0.0,0.0,0.0,0.0,0.0,0.0,0.0,0.0,0.0,0.0,0.0,0.0,0.0,0.0,0.0,0.0,0.0,0.0,0.0,0.0,0.0,0.0,0.0,0.0,0.0,0.0,0.0,0.0,0.0,0.0,0.0,0.0,0.0,0.0,0.0,0.0,0.0,0.0,0.0,0.0,-2.2271,-2.3519,-2.3501,-2.3731,0.0,-2.4277,-2.3929,-2.3594,-2.2678,-2.1924,-2.171,0.0,0.0,0.0,0.0,0.0,0.0,0.0,0.0,0.0,0.0,0.0,0.0,0.0,0.0,0.0,0.0,0.0,0.0,0.0,0.0,0.0,0.0,0.0,0.0,0.0,0.0,0.0,0.0,0.0,0.0,0.0,0.0,0.0,0.0,0.0,0.0,0.0,0.0,0.0,0.0,0.0,0.0,0.0,0.0,0.0,0.0,0.0,0.0,0.0,0.0,0.0,0.0,0.0,-1.5106,-1.6487,-1.7728,-1.8671,-1.92,-1.9618,-1.975,-1.943,-1.8565,-1.7897,0.0,0.0,0.0,0.0,0.0,0.0,0.0,0.0,0.0,0.0,0.0,0.0,0.0,0.0,0.0,0.0,0.0,0.0,0.0,0.0,0.0,0.0,0.0,0.0,0.0,0.0,0.0,0.0,-1.5106,-1.5489,-1.5613,0.0,0.0,0.0,0.0,0.0,0.0,0.0,0.0,0.0,0.0,-2.3003,-2.3327,-2.4008,0.0,0.0,-2.4555,-2.4258,-2.3803,-2.3223,-2.2574,-2.1823,-2.1475,0.0,0.0,0.0,0.0,0.0,0.0,0.0,0.0,0.0,0.0,0.0,0.0,0.0,0.0,0.0,0.0,0.0,0.0,0.0,0.0,0.0,0.0,0.0,0.0,0.0,0.0,0.0,0.0,0.0,0.0,0.0,0.0,0.0,0.0,0.0,0.0,0.0,0.0,0.0,0.0,0.0,0.0,0.0,0.0,0.0,0.0,0.0,0.0,0.0,0.0,0.0,0.0,-1.4851,-1.6127,-1.7341,-1.8253,-1.8774,-1.9287,-1.9405,-1.9108,-1.8449,-1.7882,0.0,0.0,0.0,0.0,0.0,0.0,0.0,0.0,0.0,0.0,0.0,0.0,0.0,0.0,0.0,0.0,0.0,0.0,0.0,0.0,0.0,0.0,0.0,0.0,0.0,0.0,0.0,0.0,-1.5578,-1.5947,-1.6206,0.0,0.0,0.0,0.0,0.0,0.0,0.0,0.0,0.0,0.0,-2.3477,-2.3672,-2.4492,-2.5019,-2.4844,-2.4869,-2.4775,-2.4184,-2.3749,-2.3299,-2.2373,0.0,0.0,0.0,0.0,0.0,0.0,0.0,0.0,0.0,0.0,0.0,0.0,0.0,0.0,0.0,0.0,0.0,0.0,0.0,0.0,0.0,0.0,0.0,0.0,0.0,0.0,0.0,0.0,0.0,0.0,-0.8717,0.0,0.0,0.0,0.0,0.0,0.0,0.0,0.0,0.0,0.0,0.0,0.0,0.0,0.0,0.0,0.0,0.0,0.0,0.0,0.0,0.0,0.0,-1.4625,-1.5404,-1.6565,-1.7465,-1.7988,-1.8268,-1.8282,-1.8105,-1.8062,-1.7512,-1.6508,0.0,0.0,0.0,0.0,0.0,0.0,0.0,0.0,0.0,0.0,0.0,0.0,0.0,0.0,0.0,0.0,0.0,0.0,0.0,0.0,0.0,0.0,0.0,0.0,0.0,0.0,-1.5698,-1.5698,-1.5863,0.0,0.0,0.0,0.0,0.0,0.0,0.0,0.0,0.0,0.0,-2.3038,-2.3613,-2.4844,-2.5059,-2.5254,-2.5644,-2.5723,-2.5528,-2.502,-2.4581,-2.4125,0.0,0.0,0.0,0.0,0.0,0.0,0.0,0.0,0.0,0.0,0.0,0.0,0.0,0.0,0.0,0.0,0.0,0.0,0.0,0.0,0.0,0.0,0.0,0.0,0.0,0.0,0.0,-0.9141,-0.9274,0.0,0.0,0.0,0.0,0.0,0.0,0.0,0.0,0.0,0.0,0.0,-1.1914,-1.218,0.0,0.0,0.0,0.0,0.0,0.0,0.0,0.0,0.0,0.0,0.0,0.0,-1.4269,-1.5473,-1.6163,-1.6932,-1.7716,-1.8036,-1.8143,-1.8047,-1.7647,-1.6839,-1.5573,0.0,0.0,0.0,0.0,0.0,0.0,0.0,0.0,0.0,0.0,0.0,0.0,0.0,0.0,0.0,0.0,0.0,0.0,0.0,0.0,0.0,0.0,0.0,0.0,0.0,-1.6211,0.0,0.0,0.0,0.0,0.0,0.0,0.0,0.0,0.0,0.0,0.0,-2.1683,-2.2698,-2.3635,-2.452,-2.541,-2.5762,-2.6094,0.0,0.0,0.0,0.0,0.0,0.0,0.0,0.0,0.0,0.0,0.0,0.0,0.0,0.0,-2.4028,-2.2781,-2.2552,-2.2705,-2.3102,0.0,0.0,0.0,0.0,0.0,0.0,0.0,0.0,0.0,0.0,0.0,0.0,0.0,0.0,-0.9752,0.0,-0.9895,0.0,0.0,0.0,0.0,0.0,0.0,0.0,0.0,-1.2312,-1.2614,-1.288,-1.3133,-1.3266,0.0,-1.3254,-1.3037,0.0,0.0,0.0,0.0,0.0,0.0,0.0,0.0,-1.4279,-1.5366,-1.5948,-1.6612,-1.7347,-1.7681,-1.7843,-1.7843,-1.7248,-1.6458,-1.5344,-1.4867,-1.4406,0.0,0.0,0.0,0.0,0.0,0.0,0.0,0.0,0.0,0.0,0.0,0.0,0.0,0.0,0.0,0.0,0.0,0.0,0.0,0.0,0.0,0.0,0.0,-1.7055,0.0,0.0,0.0,0.0,0.0,0.0,0.0,0.0,0.0,-2.0484,-2.1363,-2.2259,-2.329,-2.4315,-2.514,-2.5896,0.0,0.0,0.0,0.0,0.0,0.0,0.0,-2.5994,-2.5237,-2.5201,-2.509,-2.4913,-2.5277,-2.5557,-2.5756,0.0,0.0,-2.448,-2.4386,-2.4766,-2.5194,-2.5372,-2.5748,-2.6168,-2.6453,-2.6628,0.0,0.0,0.0,0.0,0.0,0.0,0.0,0.0,-0.997,-1.0057,0.0,-1.0209,0.0,0.0,0.0,0.0,0.0,-1.1854,0.0,0.0,-1.329,-1.3688,-1.393,-1.4183,-1.4316,-1.4316,-1.4316,-1.4183,-1.3882,-1.2904,0.0,0.0,0.0,0.0,0.0,0.0,-1.4534,-1.5146,-1.5902,-1.6567,-1.7072,-1.735,-1.7489,-1.7477,-1.6946,-1.6411,-1.5915,-1.5159,-1.4589,-1.4198,-1.3447,0.0,0.0,0.0,0.0,0.0,0.0,0.0,0.0,0.0,0.0,0.0,0.0,0.0,0.0,0.0,0.0,0.0,0.0,0.0,0.0,-1.766,0.0,0.0,0.0,0.0,0.0,0.0,0.0,0.0,0.0,0.0,-2.1805,-2.202,-2.2758,-2.4305,0.0,0.0,0.0,0.0,-2.7031,-2.707,-2.707,-2.6987,-2.6679,-2.6473,-2.6182,-2.589,0.0,0.0,-2.6267,-2.6473,-2.6699,-2.6679,-2.7026,-2.6937,-2.6408,-2.646,-2.6668,-2.7167,-2.7241,-2.7568,-2.8228,-2.833,-2.8466,-0.9777,0.0,0.0,0.0,0.0,-1.0355,-1.0449,-1.0689,-1.0689,-1.0773,-1.1023,-1.0939,0.0,0.0,0.0,0.0,0.0,0.0,-1.3052,-1.358,-1.4123,-1.4413,-1.4497,-1.4751,-1.4871,-1.4883,-1.4871,-1.4835,-1.4739,-1.4268,-1.3737,-1.3181,0.0,0.0,0.0,0.0,-1.4618,-1.5348,-1.5785,-1.6223,-1.6796,-1.7065,-1.7212,-1.72,-1.6673,-1.6258,-1.5895,-1.5482,-1.4959,-1.4315,-1.4154,0.0,0.0,0.0,0.0,0.0,0.0,0.0,0.0,0.0,0.0,0.0,0.0,0.0,0.0,0.0,0.0,0.0,0.0,0.0,-1.7642,-1.8229,-1.854,0.0,0.0,0.0,0.0,0.0,0.0,0.0,0.0,0.0,-2.3382,-2.3551,-2.3832,0.0,0.0,-2.6021,-2.6864,-2.7149,-2.735,-2.7871,-2.797,0.0,0.0,-2.7654,-2.7511,-2.7308,-2.7419,-2.764,-2.8191,-2.8282,-2.8501,-2.8719,-2.8937,-2.9075,-2.8906,-2.8061,-2.7602,-2.7839,-2.8235,-2.8628,-2.9019,-2.9214,-2.9526,-1.0556,-1.0304,-1.061,-1.0817,-1.0908,-1.1,-1.1091,-1.1364,-1.1455,-1.1546,-1.1727,-1.1818,-1.201,-1.2089,-1.218,0.0,0.0,0.0,-1.3791,-1.4052,-1.4676,-1.5077,-1.5197,-1.5451,-1.5632,-1.5741,-1.5741,-1.5632,-1.5415,-1.5258,-1.4835,-1.4171,0.0,0.0,-1.4461,-1.4666,-1.5065,-1.5632,-1.603,-1.6416,-1.6851,-1.7117,-1.7201,-1.7092,-1.667,-1.632,-1.6054,-1.5692,-1.5221,-1.4642,-1.4509,-1.4092,0.0,0.0,0.0,0.0,0.0,0.0,0.0,0.0,0.0,0.0,0.0,-1.4664,-1.4832,0.0,0.0,0.0,-1.7151,-1.7821,-1.8625,-1.9122,0.0,0.0,0.0,0.0,0.0,0.0,0.0,-2.2355,-2.3015,-2.373,-2.4519,-2.4776,-2.4969,-2.5071,-2.56,-2.633,-2.7214,0.0,-2.7764,-2.8295,-2.8473,-2.8423,-2.8293,-2.8164,-2.8106,-2.7992,-2.8106,-2.8446,-2.9029,-2.9141,-2.9254,-2.957,-2.9682,-2.9813,-2.9793,-2.9252,-2.8975,-2.9413,-2.9808,-3.0221,-3.0427,-3.0734,-3.0939,-1.1081,-1.115,-1.1299,-1.1401,-1.1531,-1.1531,-1.1629,-1.1933,-1.2217,-1.2325,-1.2422,-1.2715,-1.2824,-1.2824,-1.3008,0.0,-1.3505,-1.4074,-1.4413,-1.4424,-1.5251,-1.5728,-1.5958,-1.6199,-1.6453,-1.6694,-1.6694,-1.6441,-1.597,-1.5958,-1.5716,-1.5246,-1.4992,-1.4847,-1.4811,-1.5282,-1.5656,-1.5922,-1.6453,-1.6863,-1.7117,-1.7358,-1.7358,-1.7105,-1.6839,-1.6573,-1.6284,-1.5801,-1.5415,-1.5137,-1.4642,-1.4123,-1.3604,0.0,0.0,0.0,0.0,0.0,0.0,0.0,0.0,0.0,0.0,0.0,0.0,0.0,0.0,0.0,-1.8355,0.0,-1.9678,-2.0243,0.0,0.0,0.0,-2.1255,-2.1291,-2.2006,-2.2777,-2.3547,0.0,0.0,-2.5381,-2.5803,-2.6059,-2.6096,-2.6291,-2.6784,-2.7567,-2.7863,-2.8125,-2.8577,-2.8597,-2.8634,-2.871,-2.8595,-2.8459,-2.8574,-2.8406,-2.8747,-2.9316,-2.943,-2.9485,-2.9805,-2.9726,-2.9726,-2.9687,-3.0115,-3.0671,-3.1072,-3.1449,-3.1734,-3.1975,-3.2148,-3.2341,-1.2096,-1.2646,-1.2663,-1.2257,-1.1773,-1.1773,-1.1875,-1.2181,-1.2181,-1.2486,-1.2791,-1.2892,-1.3105,-1.3308,-1.3409,-1.351,-1.3836,-1.4584,-1.4989,-1.5235,-1.6066,-1.6453,-1.6513,-1.6573,-1.6634,-1.6694,-1.6694,-1.6634,-1.6513,-1.6513,-1.6441,-1.632,-1.626,-1.5922,-1.5354,-1.5632,-1.5922,-1.6187,-1.6718,-1.7129,-1.7382,-1.7455,-1.7358,-1.7092,-1.6839,-1.6561,-1.6296,-1.597,-1.568,-1.5415,-1.5089,-1.4678,-1.4135,-1.3423,0.0,0.0,0.0,0.0,0.0,0.0,0.0,0.0,0.0,-1.6154,-1.6503,0.0,-1.7466,0.0,-1.9225,-2.0057,-2.0508,-2.1121,0.0,0.0,-2.2263,-2.263,-2.2942,-2.3419,-2.3914,-2.4427,-2.5106,-2.5711,-2.6243,-2.6646,-2.6995,-2.7288,-2.7179,-2.729,-2.7883,-2.8089,-2.822,-2.8597,-2.8765,-2.8913,-2.9151,-2.9471,-2.9804,-3.0102,-3.0083,-3.0344,-3.0926,-3.0945,-3.095,-3.1015,-3.1055,-3.0937,-3.0625,-3.0912,-3.1122,-3.1311,-3.1411,-3.1579,-3.1797,-3.1906,-3.2123,-1.2373,-1.2955,-1.306,-1.2795,-1.237,-1.237,-1.2488,-1.2586,-1.2704,-1.292,-1.3234,-1.3342,-1.3567,-1.389,-1.3901,-1.4105,-1.4341,-1.492,-1.5372,-1.5615,-1.6216,-1.6642,-1.6875,-1.6875,-1.6936,-1.7044,-1.7044,-1.6984,-1.6875,-1.6875,-1.6815,-1.6706,-1.6694,-1.6477,-1.6066,-1.6175,-1.638,-1.6646,-1.7056,-1.7334,-1.7479,-1.7479,-1.7418,-1.7261,-1.6899,-1.6634,-1.6477,-1.6103,-1.5765,-1.5511,-1.5354,-1.498,-1.4328,-1.3894,-1.3652,0.0,0.0,0.0,0.0,0.0,0.0,0.0,0.0,0.0,0.0,0.0,-1.8614,-1.9521,-2.0251,-2.0762,-2.1192,-2.1928,-2.2492,-2.268,-2.3304,-2.3859,-2.4079,-2.4445,-2.4922,-2.5509,-2.5968,-2.6463,-2.7031,-2.7306,-2.7581,-2.7985,-2.8003,-2.8118,-2.827,-2.8418,-2.8719,-2.9021,-2.9275,-2.949,-2.9749,-3.0015,-3.0328,-3.068,-3.068,-3.0926,-3.1539,-3.168,-3.1706,-3.1735,-3.1677,-3.1498,-3.1265,-3.1326,-3.1445,-3.1486,-3.1523,-3.1775,-3.1819,-3.2072,-3.2274,-1.233,-1.2684,-1.303,-1.3145,-1.3145,-1.3145,-1.3117,-1.3069,-1.3298,-1.3412,-1.3526,-1.3744,-1.4096,-1.4448,-1.4448,-1.4551,-1.4891,-1.5252,-1.5501,-1.5829,-1.609,-1.657,-1.7026,-1.7141,-1.7261,-1.7479,-1.7479,-1.7358,-1.7141,-1.7141,-1.702,-1.6815,-1.6803,-1.6803,-1.6803,-1.6803,-1.6911,-1.7141,-1.737,-1.7479,-1.7479,-1.7479,-1.7467,-1.7418,-1.6984,-1.6718,-1.6646,-1.6187,-1.5813,-1.5559,-1.5523,-1.5185,-1.4497,-1.4389,-1.4337,0.0,-1.4345,0.0,0.0,0.0,0.0,0.0,0.0,0.0,0.0,-1.8938,-1.9881,-2.0874,-2.1216,-2.1483,-2.1909,-2.2717,-2.3278,-2.3296,-2.4208,-2.4867,-2.4941,-2.5289,-2.5821,-2.6573,-2.6701,-2.7013,-2.771,-2.7875,-2.8095,-2.8517,-2.8883,-2.8993,-2.8755,-2.8938,-2.925,-2.9617,-3.0002,-3.0185,-3.0241,-3.0314,-3.0512,-3.0742,-3.0761,-3.0971,-3.1646,-3.1769,-3.1854,-3.2144,-3.188,-3.1597,-3.1558,-3.152,-3.152,-3.1482,-3.1667,-3.1917,-3.1916,-3.2296,-3.2621,-1.2729,-1.3086,-1.3452,-1.357,-1.357,-1.357,-1.3381,-1.3069,-1.3184,-1.3298,-1.3526,-1.3754,-1.4096,-1.4448,-1.4448,-1.4551,-1.4891,-1.5429,-1.5632,-1.5747,-1.6541,-1.6903,-1.7067,-1.7301,-1.743,-1.7479,-1.7479,-1.7455,-1.7406,-1.7406,-1.7382,-1.7334,-1.7334,-1.7334,-1.7334,0.0,0.0,0.0,-1.7455,-1.7479,-1.7479,-1.7479,-1.7382,-1.7177,-1.7068,0.0,-1.638,-1.626,-1.6079,-1.5825,-1.5608,0.0,0.0,0.0,0.0,0.0,0.0,0.0,0.0,0.0,0.0,0.0,-1.8859,-1.9141,-1.9011,-2.0045,-2.0796,-2.1302,-2.1965,-2.246,-2.2728,-2.3458,-2.3982,-2.4189,-2.4625,-2.505,-2.5288,-2.6007,-2.6554,-2.6995,-2.7343,-2.771,-2.8205,-2.8535,-2.8902,-2.9269,-2.9709,-2.9929,-2.9855,-2.9892,-3.0002,-3.0094,-3.0442,-3.0681,-3.0681,-3.0937,-3.1121,-3.1285,-3.1285,-3.1413,-3.1813,-3.1941,-3.1935,-3.2296,-3.1951,-3.1713,-3.1654,-3.1417,-3.1285,-3.1191,-3.121,-3.1482,-3.2295,-3.2495,-3.2734,-1.3251,0.0,-1.3873,-1.3996,0.0,-1.3996,-1.3873,-1.3665,-1.3466,-1.3489,-1.3606,-1.3723,-1.4083,-1.4549,-1.4549,-1.4782,-1.5246,-1.5481,-1.577,-1.5898,-1.6374,-1.6678,-1.702,-1.7138,-1.7373,-1.7491,-1.7612,-1.7672,-1.7684,-1.7817,-1.7877,-1.7877,-1.7877,-1.7877,-1.7877,-1.7889,-1.7744,-1.7479,-1.7479,-1.7479,-1.7479,-1.7479,-1.7418,-1.7286,0.0,0.0,0.0,0.0,0.0,0.0,0.0,0.0,0.0,0.0,0.0,-1.5897,-1.6056,-1.654,-1.7371,-1.8277,-1.8958,-1.9323,-2.009,-2.0539,-2.0652,-2.1162,-2.1827,-2.2484,-2.2877,-2.3203,-2.3324,-2.393,-2.4491,-2.4597,-2.5254,-2.5901,-2.6118,-2.67,-2.7325,-2.771,-2.7948,-2.8297,-2.8902,-2.914,-2.9434,-2.9837,-3.0241,-3.0497,-3.0497,-3.0497,-3.0552,-3.0736,-3.0919,-3.1157,-3.1359,-3.1524,-3.1893,-3.2171,-3.2245,-3.2376,-3.2656,-3.2786,-3.2841,-3.2891,-3.2725,-3.2373,-3.2332,-3.1891,-3.1506,-3.1506,-3.1377,-3.1506,-3.22,-3.2238,-3.2148,-1.3304,-1.3806,-1.4057,-1.4307,-1.4317,-1.4317,-1.4317,-1.4288,0.0,0.0,0.0,-1.3797,-1.4159,-1.4651,-1.4651,-1.5011,-1.5611,-1.5731,-1.585,-1.61,-1.6209,-1.6447,-1.6924,-1.7043,-1.728,-1.7517,-1.7721,-1.795,-1.795,-1.8179,-1.83,-1.83,-1.83,-1.83,-1.83,-1.83,-1.807,-1.7648,-1.7624,-1.7624,-1.7624,-1.7624,-1.7599,-1.7551,-1.7346,-1.7189,-1.7092,-1.6887,-1.6646,-1.6368,-1.6368,-1.6175,-1.5741,-1.5716,-1.5915,-1.6545,-1.6847,-1.758,-1.8457,-1.9433,-2.0061,-2.0462,-2.1055,-2.1732,-2.2145,-2.2128,-2.2585,-2.3508,-2.3627,-2.3768,-2.3768,-2.4395,-2.478,-2.4889,-2.5945,-2.6691,-2.6727,-2.7391,-2.8022,-2.8407,-2.8553,-2.8865,-2.9562,-2.9745,-2.991,-3.0259,-3.0644,-3.0937,-3.0992,-3.1029,-3.1139,-3.1396,-3.1543,-3.1744,-3.2001,-3.2093,-3.2372,-3.2726,-3.2933,-3.3121,-3.3406,-3.3539,-3.3539,-3.3577,-3.3387,-3.3198,-3.3084,-3.2593,-3.2186,-3.2052,-3.1935,-3.1801,-3.2077,-3.193,-3.197,-1.2809,-1.3421,-1.3681,-1.4057,-1.4317,-1.4317,-1.4317,-1.4307,-1.4251,-1.4222,-1.4222,-1.4222,-1.4471,-1.4729,-1.5092,-1.5463,-1.5834,-1.6092,-1.6215,0.0,-1.6574,-1.6697,-1.682,-1.7077,-1.7433,-1.78,-1.7836,-1.7982,-1.8239,-1.8275,-1.83,-1.83,-1.83,-1.83,-1.83,-1.83,-1.8251,-1.8179,-1.8179,-1.8179,-1.8179,-1.8179,-1.8058,-1.7829,-1.7781,-1.7551,-1.7105,-1.7068,-1.6911,-1.6658,-1.6646,-1.661,-1.6537,-1.6525,-1.6759,-1.741,-1.7948,-1.8509,-1.922,-2.0308,-2.1171,-2.1707,-2.1862,-2.2076,-2.238,-2.2364,-2.2626,-2.3274,-2.356,-2.3945,-2.4088,-2.4778,-2.5302,-2.5336,-2.604,-2.6531,-2.6893,-2.7481,-2.8228,-2.8847,-2.9214,-2.9562,-3.002,-3.0369,-3.0589,-3.0736,-3.1121,-3.1433,-3.1708,-3.1836,-3.1854,-3.1946,-3.2221,-3.2423,-3.2496,-3.2514,-3.257,-3.2588,-3.2777,-3.2832,-3.2966,-3.3252,-3.35,-3.369,-3.3481,-3.3462,-3.3595,-3.2988,-3.2661,-3.2545,-3.2429,-3.2393,-3.2564,-3.2501,-3.258,-1.2976,-1.3611,-1.3997,-1.4263,-1.4648,-1.4648,-1.4648,-1.4648,-1.4648,-1.4515,-1.4317,-1.4317,-1.4433,-1.4817,-1.4932,-1.5307,-1.5805,-1.5939,-1.6064,-1.6312,-1.6425,-1.6673,-1.6797,-1.692,-1.7168,-1.7549,-1.7925,-1.812,-1.8256,-1.8512,-1.8722,-1.8722,-1.871,-1.8722,-1.871,-1.8722,-1.871,-1.871,-1.8432,-1.83,-1.83,-1.83,-1.8227,-1.8106,-1.8106,-1.7998,-1.7756,-1.7744,-1.7624,-1.7346,-1.7346,-1.7274,-1.7141,-1.7129,-1.7359,-1.8046,-1.859,-1.9158,-1.985,-2.0974,-2.1865,-2.2419,-2.2529,-2.2625,-2.2927,-2.2812,-2.2885,-2.3519,-2.4072,-2.4401,-2.4624,-2.523,-2.5669,-2.5686,-2.636,-2.6819,-2.7006,-2.7955,-2.8745,-2.9064,-2.955,-3.0057,-3.0479,-3.0681,-3.0992,-3.1359,-3.1799,-3.2111,-3.2313,-3.2533,-3.2588,-3.2404,-3.2496,-3.268,-3.2881,-3.2936,-3.3028,-3.3211,-3.3403,-3.3539,-3.3539,-3.3928,-3.4199,-3.4334,-3.4199,-3.4218,-3.4334,-3.3947,-3.3539,-3.3248,-3.2993,-3.2838,-3.2719,-3.2975,-3.3237,-1.3153,-1.3945,-1.4253,-1.4677,-1.5073,-1.5026,-1.4997,-1.4997,-1.495,-1.4752,-1.4477,-1.4449,-1.4576,-1.4838,-1.4964,-1.5216,-1.571,-1.5836,-1.5972,-1.6348,-1.6348,-1.6599,-1.6838,-1.6838,-1.6963,-1.7372,-1.7908,-1.8254,-1.8277,-1.8848,-1.9072,-1.9072,-1.9072,-1.9072,-1.9072,-1.9072,-1.9072,-1.9048,-1.8674,-1.8469,-1.8469,-1.8469,-1.8444,-1.8384,-1.8384,-1.8348,-1.83,-1.83,-1.8191,-1.7986,-1.7962,-1.7997,-1.779,-1.7778,-1.8015,-1.8724,-1.9298,-2.0,-2.0931,-2.1754,-2.2559,-2.3244,-2.3244,-2.3371,-2.3562,-2.3392,-2.3391,-2.4022,-2.4514,-2.4892,-2.5057,-2.5591,-2.6062,-2.608,-2.6727,-2.7123,-2.7295,-2.8339,-2.9169,-2.9259,-2.9901,-3.0354,-3.0701,-3.1011,-3.1359,-3.2001,-3.2478,-3.2716,-3.279,-3.3083,-3.3175,-3.2991,-3.2863,-3.301,-3.3303,-3.3358,-3.3468,-3.3918,-3.4195,-3.4296,-3.4452,-3.4746,-3.504,-3.4983,-3.5002,-3.4983,-3.504,-3.4746,-3.4452,-3.4139,-3.3845,-3.3605,-3.3466,-3.3743,-3.4046,-1.2933,-1.4174,-1.4458,-1.4946,-1.547,-1.529,-1.5205,-1.5186,-1.5016,-1.4912,-1.4874,-1.4874,-1.4874,-1.4874,-1.5265,-1.5394,-1.5534,-1.5784,-1.6172,-1.6441,-1.6441,-1.6689,-1.6937,-1.6947,-1.7205,-1.7474,-1.7871,-1.8162,-1.8559,-1.8956,-1.9084,-1.9072,-1.9072,-1.9096,-1.9084,-1.9084,-1.9084,-1.9084,-1.9024,-1.9,-1.9,-1.9,-1.8891,-1.865,-1.865,-1.8529,-1.8336,-1.83,-1.8287,-1.8251,-1.8263,-1.8362,-1.8704,-1.8691,-1.8947,-1.9676,-2.0268,-2.123,-2.2631,-2.2883,-2.334,-2.3959,-2.3912,-2.3943,-2.4007,-2.4061,-2.4146,-2.4444,-2.4828,-2.5061,-2.5311,-2.5999,-2.6473,-2.6525,-2.7073,-2.7624,-2.7921,-2.8393,-2.9028,-2.9633,-3.0085,-3.0374,-3.09,-3.1523,-3.2056,-3.2478,-3.29,-3.3156,-3.3193,-3.345,-3.3688,-3.3651,-3.367,-3.367,-3.3725,-3.3762,-3.39,-3.4251,-3.4389,-3.4583,-3.5035,-3.531,-3.5508,-3.572,-3.5585,-3.5604,-3.5566,-3.5215,-3.4978,-3.5092,-3.4916,-3.4822,-3.4803,-3.5135,-3.5196,-1.2846,-1.4087,-1.4428,-1.4873,-1.5545,-1.546,-1.5432,-1.5413,-1.5337,-1.53,-1.53,-1.5309,-1.5233,-1.5111,-1.5243,-1.5452,-1.5844,-1.5978,-1.6245,-1.6501,-1.6778,-1.7044,-1.7166,-1.7299,-1.7564,-1.7697,-1.7962,-1.8358,-1.8765,-1.9292,-1.9555,-1.9555,-1.9555,-1.9555,-1.9555,-1.9555,-1.9555,-1.9555,-1.9555,-1.9555,-1.9519,-1.9241,-1.9024,-1.8927,-1.8915,-1.8879,-1.877,-1.8758,-1.8884,-1.8998,-1.901,-1.9249,-1.9512,-1.9763,-2.006,-2.0385,-2.1171,-2.2035,-2.2974,-2.333,-2.3567,-2.4055,-2.4172,-2.4134,-2.4341,-2.4372,-2.4635,-2.4987,-2.5092,-2.5087,-2.5255,-2.6198,-2.6915,-2.6983,-2.7514,-2.7946,-2.8088,-2.8685,-2.9252,-2.9538,-3.0183,-3.0763,-3.1276,-3.2047,-3.2753,-3.2991,-3.3303,-3.3541,-3.3578,-3.3725,-3.3798,-3.3817,-3.3817,-3.3817,-3.3817,-3.3955,-3.4343,-3.465,-3.5142,-3.5458,-3.5845,-3.634,-3.6499,-3.6619,-3.658,-3.658,-3.6975,-3.6797,-3.6638,-3.658,-3.648,-3.634,-3.634,-3.6619,-3.6758,-1.3027,-1.4001,-1.4733,-1.5312,-1.5725,-1.5668,-1.564,-1.563,-1.5583,-1.5564,-1.5564,-1.5564,-1.5508,-1.5404,-1.5347,-1.5548,-1.5963,-1.5972,-1.6108,-1.6506,-1.6787,-1.7058,-1.7193,-1.7453,-1.7588,-1.7723,-1.7981,-1.8396,-1.8933,-1.948,-1.9747,-1.9881,-1.9881,-1.9881,-1.9881,-1.9881,-1.9881,-1.9881,-1.9881,-1.9881,-1.9833,-1.9507,-1.9301,-1.9301,-1.9301,-1.9301,-1.9289,-1.9419,-1.9512,-1.9695,-1.9824,-2.0042,-2.0361,-2.0742,-2.1015,-2.1424,-2.2184,-2.2901,-2.3488,-2.3743,-2.4029,-2.4468,-2.4484,-2.4642,-2.4928,-2.5008,-2.523,-2.5628,-2.5558,-2.5407,-2.5684,-2.6587,-2.726,-2.731,-2.7866,-2.834,-2.8374,-2.9025,-2.9483,-2.9518,-3.0303,-3.1141,-3.1702,-3.2403,-3.3057,-3.3258,-3.3477,-3.3817,-3.3835,-3.389,-3.3982,-3.3982,-3.4073,-3.411,-3.4,-3.4279,-3.4724,-3.5266,-3.5857,-3.6374,-3.6804,-3.7266,-3.7566,-3.747,-3.7507,-3.7687,-3.7708,-3.7928,-3.8167,-3.8127,-3.7987,-3.7847,-3.8007,-3.8087,-3.8227,-1.32,-1.4344,-1.5643,-1.6122,-1.6141,-1.5933,-1.5848,-1.5838,-1.5659,-1.5574,-1.5593,-1.5583,-1.5668,-1.58,-1.564,-1.5564,-1.571,-1.5729,-1.5875,-1.6148,-1.6274,-1.6526,-1.7203,-1.7193,-1.7474,-1.7787,-1.8069,-1.8586,-1.9236,-1.9358,-1.9468,-1.9905,-1.9929,-1.9905,-1.9929,-1.9941,-1.9893,-1.9941,-1.9941,-1.9917,-1.9905,-1.9881,-1.9845,-1.9845,-1.9833,-1.9808,-1.982,-2.0099,-2.0253,-1.9993,-2.063,-2.1031,-2.1176,-2.1389,-2.2006,-2.2856,-2.334,-2.3822,-2.444,-2.4564,-2.4812,-2.5344,-2.5485,-2.5675,-2.5882,-2.5914,-2.5977,-2.612,-2.6184,-2.612,-2.6407,-2.7074,-2.752,-2.768,-2.8273,-2.8622,-2.8785,-2.9402,-2.9795,-2.9997,-3.0576,-3.1213,-3.1974,-3.2337,-3.2845,-3.3237,-3.3521,-3.3853,-3.3927,-3.4147,-3.4348,-3.444,-3.4623,-3.4825,-3.4477,-3.4808,-3.5416,-3.584,-3.6417,-3.7022,-3.7445,-3.7887,-3.8187,-3.8367,-3.8467,-3.8467,-3.8487,-3.8606,-3.8827,-3.8987,-3.9027,-3.9027,-3.9429,-3.9183,-3.9363,-1.3515,-1.4806,-1.5726,-1.6188,-1.6178,-1.6093,-1.6065,-1.6056,-1.5989,-1.5961,-1.5961,-1.5961,-1.5999,-1.6056,-1.5989,-1.5961,-1.5961,-1.5961,-1.6101,-1.624,-1.637,-1.6649,-1.6927,-1.7344,-1.776,-1.7898,-1.8175,-1.8589,-1.9141,-1.9553,-1.9828,-2.0114,-2.0251,-2.0388,-2.0388,-2.0388,-2.0388,-2.0388,-2.0388,-2.0388,-2.0388,-2.0388,-2.0388,-2.0364,-2.005,-2.0014,-2.0281,-2.0414,-2.063,-2.1319,-2.1569,-2.1907,-2.272,-2.3221,-2.3863,-2.4374,-2.4772,-2.5026,-2.528,-2.5533,-2.5692,-2.5929,-2.5961,-2.6009,-2.6104,-2.6152,-2.6231,-2.6422,-2.6485,-2.6695,-2.6985,-2.7279,-2.7391,-2.7473,-2.8179,-2.8942,-2.9175,-2.9664,-2.997,-3.0292,-3.0839,-3.1513,-3.1913,-3.2471,-3.282,-3.326,-3.3617,-3.3884,-3.4257,-3.4532,-3.4807,-3.4825,-3.4935,-3.5064,-3.5229,-3.5489,-3.5916,-3.6504,-3.7,-3.7747,-3.8398,-3.8724,-3.8926,-3.9151,-3.9273,-3.9394,-3.9515,-3.9959,-4.0079,-4.0402,-4.0261,-4.0319,-4.1088,-4.0738,-4.0801,-1.3753,-1.5052,-1.5753,-1.6037,-1.6188,-1.6188,-1.6188,-1.6188,-1.6188,-1.6188,-1.6188,-1.6188,-1.6216,-1.6273,-1.6282,-1.633,-1.6358,-1.6254,-1.6188,-1.6188,-1.6461,-1.6593,-1.6875,-1.7439,-1.7762,-1.7986,-1.8496,-1.8812,-1.9226,-1.9792,-2.0086,-2.0356,-2.0638,-2.0778,-2.0931,-2.0931,-2.0931,-2.0931,-2.0931,-2.0931,-2.0931,-2.0931,-2.0931,-2.0883,-2.0581,-2.044,-2.0687,-2.0944,-2.1283,-2.2005,-2.2522,-2.3271,-2.4101,-2.475,-2.5138,-2.5396,-2.5638,-2.5911,-2.5911,-2.6024,-2.6184,-2.6295,-2.6327,-2.6342,-2.647,-2.6485,-2.6613,-2.6787,-2.6962,-2.7137,-2.728,-2.7515,-2.7535,-2.7652,-2.8358,-2.9124,-2.9412,-2.9713,-3.0102,-3.0547,-3.1167,-3.1704,-3.193,-3.2368,-3.2738,-3.3037,-3.366,-3.416,-3.4375,-3.4792,-3.521,-3.5247,-3.5375,-3.554,-3.5687,-3.5996,-3.6463,-3.7017,-3.7798,-3.8465,-3.8997,-3.9261,-3.959,-4.0022,-4.0166,-4.031,-4.0596,-4.1188,-4.1473,-4.1756,-4.163,-4.1461,-4.1869,-4.2236,-4.215,-1.3904,-1.491,-1.547,-1.5904,-1.6207,-1.6216,-1.6197,-1.6235,-1.6226,-1.6254,-1.6273,-1.6226,-1.6339,-1.6453,-1.6481,-1.6594,-1.666,-1.6396,-1.6254,-1.6245,-1.6235,-1.651,-1.6793,-1.7238,-1.7765,-1.8226,-1.887,-1.9257,-1.9514,-1.9648,-2.0093,-2.0694,-2.0803,-2.1078,-2.145,-2.1402,-2.1426,-2.1414,-2.139,-2.1426,-2.1474,-2.1414,-2.1402,-2.1426,-2.1366,-2.1408,-2.1232,-2.1885,-2.2303,-2.262,-2.3771,-2.4686,-2.513,-2.5618,-2.5716,-2.5876,-2.6087,-2.6184,-2.6199,-2.6231,-2.6406,-2.6613,-2.6676,-2.6819,-2.7073,-2.7153,-2.7185,-2.7296,-2.7502,-2.7725,-2.7772,-2.7963,-2.8132,-2.8348,-2.8848,-2.9215,-2.9297,-2.9682,-3.0169,-3.0842,-3.1401,-3.1559,-3.1786,-3.2204,-3.2698,-3.3054,-3.3606,-3.4306,-3.4487,-3.5067,-3.5449,-3.5687,-3.5797,-3.5962,-3.6239,-3.6497,-3.6922,-3.7364,-3.8185,-3.9136,-3.953,-3.9734,-4.031,-4.0596,-4.0862,-4.1025,-4.1167,-4.1615,-4.1877,-4.2159,-4.2159,-4.23,-4.2581,-4.2743,-4.2743,-1.3761,-1.4768,-1.5328,-1.5979,-1.6377,-1.6386,-1.6462,-1.6604,-1.6613,-1.6613,-1.6613,-1.6613,-1.6642,-1.6689,-1.6698,-1.6745,-1.6793,-1.666,-1.6613,-1.6604,-1.6613,-1.6594,-1.6885,-1.7474,-1.8094,-1.8746,-1.8966,-1.9155,-1.9311,-1.9591,-2.0016,-2.0451,-2.074,-2.1174,-2.1498,-2.1474,-2.1474,-2.1474,-2.1474,-2.1474,-2.1474,-2.1486,-2.1486,-2.1474,-2.1762,-2.1939,-2.2216,-2.2434,-2.2974,-2.3694,-2.4467,-2.5249,-2.6105,-2.6487,-2.6751,-2.6751,-2.6867,-2.6867,-2.6867,-2.6867,-2.6914,-2.701,-2.7042,-2.7216,-2.7502,-2.7566,-2.7661,-2.7836,-2.8011,-2.8074,-2.8122,-2.8392,-2.8424,-2.8244,-2.867,-2.9035,-2.9379,-3.0045,-3.0718,-3.101,-3.1514,-3.1936,-3.2022,-3.2423,-3.2791,-3.3151,-3.374,-3.4262,-3.4755,-3.5301,-3.5703,-3.5906,-3.6182,-3.6201,-3.6349,-3.6516,-3.6812,-3.7402,-3.8282,-3.9176,-3.9714,-4.0289,-4.074,-4.1167,-4.1452,-4.1594,-4.1877,-4.2018,-4.23,-4.2581,-4.2581,-4.2883,-4.3023,-4.3163,-4.3023,-1.3858,-1.4871,-1.5372,-1.6048,-1.6594,-1.6604,-1.6679,-1.6793,-1.6802,-1.6802,-1.6793,-1.6802,-1.6849,-1.6906,-1.6916,-1.6963,-1.7029,-1.7029,-1.7038,-1.6991,-1.6849,-1.6802,-1.6968,-1.7487,-1.8244,-1.8707,-1.9075,-1.9117,-1.9117,-1.955,-1.9992,-2.0592,-2.0885,-2.1325,-2.1764,-2.1764,-2.1764,-2.1776,-2.1776,-2.1764,-2.1776,-2.1776,-2.1764,-2.191,-2.219,-2.2626,-2.3049,-2.3353,-2.385,-2.4721,-2.5505,-2.6375,-2.7176,-2.7447,-2.7582,-2.7582,-2.7582,-2.7582,-2.7582,-2.7582,-2.7582,-2.7582,-2.7582,-2.7661,-2.7868,-2.7915,-2.8027,-2.817,-2.8344,-2.8424,-2.8471,-2.8742,-2.8837,-2.8662,-2.8821,-2.9154,-2.9583,-3.0206,-3.0849,-3.0999,-3.1632,-3.2023,-3.2125,-3.2655,-3.3025,-3.3258,-3.3683,-3.4224,-3.4854,-3.5294,-3.57,-3.6052,-3.6201,-3.6201,-3.6201,-3.6516,-3.6812,-3.7402,-3.8282,-3.9011,-3.957,-4.0596,-4.1188,-4.1452,-4.1714,-4.2018,-4.2159,-4.23,-4.2581,-4.2861,-4.3023,-4.3163,-4.3184,-4.3184,-4.3184,-1.4027,-1.5369,-1.5544,-1.6057,-1.6821,-1.6821,-1.6849,-1.6859,-1.6868,-1.6878,-1.6868,-1.6897,-1.6963,-1.7095,-1.7123,-1.7218,-1.7379,-1.7369,-1.736,-1.7275,-1.7067,-1.6906,-1.7073,-1.7514,-1.8021,-1.8499,-1.8953,-1.9197,-1.9166,-1.9618,-2.0296,-2.1003,-2.1141,-2.1487,-2.2025,-2.2247,-2.2198,-2.2186,-2.2211,-2.2211,-2.2211,-2.2223,-2.2223,-2.2211,-2.2645,-2.3239,-2.3767,-2.4566,-2.517,-2.578,-2.6783,-2.7585,-2.8047,-2.8217,-2.8154,-2.8122,-2.8201,-2.8154,-2.8186,-2.8106,-2.8122,-2.8106,-2.8106,-2.8233,-2.8233,-2.8265,-2.8313,-2.8408,-2.863,-2.8789,-2.8853,-2.9059,-2.9234,-2.9314,-2.9314,-2.9457,-2.9774,-3.0276,-3.0681,-3.0925,-3.1662,-3.2137,-3.2301,-3.2918,-3.3254,-3.3506,-3.388,-3.4319,-3.4804,-3.5271,-3.5736,-3.5903,-3.6052,-3.6201,-3.6201,-3.6516,-3.6812,-3.7402,-3.8282,-3.9011,-3.9858,-4.074,-4.1756,-4.2018,-4.2159,-4.23,-4.2441,-4.2721,-4.2861,-4.3023,-4.3163,-4.3184,-4.3184,-4.3184,-4.3206,-1.4099,-1.5103,-1.5745,-1.6434,-1.701,-1.7029,-1.7114,-1.7246,-1.7256,-1.7237,-1.7256,-1.7265,-1.7265,-1.7341,-1.7331,-1.7379,-1.7416,-1.7426,-1.7426,-1.7416,-1.7331,-1.7416,-1.7708,-1.7757,-1.8089,-1.8552,-1.8895,-1.9239,-1.9249,-1.9703,-2.0307,-2.1071,-2.1071,-2.1522,-2.2109,-2.2271,-2.2271,-2.2271,-2.2271,-2.2271,-2.2271,-2.2271,-2.2271,-2.2408,-2.2856,-2.3451,-2.4179,-2.5862,-2.6702,-2.6748,-2.7277,-2.7833,-2.8126,-2.8265,-2.8281,-2.8281,-2.8249,-2.8233,-2.8249,-2.8249,-2.8233,-2.8217,-2.8297,-2.8344,-2.8614,-2.863,-2.8757,-2.8932,-2.9123,-2.9139,-2.9171,-2.925,-2.9409,-2.9647,-2.9711,-2.9838,-3.0108,-3.0499,-3.0843,-3.094,-3.1927,-3.2341,-3.2591,-3.3109,-3.3648,-3.3683,-3.3902,-3.4139,-3.4574,-3.5007,-3.5456,-3.5754,-3.5903,-3.6052,-3.6201,-3.6497,-3.696,-3.7402,-3.8282,-3.9321,-4.0022,-4.1025,-4.2018,-4.2743,-4.2743,-4.2883,-4.2883,-4.3045,-4.3184,-4.3316,-4.3337,-4.3403,-4.3272,-4.3206,-4.325,-1.4605,-1.5449,-1.6125,-1.6824,-1.7237,-1.7237,-1.7312,-1.7407,-1.7426,-1.7426,-1.7426,-1.7426,-1.7426,-1.7426,-1.7426,-1.7426,-1.7426,-1.7426,-1.7426,-1.7426,-1.7416,-1.7559,-1.7711,-1.7721,-1.7883,-1.8187,-1.8643,-1.8946,-1.9098,-1.9542,-2.0307,-2.0921,-2.1071,-2.1522,-2.2259,-2.2271,-2.2271,-2.2271,-2.2271,-2.2271,-2.2271,-2.2271,-2.2408,-2.2558,-2.3141,-2.3748,-2.5065,-2.6823,-2.7629,-2.7626,-2.7989,-2.8412,-2.8678,-2.8678,-2.8678,-2.8678,-2.8678,-2.8694,-2.8678,-2.8662,-2.8678,-2.8678,-2.8678,-2.8773,-2.8932,-2.8996,-2.9123,-2.9234,-2.9298,-2.9298,-2.9329,-2.9425,-2.9758,-3.0172,-3.0267,-3.0346,-3.0537,-3.0702,-3.0932,-3.1227,-3.1857,-3.2458,-3.2592,-3.3247,-3.35,-3.3685,-3.3802,-3.3988,-3.4441,-3.4724,-3.5157,-3.5456,-3.5903,-3.6052,-3.6367,-3.6534,-3.7368,-3.7958,-3.9287,-4.0141,-4.0761,-4.1578,-4.2244,-4.2991,-4.3088,-4.325,-4.3381,-4.3512,-4.3665,-4.3752,-4.3709,-4.3731,-4.3687,-4.349,-4.3468,-1.532,-1.6099,-1.6581,-1.7121,-1.7416,-1.7416,-1.7407,-1.7426,-1.7426,-1.7426,-1.7426,-1.7426,-1.7426,-1.7426,-1.7426,-1.7435,-1.7464,-1.7492,-1.7511,-1.753,-1.7549,-1.7549,-1.7558,-1.7454,-1.7426,-1.7578,-1.8187,-1.8491,-1.8795,-1.9542,-2.0307,-2.0921,-2.1071,-2.151,-2.2109,-2.2271,-2.2271,-2.2271,-2.2271,-2.2271,-2.2271,-2.2271,-2.2408,-2.2856,-2.3587,-2.4623,-2.6093,-2.7405,-2.8099,-2.8114,-2.8851,-2.9234,-2.925,-2.9266,-2.925,-2.9218,-2.9186,-2.9202,-2.925,-2.9186,-2.9234,-2.9202,-2.9218,-2.9298,-2.925,-2.9234,-2.925,-2.9298,-2.9329,-2.9425,-2.9552,-2.9743,-3.0172,-3.0648,-3.0823,-3.0902,-3.0918,-3.0918,-3.1045,-3.1331,-3.184,-3.213,-3.2435,-3.2892,-3.3348,-3.3517,-3.3685,-3.3988,-3.4273,-3.4707,-3.5007,-3.5306,-3.5754,-3.6201,-3.6386,-3.672,-3.7739,-3.8592,-4.0484,-4.1565,-4.1833,-4.2465,-4.2904,-4.3328,-4.3687,-4.3818,-4.3905,-4.4036,-4.4167,-4.4211,-4.4167,-4.4342,-4.4473,-4.4102,-4.3949,-1.5841,-1.6599,-1.7102,-1.7273,-1.7426,-1.7426,-1.7426,-1.7426,-1.7426,-1.7426,-1.7426,-1.7426,-1.7435,-1.7435,-1.7473,-1.7501,-1.7653,-1.7672,-1.7747,-1.7908,-1.7917,-1.7917,-1.7832,-1.7615,-1.7445,-1.7607,-1.8197,-1.8663,-1.8815,-1.9605,-2.0318,-2.0944,-2.114,-2.1522,-2.2133,-2.2295,-2.2271,-2.2271,-2.2271,-2.2271,-2.2271,-2.2259,-2.2558,-2.3005,-2.4179,-2.5506,-2.6692,-2.771,-2.8274,-2.8563,-2.9026,-2.9377,-2.9314,-2.9298,-2.9298,-2.9298,-2.9298,-2.9298,-2.9298,-2.9298,-2.9298,-2.9298,-2.9329,-2.9298,-2.9298,-2.9329,-2.9329,-2.9345,-2.9536,-2.979,-3.0044,-3.041,-3.0664,-3.0886,-3.1109,-3.1252,-3.1268,-3.1268,-3.13,-3.1517,-3.1686,-3.1993,-3.2146,-3.274,-3.3196,-3.3365,-3.3517,-3.3837,-3.4122,-3.4556,-3.5007,-3.5306,-3.5903,-3.6386,-3.6868,-3.7446,-3.8754,-3.9761,-4.1498,-4.2774,-4.3188,-4.3515,-4.3925,-4.409,-4.432,-4.4408,-4.4386,-4.4451,-4.4539,-4.4604,-4.467,-4.4779,-4.4801,-4.4561,-4.443,-1.6402,-1.6806,-1.7264,-1.7426,-1.7426,-1.7426,-1.7426,-1.7426,-1.7426,-1.7483,-1.7558,-1.7568,-1.7624,-1.7719,-1.7719,-1.7785,-1.7851,-1.7879,-1.7936,-1.8021,-1.804,-1.804,-1.8031,-1.7851,-1.7719,-1.7874,-1.8493,-1.8956,-1.9101,-1.986,-2.0671,-2.1414,-2.1402,-2.1814,-2.2313,-2.244,-2.238,-2.2283,-2.2271,-2.2271,-2.2271,-2.2259,-2.2707,-2.36,-2.4918,-2.6239,-2.7274,-2.8152,-2.8795,-2.9132,-2.9533,-2.96,-2.9345,-2.9298,-2.9298,-2.9298,-2.9298,-2.9298,-2.9298,-2.9298,-2.9298,-2.9314,-2.9441,-2.952,-2.96,-2.9663,-2.9774,-2.9806,-2.9965,-3.0187,-3.0521,-3.0696,-3.0902,-3.1109,-3.1268,-3.1379,-3.1395,-3.1395,-3.1395,-3.1395,-3.1549,-3.184,-3.2146,-3.2588,-3.3044,-3.3213,-3.3668,-3.3837,-3.3988,-3.4423,-3.4857,-3.5306,-3.6052,-3.6757,-3.7315,-3.8364,-4.0156,-4.1231,-4.2624,-4.3637,-4.4335,-4.4543,-4.4939,-4.4808,-4.4735,-4.4801,-4.4801,-4.4866,-4.5041,-4.5281,-4.5369,-4.5281,-4.5194,-4.5085,-4.4997,-1.6806,-1.6959,-1.7273,-1.7426,-1.7426,-1.7426,-1.7426,-1.7426,-1.7426,-1.753,-1.77,-1.7728,-1.7804,-1.7993,-1.8012,-1.805,-1.8097,-1.8154,-1.821,-1.821,-1.822,-1.822,-1.8191,-1.8172,-1.8144,-1.8135,-1.8809,-1.926,-1.9406,-2.0241,-2.0935,-2.1613,-2.1779,-2.2105,-2.2589,-2.2705,-2.2597,-2.2392,-2.2367,-2.2307,-2.242,-2.242,-2.3017,-2.4433,-2.5764,-2.6998,-2.7819,-2.8734,-2.9446,-2.9917,-3.0172,-2.9981,-2.9631,-2.9457,-2.9457,-2.9472,-2.9536,-2.9568,-2.9584,-2.9536,-2.952,-2.9457,-2.9711,-2.9886,-2.9965,-3.0076,-3.0172,-3.0267,-3.0346,-3.0553,-3.0886,-3.0982,-3.1109,-3.1284,-3.1379,-3.1395,-3.1395,-3.1395,-3.1395,-3.1395,-3.1549,-3.1686,-3.1993,-3.2452,-3.2757,-3.3213,-3.3534,-3.3837,-3.4139,-3.4423,-3.4857,-3.5546,-3.6347,-3.7671,-3.8443,-3.9818,-4.1453,-4.2317,-4.3721,-4.4337,-4.5041,-4.523,-4.5331,-4.5194,-4.5041,-4.515,-4.526,-4.5369,-4.5587,-4.5937,-4.5915,-4.5696,-4.5631,-4.5631,-4.5522,-1.6959,-1.7273,-1.7426,-1.7426,-1.7426,-1.7426,-1.7426,-1.7426,-1.7426,-1.7539,-1.7709,-1.7728,-1.7842,-1.8012,-1.805,-1.8144,-1.8305,-1.8428,-1.8522,-1.8522,-1.8522,-1.8513,-1.8503,-1.8494,-1.8522,-1.8627,-1.9075,-1.9361,-1.9498,-2.0241,-2.1111,-2.1669,-2.1848,-2.2268,-2.2853,-2.2959,-2.2838,-2.2457,-2.2573,-2.2512,-2.253,-2.2943,-2.3766,-2.5256,-2.6623,-2.7777,-2.8744,-2.9297,-2.9806,-3.0251,-3.0299,-3.0267,-3.0187,-3.0156,-3.0124,-3.006,-3.0044,-3.0013,-3.0029,-3.0092,-3.0124,-3.0172,-3.0203,-3.0235,-3.0251,-3.0315,-3.0442,-3.0473,-3.0648,-3.0902,-3.1252,-3.1252,-3.13,-3.1379,-3.1395,-3.1395,-3.1395,-3.1395,-3.1395,-3.1395,-3.1395,-3.1549,-3.1993,-3.2452,-3.2909,-3.3213,-3.3668,-3.3988,-3.429,-3.4724,-3.5306,-3.6049,-3.683,-3.833,-3.9852,-4.1334,-4.2802,-4.3351,-4.4271,-4.4849,-4.549,-4.5661,-4.5806,-4.5522,-4.5522,-4.5675,-4.5784,-4.5806,-4.5849,-4.598,-4.6002,-4.6002,-4.5915,-4.5806,-4.5849,-1.7264,-1.7426,-1.7426,-1.7426,-1.7426,-1.7426,-1.7426,-1.7426,-1.7426,-1.7539,-1.7681,-1.7738,-1.7908,-1.8135,-1.821,-1.8324,-1.8513,-1.8617,-1.8673,-1.8673,-1.8673,-1.8673,-1.8673,-1.8673,-1.8673,-1.8942,-1.9262,-1.9624,-1.9804,-2.0623,-2.1375,-2.2043,-2.2202,-2.2607,-2.3128,-2.3249,-2.3092,-2.2757,-2.2838,-2.2955,-2.3125,-2.3719,-2.502,-2.6143,-2.7401,-2.8537,-2.9421,-3.0119,-3.045,-3.0632,-3.0775,-3.0855,-3.0855,-3.0823,-3.0696,-3.0426,-3.0346,-3.033,-3.0315,-3.0315,-3.0299,-3.033,-3.0473,-3.0585,-3.0664,-3.0759,-3.0823,-3.0902,-3.0966,-3.1204,-3.1363,-3.1395,-3.1395,-3.1395,-3.1395,-3.1395,-3.1395,-3.1395,-3.1395,-3.1395,-3.1686,-3.184,-3.1993,-3.2452,-3.2892,-3.3348,-3.382,-3.4122,-3.4441,-3.5025,-3.5772,-3.6812,-3.7821,-3.9654,-4.1191,-4.2473,-4.3652,-4.4356,-4.4805,-4.5405,-4.5704,-4.5853,-4.6002,-4.5871,-4.598,-4.6002,-4.598,-4.5915,-4.5959,-4.6002,-4.6002,-4.6002,-4.6002,-4.6002,-4.6002,-1.7426,-1.7426,-1.7426,-1.7426,-1.7426,-1.7426,-1.7426,-1.7426,-1.7426,-1.7539,-1.7709,-1.7747,-1.7936,-1.822,-1.8352,-1.8465,-1.8664,-1.8673,-1.8673,-1.8673,-1.8673,-1.8673,-1.8673,-1.8673,-1.8673,-1.8827,-1.9612,-1.9967,-2.0069,-2.0888,-2.1739,-2.2338,-2.2545,-2.2968,-2.3404,-2.3526,-2.3357,-2.3212,-2.3128,-2.3426,-2.4136,-2.5045,-2.6156,-2.7112,-2.8188,-2.9139,-3.0046,-3.0536,-3.0966,-3.1029,-3.1188,-3.1363,-3.1379,-3.1379,-3.1125,-3.0648,-3.0537,-3.0537,-3.0553,-3.0585,-3.0648,-3.0664,-3.0839,-3.0934,-3.1014,-3.1157,-3.1331,-3.1395,-3.1379,-3.1363,-3.1379,-3.1395,-3.1395,-3.1395,-3.1395,-3.1395,-3.1395,-3.1395,-3.1549,-3.1702,-3.184,-3.2146,-3.2299,-3.2604,-3.3196,-3.3668,-3.4122,-3.4724,-3.5025,-3.5623,-3.6311,-3.7727,-3.9193,-4.1133,-4.2563,-4.3497,-4.4485,-4.487,-4.5256,-4.5704,-4.5853,-4.6002,-4.6002,-4.6002,-4.6002,-4.6002,-4.6002,-4.6002,-4.6002,-4.6002,-4.6002,-4.6002,-4.6002,-4.6002,-4.6002,-1.7426,-1.7426,-1.7426,-1.7426,-1.7426,-1.7426,-1.7426,-1.7426,-1.7426,-1.7539,-1.77,-1.7728,-1.7842,-1.8078,-1.8295,-1.8475,-1.8607,-1.8673,-1.8673,-1.8673,-1.8673,-1.8673,-1.8673,-1.8673,-1.8673,-1.8837,-1.9642,-1.9967,-2.013,-2.0952,-2.1761,-2.2406,-2.2728,-2.3015,-2.3596,-2.3744,-2.3659,-2.3454,-2.3406,-2.3922,-2.4829,-2.5711,-2.692,-2.8133,-2.9138,-2.9839,-3.0498,-3.1067,-3.1268,-3.13,-3.1347,-3.1395,-3.1395,-3.1395,-3.1379,-3.1284,-3.1268,-3.1268,-3.1188,-3.1141,-3.1141,-3.1109,-3.1252,-3.1315,-3.13,-3.1315,-3.1395,-3.1395,-3.1395,-3.1395,-3.1395,-3.1395,-3.1395,-3.1395,-3.1395,-3.1395,-3.1395,-3.1395,-3.1549,-3.184,-3.2146,-3.2435,-3.2604,-3.3044,-3.35,-3.3971,-3.4423,-3.5025,-3.5809,-3.6292,-3.7557,-3.9187,-4.0514,-4.2317,-4.359,-4.4548,-4.5063,-4.5405,-4.5704,-4.5853,-4.6002,-4.6002,-4.6002,-4.6002,-4.6002,-4.6002,-4.6002,-4.6002,-4.6002,-4.6002,-4.6002,-4.6002,-4.6002,-4.6002,-4.6002,-1.7426,-1.7426,-1.7426,-1.7426,-1.7426,-1.7426,-1.7426,-1.7426,-1.7426,-1.7473,-1.7549,-1.7558,-1.7672,-1.7908,-1.8191,-1.8399,-1.8513,-1.8617,-1.8673,-1.8673,-1.8673,-1.8673,-1.8673,-1.8673,-1.8673,-1.9,-1.9479,-1.9967,-2.0292,-2.0952,-2.1761,-2.2406,-2.2728,-2.305,-2.368,-2.384,-2.378,-2.3854,-2.4147,-2.4888,-2.5726,-2.679,-2.7917,-2.899,-2.9915,-3.0484,-3.104,-3.1241,-3.1395,-3.1395,-3.1395,-3.1395,-3.1395,-3.1395,-3.1379,-3.1379,-3.1379,-3.1379,-3.1379,-3.1395,-3.1395,-3.1395,-3.1395,-3.1379,-3.1395,-3.1395,-3.1395,-3.1395,-3.1395,-3.1395,-3.1395,-3.1395,-3.1395,-3.1395,-3.1395,-3.1395,-3.1395,-3.1395,-3.1549,-3.1993,-3.2283,-3.274,-3.3061,-3.3668,-3.3971,-3.4273,-3.5025,-3.5623,-3.6627,-3.7538,-3.9051,-4.1029,-4.222,-4.3464,-4.4357,-4.5234,-4.5384,-4.5704,-4.5704,-4.6002,-4.6002,-4.6002,-4.6002,-4.6002,-4.6002,-4.6002,-4.6002,-4.6002,-4.6002,-4.6002,-4.6002,-4.6002,-4.6002,-4.6002,-4.6002,-1.7426,-1.7426,-1.7426,-1.7426,-1.7426,-1.7426,-1.7426,-1.7426,-1.7426,-1.7426,-1.7426,-1.7445,-1.7549,-1.7738,-1.804,-1.8229,-1.8371,-1.8522,-1.8626,-1.8654,-1.8673,-1.8673,-1.8673,-1.8673,-1.8673,-1.8673,-1.9642,-1.9967,-2.0292,-2.0941,-2.1761,-2.2567,-2.2567,-2.305,-2.352,-2.384,-2.3828,-2.4148,-2.4773,-2.5714,-2.6648,-2.7762,-2.8871,-2.9679,-3.0469,-3.0933,-3.1395,-3.1395,-3.1395,-3.1395,-3.1395,-3.1395,-3.1395,-3.1395,-3.1395,-3.1395,-3.1395,-3.1395,-3.1395,-3.1395,-3.1395,-3.1395,-3.1395,-3.1395,-3.1395,-3.1395,-3.1395,-3.1395,-3.1395,-3.1395,-3.1395,-3.1395,-3.1395,-3.1395,-3.1549,-3.1549,-3.1533,-3.1686,-3.1993,-3.2452,-3.2892,-3.3061,-3.3668,-3.4273,-3.4724,-3.4875,-3.5456,-3.6349,-3.7406,-3.8651,-4.0097,-4.1912,-4.3108,-4.4145,-4.4913,-4.5555,-4.5853,-4.6002,-4.6002,-4.6002,-4.6002,-4.6002,-4.6002,-4.6002,-4.6002,-4.6002,-4.6002,-4.6002,-4.6002,-4.6002,-4.6002,-4.6002,-4.6002,-4.6002,-4.6002,-1.7426,-1.7426,-1.7426,-1.7426,-1.7426,-1.7426,-1.7426,-1.7426,-1.7426,-1.7426,-1.7426,-1.7435,-1.753,-1.77,-1.7804,-1.8012,-1.8324,-1.8361,-1.8484,-1.8598,-1.8673,-1.8664,-1.8664,-1.8673,-1.8673,-1.8837,-1.9642,-1.9967,-2.0292,-2.0952,-2.1761,-2.2406,-2.2567,-2.305,-2.3532,-2.3852,-2.416,-2.448,-2.5276,-2.6373,-2.7319,-2.8417,-2.9368,-3.0314,-3.0794,-3.0948,-3.1395,-3.1395,-3.1395,-3.1395,-3.1395,-3.1395,-3.1395,-3.1395,-3.1395,-3.1395,-3.1395,-3.1395,-3.1395,-3.1395,-3.1395,-3.1395,-3.1395,-3.1395,-3.1395,-3.1395,-3.1395,-3.1395,-3.1395,-3.1395,-3.1395,-3.1395,-3.1549,-3.1686,-3.184,-3.1993,-3.1993,-3.2299,-3.2452,-3.2909,-3.3213,-3.3517,-3.4122,-3.4724,-3.5324,-3.5623,-3.6627,-3.753,-3.873,-4.0011,-4.1167,-4.2522,-4.3721,-4.4613,-4.5298,-4.5704,-4.5853,-4.6002,-4.6002,-4.6002,-4.6002,-4.6002,-4.6002,-4.6002,-4.6002,-4.6002,-4.6002,-4.6002,-4.6002,-4.6002,-4.6002,-4.6002,-4.6002,-4.6002,-4.6002,-1.7303,-1.7426,-1.7426,-1.7426,-1.7426,-1.7426,-1.7426,-1.7426,-1.7426,-1.7426,-1.7426,-1.7426,-1.7464,-1.7558,-1.769,-1.7794,-1.7974,-1.8125,-1.8286,-1.8418,-1.8484,-1.856,-1.8607,-1.8664,-1.8837,-1.9163,-1.9642,-2.013,-2.0465,-2.0952,-2.1761,-2.2406,-2.2567,-2.305,-2.3532,-2.4172,-2.4639,-2.5276,-2.5911,-2.6847,-2.8261,-2.8886,-2.9679,-3.0624,-3.1087,-3.1241,-3.1379,-3.1395,-3.1395,-3.1395,-3.1395,-3.1395,-3.1395,-3.1395,-3.1395,-3.1395,-3.1395,-3.1395,-3.1395,-3.1395,-3.1395,-3.1395,-3.1395,-3.1395,-3.1549,-3.1395,-3.1395,-3.1395,-3.1395,-3.1549,-3.1686,-3.184,-3.184,-3.2146,-3.2283,-3.2283,-3.2435,-3.2604,-3.2909,-3.3365,-3.3517,-3.382,-3.4556,-3.5324,-3.5772,-3.6367,-3.753,-3.8739,-3.9976,-4.111,-4.2147,-4.3047,-4.427,-4.5101,-4.5639,-4.5853,-4.6002,-4.6002,-4.6002,-4.6002,-4.6002,-4.6002,-4.6002,-4.6002,-4.6002,-4.6002,-4.6002,-4.6002,-4.6002,-4.6002,-4.6002,-4.6002,-4.6002,-4.6002,-4.6002,-1.7283,-1.7473,-1.7331,-1.7369,-1.7416,-1.7426,-1.7426,-1.7426,-1.7426,-1.7426,-1.7426,-1.7426,-1.7426,-1.7473,-1.7558,-1.7681,-1.7776,-1.7898,-1.8068,-1.8191,-1.8286,-1.839,-1.8513,-1.8751,-1.8913,-1.9287,-1.9967,-2.0292,-2.0627,-2.1114,-2.1761,-2.2406,-2.2728,-2.305,-2.3692,-2.4332,-2.4958,-2.5753,-2.6531,-2.7476,-2.8886,-2.9679,-3.0159,-3.0933,-3.1241,-3.1395,-3.1395,-3.1395,-3.1395,-3.1395,-3.1395,-3.1395,-3.1395,-3.1395,-3.1395,-3.1395,-3.1549,-3.1533,-3.1549,-3.1549,-3.1549,-3.1702,-3.184,-3.184,-3.1686,-3.1686,-3.184,-3.184,-3.184,-3.184,-3.2146,-3.2146,-3.2299,-3.2435,-3.2588,-3.274,-3.2909,-3.3061,-3.3365,-3.3668,-3.404,-3.4784,-3.593,-3.6849,-3.7611,-3.8124,-3.8826,-3.9979,-4.0966,-4.2021,-4.3,-4.3906,-4.4694,-4.5335,-4.5959,-4.598,-4.6002,-4.6002,-4.6002,-4.6002,-4.6002,-4.6002,-4.6002,-4.6002,-4.6002,-4.6002,-4.6002,-4.6002,-4.6002,-4.6002,-4.6002,-4.6002,-4.6002,-4.6002,-4.6002,-1.7517,-1.7712,-1.7273,-1.7237,-1.7398,-1.7426,-1.7426,-1.7426,-1.7426,-1.7426,-1.7426,-1.7426,-1.7426,-1.7435,-1.7473,-1.7549,-1.7662,-1.7719,-1.7851,-1.8012,-1.805,-1.8182,-1.8465,-1.8721,-1.914,-1.944,-2.013,-2.0465,-2.0627,-2.1114,-2.1761,-2.2406,-2.2889,-2.3211,-2.3852,-2.4332,-2.513,-2.6386,-2.7162,-2.8261,-2.9368,-3.0314,-3.0778,-3.1241,-3.1395,-3.1395,-3.1395,-3.1395,-3.1395,-3.1395,-3.1395,-3.1395,-3.1395,-3.1379,-3.1549,-3.1549,-3.184,-3.1993,-3.1993,-3.1993,-3.1993,-3.1993,-3.2146,-3.2299,-3.2435,-3.2435,-3.2435,-3.2299,-3.2435,-3.2452,-3.2604,-3.2588,-3.2588,-3.2757,-3.3061,-3.3365,-3.3365,-3.3652,-3.3974,-3.4498,-3.5281,-3.6066,-3.7539,-3.8778,-3.9436,-3.9951,-4.0391,-4.1191,-4.2036,-4.289,-4.373,-4.4241,-4.501,-4.5549,-4.5959,-4.598,-4.6002,-4.6002,-4.6002,-4.6002,-4.6002,-4.6002,-4.6002,-4.6002,-4.6002,-4.6002,-4.6002,-4.6002,-4.6002,-4.6002,-4.6002,-4.6002,-4.6002,-4.6002,-4.6002,-1.7583,-1.7802,-1.7654,-1.7602,-1.7538,-1.7521,-1.7426,-1.7426,-1.7426,-1.7426,-1.7426,-1.7426,-1.7426,-1.7426,-1.7426,-1.7473,-1.752,-1.7539,-1.7643,-1.7813,-1.7832,-1.7974,-1.8274,-1.8746,-1.9193,-1.9614,-2.02,-2.0779,-2.1114,-2.1276,-2.1761,-2.2567,-2.3371,-2.4012,-2.4492,-2.5117,-2.6228,-2.7162,-2.8104,-2.9042,-3.0159,-3.0624,-3.0933,-3.1395,-3.1395,-3.1395,-3.1395,-3.1395,-3.1395,-3.1395,-3.1395,-3.1395,-3.1549,-3.1533,-3.184,-3.184,-3.2146,-3.2452,-3.2452,-3.2604,-3.2588,-3.2588,-3.2588,-3.274,-3.2588,-3.2588,-3.2588,-3.2588,-3.274,-3.2757,-3.2892,-3.3044,-3.3044,-3.3365,-3.3685,-3.3837,-3.404,-3.4416,-3.4877,-3.5574,-3.6345,-3.7914,-3.9295,-4.0405,-4.1137,-4.1669,-4.1955,-4.1925,-4.2479,-4.3508,-4.4416,-4.4721,-4.5135,-4.5675,-4.5959,-4.598,-4.6002,-4.6002,-4.6002,-4.6002,-4.6002,-4.6002,-4.6002,-4.6002,-4.6002,-4.6002,-4.6002,-4.6002,-4.6002,-4.6002,-4.6002,-4.6002,-4.6002,-4.6002,-4.6002,-1.7796,-1.801,-1.7723,-1.7684,-1.7644,-1.7454,-1.7426,-1.7426,-1.7426,-1.7426,-1.7426,-1.7426,-1.7426,-1.7426,-1.7426,-1.7426,-1.7426,-1.7435,-1.7454,-1.7615,-1.7624,-1.7757,-1.825,-1.873,-1.9323,-1.9933,-2.0408,-2.0846,-2.1276,-2.1438,-2.2084,-2.3038,-2.4172,-2.4811,-2.5276,-2.6228,-2.7004,-2.7947,-2.8886,-2.9664,-3.0469,-3.0933,-3.1087,-3.1395,-3.1395,-3.1395,-3.1395,-3.1395,-3.1395,-3.1395,-3.1395,-3.1549,-3.1702,-3.184,-3.2146,-3.2283,-3.2588,-3.2909,-3.3061,-3.3213,-3.3213,-3.3061,-3.3061,-3.3061,-3.3061,-3.3061,-3.3061,-3.3061,-3.2909,-3.3061,-3.3365,-3.3348,-3.3517,-3.3837,-3.4005,-3.4174,-3.4685,-3.5082,-3.604,-3.6758,-3.7949,-3.9526,-4.1103,-4.2004,-4.2898,-4.3213,-4.3386,-4.3327,-4.3024,-4.3872,-4.4582,-4.4888,-4.5238,-4.5675,-4.5915,-4.598,-4.6002,-4.6002,-4.598,-4.5937,-4.6002,-4.6002,-4.6002,-4.6002,-4.6002,-4.6002,-4.6002,-4.6002,-4.6002,-4.6002,-4.6002,-4.6002,-4.6002,-4.6002,-4.6002,-1.8007,-1.8195,-1.7776,-1.7619,-1.7419,-1.749,-1.7379,-1.7416,-1.7426,-1.7426,-1.7426,-1.7426,-1.7426,-1.7426,-1.7426,-1.7426,-1.7426,-1.7426,-1.7435,-1.7445,-1.7626,-1.7904,-1.8309,-1.8882,-1.9396,-2.0105,-2.0591,-2.0847,-2.1222,-2.1761,-2.2556,-2.368,-2.4639,-2.5594,-2.6386,-2.7162,-2.7947,-2.873,-2.9679,-3.0299,-3.0933,-3.1241,-3.1241,-3.1395,-3.1395,-3.1395,-3.1395,-3.1549,-3.1533,-3.1533,-3.1549,-3.1702,-3.184,-3.1993,-3.2299,-3.2588,-3.3044,-3.3365,-3.3534,-3.3685,-3.3685,-3.3534,-3.3685,-3.3685,-3.3685,-3.3534,-3.3534,-3.3534,-3.3534,-3.3685,-3.3685,-3.3837,-3.3837,-3.4174,-3.4359,-3.4802,-3.5351,-3.604,-3.7002,-3.8176,-3.9472,-4.0966,-4.2747,-4.3865,-4.3976,-4.3863,-4.4011,-4.3664,-4.3611,-4.3785,-4.4451,-4.4801,-4.5194,-4.5653,-4.5806,-4.5675,-4.5762,-4.5696,-4.5806,-4.5806,-4.5893,-4.6002,-4.6002,-4.6002,-4.6002,-4.6002,-4.6002,-4.6002,-4.6002,-4.6002,-4.6002,-4.6002,-4.6002,-4.6002,-4.6002,-1.8336,-1.8269,-1.8143,-1.797,-1.7918,-1.7595,-1.7442,-1.7398,-1.7426,-1.7426,-1.7426,-1.7426,-1.7426,-1.7426,-1.7426,-1.7426,-1.7426,-1.7426,-1.7569,-1.7721,-1.7721,-1.8074,-1.8612,-1.9039,-1.9512,-1.9958,-2.043,-2.078,-2.1166,-2.1789,-2.3015,-2.4308,-2.5104,-2.6215,-2.7333,-2.8431,-2.89,-2.9368,-3.0159,-3.0778,-3.1087,-3.1395,-3.1395,-3.1395,-3.1395,-3.1395,-3.1549,-3.1686,-3.1686,-3.184,-3.2146,-3.2299,-3.2452,-3.2757,-3.3044,-3.3382,-3.3534,-3.3685,-3.3837,-3.3837,-3.3837,-3.3837,-3.3837,-3.3837,-3.3837,-3.3837,-3.3837,-3.3837,-3.3837,-3.3988,-3.4139,-3.4139,-3.4342,-3.4545,-3.5104,-3.5789,-3.6381,-3.7472,-3.8613,-3.9949,-4.1257,-4.2485,-4.418,-4.4762,-4.4804,-4.4641,-4.4286,-4.408,-4.3905,-4.4036,-4.4211,-4.4539,-4.4866,-4.526,-4.5129,-4.4976,-4.5216,-4.5391,-4.5478,-4.5631,-4.5828,-4.5915,-4.598,-4.6002,-4.6002,-4.6002,-4.6002,-4.6002,-4.6002,-4.6002,-4.6002,-4.6002,-4.6002,-4.6002,-4.6002,-1.8433,-1.8314,-1.8301,-1.8275,-1.8093,-1.7629,-1.7458,-1.7611,-1.7407,-1.7341,-1.7416,-1.7426,-1.7426,-1.7426,-1.7426,-1.7426,-1.7426,-1.7426,-1.7578,-1.7873,-1.8025,-1.8339,-1.8856,-1.9233,-1.95,-1.9913,-2.0195,-2.0544,-2.1086,-2.21,-2.3341,-2.4623,-2.549,-2.6847,-2.7961,-2.89,-2.9523,-3.0159,-3.0624,-3.1087,-3.1241,-3.1395,-3.1395,-3.1395,-3.1395,-3.1549,-3.1686,-3.1993,-3.1993,-3.2146,-3.2604,-3.2757,-3.2909,-3.3213,-3.3517,-3.3685,-3.3837,-3.3837,-3.3837,-3.3837,-3.3837,-3.3837,-3.3837,-3.3837,-3.3837,-3.3837,-3.3988,-3.3988,-3.3988,-3.4139,-3.4423,-3.4591,-3.4847,-3.5273,-3.6092,-3.6952,-3.793,-3.8955,-4.0296,-4.1622,-4.2891,-4.4096,-4.4955,-4.5405,-4.5422,-4.483,-4.4408,-4.4058,-4.384,-4.3796,-4.3905,-4.4124,-4.443,-4.4735,-4.4561,-4.4473,-4.4735,-4.4932,-4.4997,-4.5194,-4.5565,-4.5762,-4.574,-4.5871,-4.6002,-4.6002,-4.6002,-4.6002,-4.6002,-4.6002,-4.6002,-4.6002,-4.6002,-4.6002,-4.6002,-1.8433,-1.8433,-1.8433,-1.828,-1.8174,-1.7755,-1.7743,-1.7809,-1.7408,-1.718,-1.735,-1.7398,-1.7388,-1.7416,-1.7426,-1.7426,-1.7426,-1.7426,-1.7721,-1.8025,-1.8329,-1.8633,-1.9088,-1.926,-1.9679,-1.996,-2.0221,-2.045,-2.1001,-2.2153,-2.3406,-2.4685,-2.5872,-2.7079,-2.8316,-2.9197,-2.9989,-3.0778,-3.1087,-3.1395,-3.1395,-3.1395,-3.1395,-3.1533,-3.1549,-3.1702,-3.1993,-3.2146,-3.2299,-3.2452,-3.2757,-3.2909,-3.3213,-3.3517,-3.3685,-3.3837,-3.3837,-3.3837,-3.3837,-3.3837,-3.3837,-3.3837,-3.3837,-3.3837,-3.3988,-3.3988,-3.4139,-3.429,-3.429,-3.4574,-3.4875,-3.5467,-3.5912,-3.6582,-3.7444,-3.8368,-3.9376,-4.0488,-4.1795,-4.3063,-4.4054,-4.5106,-4.5362,-4.5639,-4.5353,-4.4845,-4.4342,-4.3993,-4.3731,-4.3578,-4.3643,-4.3731,-4.3905,-4.4146,-4.4146,-4.4124,-4.432,-4.4473,-4.4517,-4.4757,-4.5129,-4.5347,-4.55,-4.5675,-4.5849,-4.5959,-4.6002,-4.6002,-4.6002,-4.6002,-4.6002,-4.6002,-4.6002,-4.6002,-4.6002,-1.8433,-1.8433,-1.8433,-1.8336,-1.8237,-1.7945,-1.7938,-1.8145,-1.7619,-1.7576,-1.7592,-1.765,-1.7577,-1.7388,-1.7416,-1.7426,-1.7426,-1.7731,-1.8025,-1.8481,-1.8633,-1.9088,-1.9542,-1.9693,-1.9898,-1.9908,-2.0125,-2.0538,-2.1221,-2.2353,-2.3606,-2.4868,-2.6074,-2.7339,-2.8762,-2.9513,-3.0299,-3.1087,-3.1395,-3.1549,-3.1549,-3.1549,-3.1549,-3.1686,-3.184,-3.1993,-3.2452,-3.274,-3.2892,-3.3044,-3.3365,-3.3534,-3.3685,-3.3837,-3.3837,-3.3837,-3.3837,-3.3837,-3.3837,-3.3837,-3.3837,-3.3837,-3.3837,-3.3988,-3.4139,-3.4139,-3.429,-3.4591,-3.4724,-3.5157,-3.5659,-3.6326,-3.7015,-3.7915,-3.8822,-3.9814,-4.0661,-4.1967,-4.3277,-4.4268,-4.5106,-4.5533,-4.5639,-4.5505,-4.5194,-4.4713,-4.4233,-4.3818,-4.3512,-4.3316,-4.3359,-4.3425,-4.3359,-4.349,-4.3599,-4.3731,-4.3905,-4.3993,-4.4036,-4.4342,-4.4692,-4.4997,-4.526,-4.5478,-4.5675,-4.5828,-4.5937,-4.6002,-4.6002,-4.6002,-4.6002,-4.6002,-4.6002,-4.6002,-4.6002,-1.8433,-1.8433,-1.8433,-1.8433,-1.8433,-1.8153,-1.8227,-1.8191,-1.8059,-1.797,-1.7879,-1.7763,-1.7631,-1.7473,-1.7379,-1.7569,-1.7731,-1.7873,-1.8329,-1.8795,-1.9098,-1.939,-1.9693,-1.9844,-1.9854,-1.9844,-2.0156,-2.0709,-2.1463,-2.2565,-2.3794,-2.4788,-2.6126,-2.7634,-2.8922,-2.9792,-3.0608,-3.1395,-3.1533,-3.1686,-3.1686,-3.1686,-3.1686,-3.1993,-3.2146,-3.2452,-3.274,-3.3044,-3.3196,-3.3365,-3.3685,-3.3685,-3.3837,-3.3837,-3.3837,-3.3837,-3.3837,-3.3837,-3.3837,-3.3837,-3.3837,-3.3837,-3.3837,-3.3988,-3.4441,-3.4591,-3.5174,-3.5324,-3.5474,-3.5754,-3.6905,-3.7538,-3.8364,-3.931,-4.0171,-4.1039,-4.21,-4.3256,-4.4138,-4.4913,-4.5405,-4.5704,-4.5893,-4.5609,-4.5172,-4.4692,-4.4189,-4.3709,-4.3381,-4.3184,-4.3184,-4.3184,-4.3184,-4.3184,-4.3337,-4.3381,-4.3425,-4.349,-4.3599,-4.3862,-4.4211,-4.467,-4.5019,-4.5281,-4.55,-4.5718,-4.5828,-4.5959,-4.6002,-4.6002,-4.6002,-4.6002,-4.6002,-4.6002,-4.6002,-1.8433,-1.8433,-1.8433,-1.8433,-1.8433,-1.8433,-1.8444,-1.8444,-1.8444,-1.8269,-1.8226,-1.789,-1.7773,-1.7631,-1.7586,-1.7815,-1.8016,-1.8329,-1.8633,-1.9088,-1.9239,-1.9542,-1.9844,-1.9844,-1.9844,-2.0145,-2.0296,-2.0759,-2.1268,-2.2651,-2.3858,-2.4869,-2.6267,-2.7899,-2.8951,-2.9792,-3.0608,-3.1379,-3.184,-3.1993,-3.1993,-3.2146,-3.2146,-3.2299,-3.2452,-3.2909,-3.3213,-3.3365,-3.3517,-3.3668,-3.3837,-3.3837,-3.3837,-3.3837,-3.3837,-3.3837,-3.3837,-3.3837,-3.3837,-3.3837,-3.3837,-3.3837,-3.3837,-3.4139,-3.4591,-3.5174,-3.5754,-3.6349,-3.6497,-3.6831,-3.783,-3.8895,-3.9602,-4.0594,-4.1485,-4.2342,-4.3366,-4.4331,-4.4955,-4.5405,-4.5704,-4.598,-4.574,-4.5478,-4.5041,-4.4561,-4.4124,-4.3665,-4.3316,-4.3228,-4.3184,-4.3184,-4.3184,-4.3184,-4.3184,-4.3206,-4.3228,-4.325,-4.3403,-4.3512,-4.3709,-4.4189,-4.4626,-4.5063,-4.5303,-4.5587,-4.5828,-4.598,-4.6002,-4.6002,-4.6002,-4.6002,-4.6002,-4.6002,-4.6002,-1.8433,-1.8433,-1.8433,-1.8433,-1.8433,-1.8433,-1.8433,-1.8433,-1.8433,-1.8325,-1.829,-1.8226,-1.7935,-1.7712,-1.7742,-1.7849,-1.8177,-1.8633,-1.8936,-1.9239,-1.9542,-1.9693,-1.9844,-1.9844,-1.9844,-2.0145,-2.0609,-2.106,-2.166,-2.2768,-2.4104,-2.5391,-2.6584,-2.8002,-2.9381,-3.0238,-3.0917,-3.1686,-3.1993,-3.2146,-3.2452,-3.2588,-3.274,-3.2892,-3.3044,-3.3365,-3.3517,-3.3685,-3.3685,-3.3837,-3.3837,-3.3837,-3.3837,-3.3837,-3.3837,-3.3837,-3.3837,-3.3837,-3.3837,-3.3837,-3.3837,-3.3988,-3.4139,-3.4574,-3.5174,-3.5754,-3.6645,-3.7677,-3.7824,-3.797,-3.873,-3.9593,-4.0495,-4.1583,-4.259,-4.3393,-4.4289,-4.4955,-4.5405,-4.5683,-4.581,-4.5784,-4.5478,-4.5107,-4.4582,-4.4124,-4.3709,-4.3316,-4.325,-4.3206,-4.3184,-4.3184,-4.3184,-4.3184,-4.3184,-4.3184,-4.3206,-4.3184,-4.3206,-4.3316,-4.349,-4.3709,-4.4146,-4.4757,-4.5194,-4.55,-4.574,-4.6002,-4.6002,-4.6002,-4.6002,-4.6002,-4.6002,-4.6002,-4.6002]}]]